[[{"header":{"parameterUnit":"m.s-1","parameterCategory":1,"la1":31.0,"la2":29.5877,"lo1":-88.7671,"lo2":-86.6584,"dx":0.0162,"dy":0.0185,"nx":115,"ny":88,"refTime":"2023-01-03T18:00:00:Z","depth":0,"parameterNumber":2,"parameterNumberName":"U-component_of_WINDS"},"data":[0.0,0.0,0.0,0.0,0.0,0.0,0.0,0.0,0.0,0.0,0.0,0.0,0.0,0.0,0.0,0.0,0.0,0.0,0.0,0.0,0.0,0.0,0.0,0.0,0.0,0.0,0.0,0.0,0.0,0.0,0.0,0.0,0.0,0.0,0.0,0.0,0.0,0.0,0.0,0.0,0.0,0.0,0.0,0.0,0.0,0.0,0.0,0.0,0.0,0.0,0.0,0.0,0.0,0.0,0.0,0.0,0.0,0.0,0.0,0.0,0.0,0.0,0.0,0.0,0.0,0.0,0.0,0.0,0.0,0.0,0.0,0.0,0.0,0.0,0.0,0.0,0.0,0.0,0.0,0.0,0.0,0.0,0.0,0.0,0.0,0.0,0.0,0.0,0.0,0.0,0.0,0.0,0.0,0.0,0.0,0.0,0.0,0.0,0.0,0.0,0.0,0.0,0.0,0.0,0.0,0.0,0.0,0.0,0.0,0.0,0.0,0.0,0.0,0.0,0.0,0.0,0.0,0.0,0.0,0.0,0.0,0.0,0.0,0.0,0.0,0.0,0.0,0.0,0.0,0.0,0.0,0.0,0.0,0.0,0.0,0.0,0.0,0.0,0.0,0.0,0.0,0.0,0.0,0.0,0.0,0.0,0.0,0.0,0.0,0.0,0.0,0.0,0.0,0.0,0.0,0.0,0.0,0.0,0.0,0.0,0.0,0.0,0.0,0.0,0.0,0.0,0.0,0.0,0.0,0.0,0.0,0.0,0.0,0.0,0.0,0.0,0.0,0.0,0.0,0.0,0.0,0.0,0.0,0.0,0.0,0.0,0.0,0.0,0.0,0.0,0.0,0.0,0.0,0.0,0.0,0.0,0.0,0.0,0.0,0.0,0.0,0.0,0.0,0.0,0.0,0.0,0.0,0.0,0.0,0.0,0.0,0.0,0.0,0.0,0.0,0.0,0.0,0.0,0.0,0.0,0.0,0.0,0.0,0.0,0.0,0.0,0.0,0.0,0.0,0.0,0.0,0.0,0.0,0.0,0.0,0.0,0.0,0.0,0.0,0.0,0.0,0.0,0.0,0.0,0.0,0.0,0.0,0.0,0.0,0.0,0.0,0.0,0.0,0.0,0.0,0.0,0.0,0.0,0.0,0.0,0.0,0.0,0.0,0.0,0.0,0.0,0.0,0.0,0.0,0.0,0.0,0.0,0.0,0.0,0.0,0.0,0.0,0.0,0.0,0.0,0.0,0.0,0.0,0.0,0.0,0.0,0.0,0.0,0.0,0.0,0.0,0.0,0.0,0.0,0.0,0.0,0.0,0.0,0.0,0.0,0.0,0.0,0.0,0.0,0.0,0.0,0.0,0.0,0.0,0.0,0.0,0.0,0.0,0.0,0.0,0.0,0.0,0.0,0.0,0.0,0.0,0.0,0.0,0.0,0.0,0.0,0.0,0.0,0.0,0.0,0.0,0.0,0.0,0.0,0.0,0.0,0.0,0.0,0.0,0.0,0.0,0.0,0.0,0.0,0.0,0.0,0.0,0.0,0.0,0.0,0.0,0.0,0.0,0.0,0.0,0.0,0.0,0.0,0.0,0.0,0.0,0.0,0.0,0.0,0.0,0.0,0.0,0.0,0.0,0.0,0.0,0.0,0.0,0.0,0.0,0.0,0.0,0.0,0.0,0.0,0.0,0.0,0.0,0.0,0.0,0.0,0.0,0.0,0.0,0.0,0.0,0.0,0.0,0.0,0.0,0.0,0.0,0.0,0.0,0.0,0.0,0.0,0.0,0.0,0.0,0.0,0.0,0.0,0.0,0.0,0.0,0.0,0.0,0.0,0.0,0.0,0.0,0.0,0.0,0.0,0.0,0.0,0.0,0.0,0.0,0.0,0.0,0.0,0.0,0.0,0.0,0.0,0.0,0.0,0.0,0.0,0.0,0.0,0.0,0.0,0.0,0.0,0.0,0.0,0.0,0.0,0.0,0.0,0.0,0.0,0.0,0.0,0.0,0.0,0.0,0.0,0.0,0.0,0.0,0.0,0.0,0.0,0.0,0.0,0.0,0.0,0.0,0.0,0.0,0.0,0.0,0.0,0.0,0.0,0.0,0.0,0.0,0.0,0.0,0.0,0.0,0.0,0.0,0.0,0.0,0.0,0.0,0.0,0.0,0.0,0.0,0.0,0.0,0.0,0.0,0.0,0.0,0.0,0.0,0.0,0.0,0.0,0.0,0.0,0.0,0.0,0.0,0.0,0.0,0.0,0.0,0.0,0.0,0.0,0.0,0.0,0.0,0.0,0.0,0.0,0.0,0.0,0.0,0.0,0.0,0.0,0.0,0.0,0.0,0.0,0.0,0.0,0.0,0.0,0.0,0.0,0.0,0.0,0.0,0.0,0.0,0.0,0.0,0.0,0.0,0.0,0.0,0.0,0.0,0.0,0.0,0.0,0.0,0.0,0.0,0.0,0.0,0.0,0.0,0.0,0.0,0.0,0.0,0.0,0.0,0.0,0.0,0.0,0.0,0.0,0.0,0.0,0.0,0.0,0.0,0.0,0.0,0.0,0.0,0.0,0.0,0.0,0.0,0.0,0.0,0.0,0.0,0.0,0.0,0.0,0.0,0.0,0.0,0.0,0.0,0.0,0.0,0.0,0.0,0.0,0.0,0.0,0.0,0.0,0.0,0.0,0.0,0.0,0.0,0.0,0.0,0.0,0.0,0.0,0.0,0.0,0.0,0.0,0.0,0.0,0.0,0.0,0.0,0.0,0.0,0.0,0.0,0.0,0.0,0.0,0.0,0.0,0.0,0.0,0.0,0.0,0.0,0.0,0.0,0.0,0.0,0.0,0.0,0.0,0.0,0.0,0.0,0.0,0.0,0.0,0.0,0.0,0.0,0.0,0.0,0.0,0.0,0.0,0.0,0.0,0.0,0.0,0.0,0.0,0.0,0.0,0.0,0.0,0.0,0.0,0.0,0.0,0.0,0.0,0.0,0.0,0.0,0.0,0.0,0.0,0.0,0.0,0.0,0.0,0.0,0.0,0.0,0.0,0.0,0.0,0.0,0.0,0.0,0.0,0.0,0.0,0.0,0.0,0.0,0.0,0.0,0.0,0.0,0.0,0.0,0.0,0.0,0.0,0.0,0.0,0.0,0.0,0.0,0.0,0.0,0.0,0.0,0.0,0.0,0.0,0.0,0.0,0.0,0.0,0.0,0.0,0.0,0.0,0.0,0.0,0.0,0.0,0.0,0.0,0.0,0.0,0.0,0.0,0.0,0.0,0.0,0.0,0.0,0.0,0.0,0.0,0.0,0.0,0.0,0.0,0.0,0.0,0.0,0.0,0.0,0.0,0.0,0.0,0.0,0.0,0.0,0.0,0.0,0.0,0.0,0.0,0.0,0.0,0.0,0.0,0.0,0.0,0.0,0.0,0.0,0.0,0.0,0.0,0.0,0.0,0.0,0.0,0.0,0.0,0.0,0.0,0.0,0.0,0.0,0.0,0.0,0.0,0.0,0.0,0.0,0.0,0.0,0.0,0.0,0.0,0.0,0.0,0.0,0.0,0.0,0.0,0.0,0.0,0.0,0.0,0.0,0.0,0.0,0.0,0.0,0.0,0.0,0.0,0.0,0.0,0.0,0.0,0.0,0.0,0.0,0.0,0.0,0.0,0.0,0.0,0.0,0.0,0.0,0.0,0.0,0.0,0.0,0.0,0.0,0.0,0.0,0.0,0.0,0.0,0.0,0.0,0.0,0.0,0.0,0.0,0.0,0.0,0.0,0.0,0.0,0.0,0.0,0.0,0.0,0.0,0.0,0.0,0.0,0.0,0.0,0.0,0.0,0.0,0.0,0.0,0.0,0.0,0.0,0.0,0.0,0.0,0.0,0.0,0.0,0.0,0.0,0.0,0.0,0.0,0.0,0.0,0.0,0.0,0.0,0.0,0.0,0.0,0.0,0.0,0.0,0.0,0.0,0.0,0.0,0.0,0.0,0.0,0.0,0.0,0.0,0.0,0.0,0.0,0.0,0.0,0.0,0.0,0.0,0.0,0.0,0.0,0.0,0.0,0.0,0.0,0.0,0.0,0.0,0.0,0.0,0.0,0.0,0.0,0.0,0.0,0.0,0.0,0.0,0.0,0.0,0.0,0.0,0.0,0.0,0.0,0.0,0.0,0.0,0.0,0.0,0.0,0.0,0.0,0.0,0.0,0.0,0.0,0.0,0.0,0.0,0.0,0.0,0.0,0.0,0.0,0.0,0.0,2.0338,0.0,0.0,0.0,1.9083,0.0,0.0,0.0,0.0,0.0,0.0,0.0,0.0,0.0,0.0,0.0,0.0,0.0,0.0,0.0,0.0,0.0,0.0,0.0,0.0,0.0,0.0,0.0,0.0,0.0,0.0,0.0,0.0,0.0,0.0,0.0,0.0,0.0,0.0,0.0,0.0,0.0,0.0,0.0,0.0,0.0,0.0,0.0,0.0,0.0,0.0,0.0,0.0,0.0,0.0,0.0,0.0,0.0,0.0,0.0,0.0,0.0,0.0,0.0,0.0,0.0,0.0,0.0,0.0,0.0,0.0,0.0,0.0,0.0,0.0,0.0,0.0,0.0,0.0,0.0,0.0,0.0,0.0,0.0,0.0,0.0,0.0,0.0,0.0,0.0,0.0,0.0,0.0,0.0,0.0,0.0,0.0,0.0,0.0,0.0,0.0,0.0,0.0,0.0,0.0,0.0,0.0,0.0,0.0,0.0,0.0,0.0,0.0,0.0,0.0,2.0062,1.9811,2.0062,1.9685,1.8631,0.0,0.0,0.0,0.0,0.0,0.0,0.0,0.0,0.0,0.0,0.0,0.0,0.0,0.0,0.0,0.0,0.0,0.0,0.0,0.0,0.0,0.0,0.0,0.0,0.0,0.0,0.0,0.0,0.0,0.0,0.0,0.0,0.0,0.0,0.0,0.0,0.0,0.0,0.0,0.0,0.0,0.0,0.0,0.0,0.0,0.0,0.0,0.0,0.0,0.0,0.0,0.0,0.0,0.0,0.0,0.0,0.0,0.0,0.0,0.0,0.0,0.0,0.0,0.0,0.0,0.0,0.0,0.0,0.0,0.0,0.0,0.0,0.0,0.0,0.0,0.0,0.0,0.0,0.0,0.0,0.0,0.0,0.0,0.0,0.0,0.0,0.0,0.0,0.0,0.0,0.0,0.0,0.0,0.0,0.0,0.0,0.0,0.0,0.0,0.0,0.0,0.0,0.0,0.0,0.0,0.0,0.0,0.0,0.0,0.0,0.0,0.0,2.0062,1.956,1.8279,0.0,0.0,0.0,0.0,0.0,0.0,0.0,0.0,0.0,0.0,0.0,0.0,0.0,0.0,0.0,0.0,0.0,0.0,0.0,0.0,0.0,0.0,0.0,0.0,0.0,0.0,0.0,0.0,0.0,0.0,0.0,0.0,0.0,0.0,0.0,0.0,0.0,0.0,0.0,0.0,0.0,0.0,0.0,0.0,0.0,0.0,0.0,0.0,0.0,0.0,0.0,0.0,0.0,0.0,0.0,0.0,0.0,0.0,0.0,0.0,0.0,0.0,0.0,0.0,0.0,0.0,0.0,0.0,0.0,0.0,0.0,0.0,0.0,0.0,0.0,0.0,0.0,0.0,0.0,0.0,0.0,0.0,0.0,0.0,0.0,0.0,0.0,0.0,0.0,0.0,0.0,0.0,0.0,0.0,0.0,0.0,0.0,0.0,0.0,0.0,0.0,0.0,0.0,0.0,0.0,0.0,0.0,0.0,0.0,0.0,2.084,1.9861,2.079,0.0,1.8455,0.0,0.0,0.0,0.0,0.0,0.0,0.0,0.0,0.0,0.0,0.0,0.0,0.0,0.0,0.0,0.0,0.0,0.0,0.0,0.0,0.0,0.0,0.0,0.0,0.0,0.0,0.0,0.0,0.0,0.0,0.0,0.0,0.0,0.0,0.0,0.0,0.0,0.0,0.0,0.0,0.0,0.0,0.0,0.0,0.0,0.0,0.0,0.0,0.0,0.0,0.0,0.0,0.0,0.0,0.0,0.0,0.0,0.0,0.0,0.0,0.0,0.0,0.0,0.0,0.0,0.0,0.0,0.0,0.0,0.0,0.0,0.0,0.0,0.0,0.0,0.0,0.0,0.0,0.0,0.0,0.0,0.0,0.0,0.0,0.0,0.0,0.0,0.0,0.0,0.0,0.0,0.0,0.0,0.0,0.0,0.0,0.0,0.0,0.0,0.0,0.0,0.0,0.0,0.0,0.0,0.0,0.0,0.0,0.0,0.0,2.1117,2.0338,2.0439,2.0238,0.0,0.0,0.0,0.0,0.0,0.0,0.0,0.0,0.0,0.0,0.0,0.0,0.0,0.0,0.0,0.0,0.0,0.0,0.0,0.0,0.0,0.0,0.0,0.0,0.0,0.0,0.0,0.0,0.0,0.0,0.0,0.0,0.0,0.0,0.0,0.0,0.0,0.0,0.0,0.0,0.0,0.0,0.0,0.0,0.0,0.0,0.0,0.0,0.0,0.0,0.0,0.0,0.0,0.0,0.0,0.0,0.0,0.0,0.0,0.0,0.0,0.0,0.0,0.0,0.0,0.0,0.0,0.0,0.0,0.0,0.0,0.0,0.0,0.0,0.0,0.0,0.0,0.0,0.0,0.0,0.0,0.0,0.0,0.0,0.0,0.0,0.0,0.0,0.0,0.0,0.0,0.0,0.0,0.0,0.0,0.0,0.0,0.0,0.0,0.0,0.0,0.0,0.0,0.0,0.0,0.0,0.0,0.0,0.0,0.0,2.0991,2.1292,2.0916,2.079,2.0564,2.0238,0.0,0.0,0.0,0.0,0.0,0.0,0.0,0.0,0.0,0.0,0.0,0.0,0.0,0.0,0.0,0.0,0.0,0.0,0.0,0.0,0.0,0.0,0.0,0.0,0.0,0.0,0.0,0.0,0.0,0.0,0.0,0.0,0.0,0.0,0.0,0.0,0.0,0.0,0.0,0.0,0.0,0.0,0.0,0.0,0.0,0.0,0.0,0.0,0.0,0.0,0.0,0.0,0.0,0.0,0.0,0.0,0.0,0.0,0.0,0.0,0.0,0.0,0.0,0.0,0.0,0.0,0.0,0.0,0.0,0.0,0.0,0.0,0.0,0.0,0.0,0.0,0.0,0.0,0.0,0.0,0.0,0.0,0.0,0.0,0.0,0.0,0.0,0.0,0.0,0.0,0.0,0.0,0.0,0.0,0.0,0.0,0.0,0.0,0.0,0.0,0.0,0.0,0.0,0.0,0.0,0.0,0.0,0.0,2.0643,2.1167,2.1468,2.1493,2.2447,2.1769,0.0,0.0,0.0,0.0,0.0,0.0,0.0,0.0,0.0,0.0,0.0,0.0,0.0,0.0,0.0,0.0,0.0,0.0,0.0,0.0,0.0,0.0,0.0,0.0,0.0,0.0,0.0,0.0,0.0,0.0,0.0,0.0,0.0,0.0,0.0,0.0,0.0,0.0,0.0,0.0,0.0,0.0,0.0,0.0,0.0,0.0,0.0,0.0,0.0,0.0,0.0,0.0,0.0,0.0,0.0,0.0,0.0,0.0,0.0,0.0,0.0,0.0,0.0,0.0,0.0,0.0,0.0,0.0,0.0,0.0,0.0,0.0,0.0,0.0,0.0,0.0,0.0,0.0,0.0,0.0,0.0,0.0,0.0,0.0,0.0,0.0,0.0,0.0,0.0,0.0,0.0,0.0,0.0,0.0,0.0,0.0,0.0,0.0,0.0,0.0,0.0,0.0,0.0,0.0,0.0,0.0,0.0,0.0,0.0,1.9108,1.9962,2.1267,2.2975,2.2121,2.1242,0.0,0.0,0.0,0.0,0.0,0.0,0.0,0.0,0.0,0.0,0.0,0.0,0.0,0.0,0.0,0.0,0.0,0.0,0.0,0.0,0.0,0.0,0.0,0.0,0.0,0.0,0.0,0.0,0.0,0.0,0.0,0.0,0.0,0.0,0.0,0.0,0.0,0.0,0.0,0.0,0.0,0.0,0.0,0.0,0.0,0.0,0.0,0.0,0.0,0.0,0.0,0.0,0.0,0.0,0.0,0.0,0.0,0.0,0.0,0.0,0.0,0.0,0.0,0.0,0.0,0.0,0.0,0.0,0.0,0.0,0.0,0.0,0.0,0.0,0.0,0.0,0.0,0.0,0.0,0.0,0.0,0.0,0.0,0.0,0.0,0.0,0.0,0.0,0.0,0.0,0.0,0.0,0.0,0.0,0.0,0.0,0.0,0.0,0.0,0.0,0.0,0.0,0.0,0.0,0.0,0.0,0.0,0.0,0.0,1.9557,2.0242,2.1554,2.3323,2.2009,2.1117,0.0,0.0,0.0,0.0,0.0,0.0,0.0,0.0,0.0,0.0,0.0,0.0,0.0,0.0,0.0,0.0,0.0,0.0,0.0,0.0,0.0,0.0,0.0,0.0,0.0,0.0,0.0,0.0,0.0,0.0,0.0,0.0,0.0,0.0,0.0,0.0,0.0,0.0,0.0,0.0,0.0,0.0,0.0,0.0,0.0,0.0,0.0,0.0,0.0,0.0,0.0,0.0,0.0,0.0,0.0,0.0,0.0,0.0,0.0,0.0,0.0,0.0,0.0,0.0,0.0,0.0,0.0,0.0,0.0,0.0,0.0,0.0,0.0,0.0,0.0,0.0,0.0,0.0,0.0,0.0,0.0,0.0,0.0,0.0,0.0,0.0,0.0,0.0,0.0,0.0,0.0,0.0,0.0,0.0,0.0,0.0,0.0,0.0,0.0,0.0,0.0,0.0,0.0,0.0,0.0,0.0,0.0,0.0,2.0093,2.2139,2.2178,2.2229,2.2374,2.2286,2.1493,0.0,0.0,0.0,0.0,0.0,0.0,0.0,0.0,0.0,0.0,0.0,0.0,0.0,0.0,0.0,0.0,0.0,0.0,0.0,0.0,0.0,0.0,0.0,0.0,0.0,0.0,0.0,0.0,0.0,0.0,0.0,0.0,0.0,0.0,0.0,0.0,0.0,0.0,0.0,0.0,0.0,0.0,0.0,0.0,0.0,0.0,0.0,0.0,0.0,0.0,0.0,0.0,0.0,0.0,0.0,0.0,0.0,0.0,0.0,0.0,0.0,0.0,0.0,0.0,0.0,0.0,0.0,0.0,0.0,0.0,0.0,0.0,0.0,0.0,0.0,0.0,0.0,0.0,0.0,0.0,0.0,0.0,0.0,0.0,0.0,0.0,0.0,0.0,0.0,0.0,0.0,0.0,0.0,0.0,0.0,0.0,0.0,0.0,0.0,0.0,0.0,0.0,0.0,0.0,0.0,0.0,0.0,0.0,0.0,1.9557,2.0595,2.1378,2.172,2.1378,2.0941,0.0,0.0,0.0,0.0,0.0,0.0,0.0,0.0,0.0,0.0,0.0,0.0,0.0,0.0,0.0,0.0,0.0,0.0,0.0,0.0,0.0,0.0,0.0,0.0,0.0,0.0,0.0,0.0,0.0,0.0,0.0,0.0,0.0,0.0,0.0,0.0,0.0,0.0,0.0,0.0,0.0,0.0,0.0,0.0,0.0,0.0,0.0,0.0,0.0,0.0,0.0,0.0,0.0,0.0,0.0,0.0,0.0,0.0,0.0,0.0,0.0,0.0,0.0,0.0,0.0,0.0,0.0,0.0,0.0,0.0,0.0,0.0,0.0,0.0,0.0,0.0,0.0,0.0,0.0,0.0,0.0,0.0,0.0,0.0,0.0,0.0,0.0,0.0,0.0,0.0,0.0,0.0,0.0,0.0,0.0,0.0,0.0,0.0,0.0,0.0,0.0,0.0,0.0,0.0,0.0,0.0,0.0,0.0,0.0,2.0514,2.197,2.317,2.3858,2.2789,2.182,2.1046,0.0,0.0,0.0,0.0,0.0,0.0,0.0,0.0,0.0,0.0,0.0,0.0,0.0,0.0,0.0,0.0,0.0,0.0,0.0,0.0,0.0,0.0,0.0,0.0,0.0,0.0,0.0,0.0,0.0,0.0,0.0,0.0,0.0,0.0,0.0,0.0,0.0,0.0,0.0,0.0,0.0,0.0,0.0,0.0,0.0,0.0,0.0,0.0,0.0,0.0,0.0,0.0,0.0,0.0,0.0,0.0,0.0,0.0,0.0,0.0,0.0,0.0,0.0,0.0,0.0,0.0,0.0,0.0,0.0,0.0,0.0,0.0,0.0,0.0,0.0,0.0,0.0,0.0,0.0,0.0,0.0,0.0,0.0,0.0,0.0,0.0,0.0,0.0,0.0,0.0,0.0,0.0,0.0,0.0,0.0,0.0,0.0,0.0,0.0,0.0,0.0,0.0,0.0,0.0,0.0,0.0,0.0,0.0,2.4418,2.5996,2.7085,2.7642,2.5716,2.3803,0.0,0.0,0.0,0.0,0.0,0.0,0.0,0.0,0.0,0.0,0.0,0.0,0.0,0.0,0.0,0.0,0.0,0.0,0.0,0.0,0.0,0.0,0.0,0.0,0.0,0.0,0.0,0.0,0.0,0.0,0.0,0.0,0.0,0.0,0.0,0.0,0.0,0.0,0.0,0.0,0.0,0.0,0.0,0.0,0.0,0.0,0.0,0.0,0.0,0.0,0.0,0.0,0.0,0.0,0.0,0.0,0.0,0.0,0.0,0.0,0.0,0.0,0.0,0.0,0.0,0.0,0.0,0.0,0.0,0.0,0.0,0.0,0.0,0.0,0.0,0.0,0.0,0.0,0.0,0.0,0.0,0.0,0.0,0.0,0.0,0.0,0.0,0.0,0.0,0.0,0.0,0.0,0.0,0.0,0.0,0.0,0.0,0.0,0.0,0.0,0.0,0.0,0.0,0.0,0.0,0.0,0.0,0.0,0.0,2.8825,3.0335,2.9921,2.7516,2.5329,2.413,0.0,0.0,0.0,0.0,0.0,0.0,0.0,0.0,0.0,0.0,0.0,0.0,0.0,0.0,0.0,0.0,0.0,0.0,0.0,0.0,0.0,0.0,0.0,0.0,0.0,0.0,0.0,0.0,0.0,0.0,0.0,0.0,0.0,0.0,0.0,0.0,0.0,0.0,0.0,0.0,0.0,0.0,0.0,0.0,0.0,0.0,0.0,0.0,0.0,0.0,0.0,0.0,0.0,0.0,0.0,0.0,0.0,0.0,0.0,0.0,0.0,0.0,0.0,0.0,0.0,0.0,0.0,0.0,0.0,0.0,0.0,0.0,0.0,0.0,0.0,0.0,0.0,0.0,0.0,0.0,0.0,0.0,0.0,0.0,0.0,0.0,0.0,0.0,0.0,0.0,0.0,0.0,0.0,0.0,0.0,0.0,0.0,0.0,0.0,0.0,0.0,0.0,0.0,0.0,0.0,0.0,0.0,0.0,2.7749,3.0262,3.2358,3.2277,2.9754,2.7369,2.5661,0.0,0.0,0.0,0.0,0.0,0.0,0.0,0.0,0.0,0.0,0.0,0.0,0.0,0.0,0.0,0.0,0.0,0.0,0.0,0.0,0.0,0.0,0.0,0.0,0.0,0.0,0.0,0.0,0.0,0.0,0.0,0.0,0.0,0.0,0.0,0.0,0.0,0.0,0.0,0.0,0.0,0.0,0.0,0.0,0.0,0.0,0.0,0.0,0.0,0.0,0.0,0.0,0.0,0.0,0.0,0.0,0.0,0.0,0.0,0.0,0.0,0.0,0.0,0.0,0.0,0.0,0.0,0.0,0.0,0.0,0.0,0.0,0.0,0.0,0.0,0.0,0.0,0.0,0.0,0.0,0.0,0.0,0.0,0.0,0.0,0.0,0.0,0.0,0.0,0.0,0.0,0.0,0.0,0.0,0.0,0.0,0.0,0.0,0.0,0.0,0.0,0.0,0.0,0.0,0.0,0.0,0.0,0.0,2.9652,3.011,3.295,3.4121,3.3164,3.041,2.767,0.0,0.0,0.0,0.0,0.0,0.0,0.0,0.0,0.0,0.0,0.0,0.0,0.0,0.0,0.0,0.0,0.0,0.0,0.0,0.0,0.0,0.0,0.0,0.0,0.0,0.0,0.0,0.0,0.0,0.0,0.0,0.0,0.0,0.0,0.0,0.0,0.0,0.0,0.0,0.0,0.0,0.0,0.0,0.0,0.0,0.0,0.0,0.0,0.0,0.0,0.0,0.0,0.0,0.0,0.0,0.0,0.0,0.0,0.0,0.0,0.0,0.0,0.0,0.0,0.0,0.0,0.0,0.0,0.0,0.0,0.0,0.0,0.0,0.0,0.0,0.0,0.0,0.0,0.0,0.0,0.0,0.0,0.0,0.0,0.0,0.0,0.0,0.0,0.0,0.0,0.0,0.0,0.0,0.0,0.0,0.0,0.0,0.0,0.0,0.0,0.0,0.0,0.0,0.0,0.0,0.0,0.0,0.0,3.0529,3.2071,3.4179,3.4924,3.4147,3.0342,2.7795,0.0,0.0,0.0,0.0,0.0,0.0,0.0,0.0,0.0,0.0,0.0,0.0,0.0,0.0,0.0,0.0,0.0,0.0,0.0,0.0,0.0,0.0,0.0,0.0,0.0,0.0,0.0,0.0,0.0,0.0,0.0,0.0,0.0,0.0,0.0,0.0,0.0,0.0,0.0,0.0,0.0,0.0,0.0,0.0,0.0,0.0,0.0,0.0,2.1031,0.0,0.0,0.0,0.0,0.0,0.0,0.0,0.0,0.0,0.0,0.0,0.0,0.0,0.0,0.0,0.0,0.0,0.0,0.0,0.0,0.0,0.0,0.0,0.0,0.0,0.0,0.0,0.0,0.0,0.0,0.0,0.0,0.0,0.0,0.0,0.0,0.0,0.0,0.0,0.0,0.0,0.0,0.0,0.0,0.0,0.0,0.0,0.0,0.0,0.0,0.0,0.0,0.0,0.0,0.0,0.0,0.0,0.0,0.0,3.0079,3.2197,3.3688,3.4204,3.3733,3.1073,2.8775,0.0,0.0,0.0,0.0,0.0,0.0,0.0,0.0,0.0,0.0,0.0,0.0,0.0,0.0,0.0,0.0,0.0,0.0,0.0,0.0,0.0,0.0,0.0,0.0,0.0,0.0,0.0,0.0,0.0,0.0,0.0,0.0,0.0,0.0,0.0,0.0,0.0,0.0,0.0,0.0,0.0,0.0,0.0,0.0,0.0,0.0,0.0,0.0,0.0,0.0,0.0,0.0,0.0,0.0,0.0,0.0,0.0,0.0,0.0,0.0,0.0,0.0,0.0,0.0,0.0,0.0,0.0,0.0,0.0,0.0,0.0,0.0,0.0,0.0,0.0,0.0,0.0,0.0,0.0,0.0,0.0,0.0,0.0,0.0,0.0,0.0,0.0,0.0,0.0,0.0,0.0,0.0,0.0,0.0,0.0,0.0,0.0,0.0,0.0,0.0,0.0,0.0,0.0,0.0,0.0,0.0,0.0,2.7043,2.9656,3.2168,3.3098,3.3492,3.3319,3.2164,2.9955,2.6741,0.0,0.0,0.0,0.0,0.0,0.0,0.0,0.0,0.0,0.0,0.0,0.0,0.0,0.0,0.0,0.0,0.0,0.0,0.0,0.0,0.0,0.0,0.0,0.0,0.0,0.0,0.0,0.0,0.0,0.0,0.0,0.0,0.0,0.0,0.0,0.0,0.0,0.0,1.9267,1.9834,0.0,0.0,0.0,0.0,0.0,0.0,0.0,0.0,2.1544,0.0,0.0,0.0,0.0,0.0,0.0,0.0,0.0,0.0,0.0,0.0,0.0,0.0,0.0,0.0,0.0,0.0,0.0,0.0,0.0,0.0,0.0,0.0,0.0,0.0,0.0,0.0,0.0,0.0,0.0,0.0,0.0,0.0,0.0,0.0,0.0,0.0,0.0,0.0,0.0,0.0,0.0,0.0,0.0,0.0,0.0,0.0,0.0,0.0,0.0,0.0,0.0,0.0,0.0,0.0,0.0,2.7314,2.9047,3.1267,3.4161,3.5095,3.5197,3.4399,3.2918,3.0532,2.7318,0.0,0.0,0.0,0.0,0.0,0.0,0.0,0.0,0.0,0.0,0.0,0.0,0.0,0.0,0.0,0.0,0.0,0.0,0.0,0.0,0.0,0.0,0.0,0.0,0.0,0.0,0.0,0.0,0.0,0.0,0.0,0.0,0.0,0.0,0.0,0.0,0.0,0.0,0.0,2.2433,2.2295,0.0,0.0,0.0,0.0,0.0,0.0,0.0,0.0,2.3633,0.0,0.0,0.0,0.0,0.0,0.0,0.0,0.0,0.0,0.0,0.0,0.0,0.0,0.0,0.0,0.0,0.0,0.0,0.0,0.0,0.0,0.0,0.0,0.0,0.0,0.0,0.0,0.0,0.0,0.0,0.0,0.0,0.0,0.0,0.0,0.0,0.0,0.0,0.0,0.0,0.0,0.0,0.0,0.0,0.0,0.0,0.0,0.0,0.0,0.0,0.0,0.0,0.0,0.0,0.0,2.7379,3.0266,3.274,3.4805,3.5149,3.5149,3.47,3.3395,3.0959,0.0,0.0,0.0,0.0,0.0,0.0,0.0,0.0,0.0,0.0,0.0,0.0,0.0,0.0,0.0,0.0,0.0,0.0,0.0,0.0,0.0,0.0,0.0,0.0,0.0,0.0,0.0,0.0,0.0,0.0,0.0,0.0,0.0,0.0,0.0,0.0,0.0,0.0,0.0,0.0,2.3577,2.3952,2.4821,0.0,0.0,0.0,0.0,0.0,0.0,2.4413,2.3793,0.0,0.0,0.0,0.0,0.0,0.0,0.0,0.0,0.0,0.0,0.0,0.0,0.0,0.0,0.0,0.0,0.0,0.0,0.0,0.0,0.0,0.0,0.0,0.0,0.0,0.0,0.0,0.0,0.0,0.0,0.0,0.0,0.0,0.0,0.0,0.0,0.0,0.0,0.0,0.0,0.0,0.0,0.0,0.0,0.0,0.0,0.0,0.0,0.0,0.0,0.0,0.0,0.0,0.0,0.0,2.6942,3.0838,3.3708,3.5249,3.5143,3.5052,3.5027,3.3671,3.1185,0.0,0.0,0.0,0.0,0.0,0.0,0.0,0.0,0.0,0.0,0.0,0.0,0.0,0.0,0.0,0.0,0.0,0.0,0.0,0.0,0.0,0.0,0.0,0.0,0.0,0.0,0.0,0.0,0.0,0.0,0.0,0.0,0.0,0.0,0.0,0.0,0.0,0.0,0.0,0.0,0.0,2.5462,2.6152,2.5561,0.0,0.0,0.0,0.0,2.6332,2.5561,0.0,0.0,0.0,0.0,0.0,0.0,0.0,0.0,0.0,0.0,0.0,0.0,0.0,0.0,0.0,0.0,0.0,0.0,0.0,0.0,0.0,0.0,0.0,0.0,0.0,0.0,0.0,0.0,0.0,0.0,0.0,0.0,0.0,0.0,0.0,0.0,0.0,0.0,0.0,0.0,0.0,0.0,0.0,0.0,0.0,0.0,0.0,0.0,0.0,0.0,0.0,0.0,0.0,0.0,0.0,0.0,2.7238,3.0557,3.3571,3.6125,3.6276,3.6182,3.6132,3.3671,3.0959,0.0,0.0,0.0,0.0,0.0,0.0,0.0,0.0,0.0,0.0,0.0,0.0,0.0,0.0,0.0,0.0,0.0,0.0,0.0,0.0,0.0,0.0,0.0,0.0,0.0,0.0,0.0,0.0,0.0,0.0,0.0,0.0,0.0,0.0,0.0,0.0,0.0,0.0,0.0,0.0,0.0,2.684,2.7916,2.6804,2.5777,0.0,0.0,2.8375,2.9605,2.9753,0.0,0.0,0.0,0.0,0.0,0.0,0.0,0.0,0.0,0.0,0.0,0.0,0.0,0.0,0.0,0.0,0.0,0.0,0.0,0.0,0.0,0.0,0.0,0.0,0.0,0.0,0.0,0.0,0.0,0.0,0.0,0.0,0.0,0.0,0.0,0.0,0.0,0.0,0.0,0.0,0.0,0.0,0.0,0.0,0.0,0.0,0.0,0.0,0.0,0.0,0.0,0.0,0.0,0.0,0.0,2.5686,2.7821,3.224,3.5152,3.6307,3.6358,3.6358,3.6358,3.3972,3.126,0.0,0.0,0.0,0.0,0.0,0.0,0.0,0.0,0.0,0.0,0.0,0.0,0.0,0.0,0.0,0.0,0.0,0.0,0.0,0.0,0.0,0.0,0.0,0.0,0.0,0.0,0.0,0.0,0.0,0.0,0.0,0.0,0.0,0.0,0.0,0.0,0.0,0.0,0.0,0.0,0.0,0.0,2.9555,2.9201,0.0,0.0,0.0,2.9917,3.0022,0.0,0.0,0.0,0.0,0.0,0.0,0.0,0.0,0.0,0.0,0.0,0.0,0.0,0.0,0.0,0.0,0.0,0.0,0.0,0.0,0.0,0.0,0.0,0.0,0.0,0.0,0.0,0.0,0.0,0.0,0.0,0.0,0.0,0.0,0.0,0.0,0.0,0.0,0.0,0.0,0.0,0.0,0.0,0.0,0.0,0.0,0.0,0.0,0.0,0.0,0.0,0.0,0.0,0.0,0.0,0.0,0.0,2.8172,3.3545,3.6358,3.6358,3.6358,3.6358,3.6332,3.45,0.0,0.0,0.0,0.0,0.0,0.0,0.0,0.0,0.0,0.0,0.0,0.0,0.0,0.0,0.0,0.0,0.0,0.0,0.0,0.0,0.0,0.0,0.0,0.0,0.0,0.0,0.0,1.686,0.0,0.0,0.0,0.0,0.0,0.0,0.0,0.0,0.0,0.0,0.0,0.0,0.0,0.0,2.9886,3.0635,3.0941,3.1234,0.0,0.0,3.11,3.1079,3.1303,3.043,0.0,0.0,0.0,0.0,0.0,0.0,0.0,0.0,0.0,0.0,0.0,0.0,0.0,0.0,0.0,0.0,0.0,0.0,0.0,0.0,0.0,0.0,0.0,0.0,0.0,0.0,0.0,0.0,0.0,0.0,0.0,0.0,0.0,0.0,0.0,0.0,0.0,0.0,0.0,0.0,0.0,0.0,0.0,0.0,0.0,0.0,0.0,0.0,0.0,0.0,0.0,0.0,0.0,0.0,0.0,2.8247,3.3545,3.6358,3.6358,3.6358,3.6358,3.6358,3.5228,3.2566,0.0,0.0,0.0,0.0,0.0,0.0,0.0,0.0,0.0,0.0,0.0,0.0,0.0,0.0,0.0,0.0,0.0,0.0,0.0,0.0,0.0,0.0,0.0,0.0,0.0,0.0,0.0,0.0,0.0,0.0,0.0,0.0,0.0,0.0,0.0,0.0,0.0,0.0,0.0,0.0,0.0,2.9574,3.0869,3.1113,3.1907,0.0,0.0,3.1858,3.397,3.4377,3.2811,2.7763,0.0,0.0,0.0,0.0,0.0,0.0,0.0,0.0,0.0,0.0,0.0,0.0,0.0,0.0,0.0,0.0,0.0,0.0,0.0,0.0,0.0,0.0,0.0,0.0,0.0,0.0,0.0,0.0,0.0,0.0,0.0,0.0,0.0,0.0,0.0,0.0,0.0,0.0,0.0,0.0,0.0,0.0,0.0,0.0,0.0,0.0,0.0,0.0,0.0,0.0,0.0,0.0,0.0,2.6992,2.8147,3.3545,3.6358,3.6358,3.6358,3.6358,3.6358,3.5303,3.3119,0.0,0.0,0.0,0.0,0.0,0.0,0.0,0.0,0.0,0.0,0.0,0.0,0.0,0.0,0.0,0.0,0.0,0.0,0.0,0.0,0.0,0.0,0.0,0.0,0.0,0.0,0.0,0.0,2.0327,2.0721,2.0224,0.0,0.0,0.0,0.0,0.0,0.0,0.0,0.0,0.0,0.0,3.1161,3.2154,3.2364,0.0,0.0,3.1924,3.1433,3.1865,3.1716,3.0603,2.7793,2.6212,0.0,0.0,0.0,0.0,0.0,0.0,0.0,0.0,0.0,0.0,0.0,0.0,0.0,0.0,0.0,0.0,0.0,0.0,0.0,0.0,0.0,0.0,0.0,0.0,0.0,0.0,0.0,0.0,0.0,0.0,0.0,0.0,0.0,0.0,0.0,0.0,0.0,0.0,0.0,0.0,0.0,0.0,0.0,0.0,0.0,0.0,0.0,0.0,0.0,0.0,0.0,0.0,2.7092,2.8373,3.3646,3.6358,3.6358,3.6358,3.6358,3.6332,3.5604,3.3922,0.0,0.0,0.0,0.0,0.0,0.0,0.0,0.0,0.0,0.0,0.0,0.0,0.0,0.0,0.0,0.0,0.0,0.0,0.0,0.0,0.0,0.0,0.0,0.0,0.0,0.0,0.0,0.0,2.1502,2.1565,2.0514,0.0,0.0,0.0,0.0,0.0,0.0,0.0,0.0,0.0,0.0,3.195,3.2735,3.2647,3.2253,3.1639,3.1178,3.0743,3.0537,3.0398,2.9894,2.8498,0.0,0.0,0.0,0.0,0.0,0.0,0.0,0.0,0.0,0.0,0.0,0.0,0.0,0.0,0.0,0.0,0.0,0.0,0.0,0.0,0.0,0.0,0.0,0.0,0.0,0.0,0.0,0.0,0.0,0.0,1.9101,0.0,0.0,0.0,0.0,0.0,0.0,0.0,0.0,0.0,0.0,0.0,0.0,0.0,0.0,0.0,0.0,0.0,0.0,0.0,0.0,0.0,0.0,2.7268,2.8925,3.3822,3.6358,3.6358,3.6358,3.6383,3.6383,3.6332,3.5027,3.224,0.0,0.0,0.0,0.0,0.0,0.0,0.0,0.0,0.0,0.0,0.0,0.0,0.0,0.0,0.0,0.0,0.0,0.0,0.0,0.0,0.0,0.0,0.0,0.0,0.0,0.0,1.8629,1.9832,2.0758,0.0,0.0,0.0,0.0,0.0,0.0,0.0,0.0,0.0,0.0,2.9561,3.1435,3.2304,3.1482,3.1157,3.1616,3.0468,2.9915,3.0859,3.1802,3.192,0.0,0.0,0.0,0.0,0.0,0.0,0.0,0.0,0.0,0.0,0.0,0.0,0.0,0.0,0.0,0.0,0.0,0.0,0.0,0.0,0.0,0.0,0.0,0.0,0.0,0.0,0.0,2.3281,2.2352,0.0,0.0,0.0,0.0,0.0,0.0,0.0,0.0,0.0,0.0,0.0,2.9651,3.0311,0.0,0.0,0.0,0.0,0.0,0.0,0.0,0.0,0.0,0.0,0.0,0.0,2.7645,2.9076,3.3847,3.6358,3.6383,3.6709,3.691,3.691,3.7262,3.5981,3.2893,0.0,0.0,0.0,0.0,0.0,0.0,0.0,0.0,0.0,0.0,0.0,0.0,0.0,0.0,0.0,0.0,0.0,0.0,0.0,0.0,0.0,0.0,0.0,0.0,0.0,2.0906,0.0,0.0,0.0,0.0,0.0,0.0,0.0,0.0,0.0,0.0,0.0,2.7258,2.785,2.9397,3.0652,3.0918,3.0628,3.0458,0.0,0.0,0.0,0.0,0.0,0.0,0.0,0.0,0.0,0.0,0.0,0.0,0.0,0.0,2.7713,2.4839,2.3984,2.3959,2.453,0.0,0.0,0.0,0.0,0.0,0.0,0.0,0.0,0.0,0.0,0.0,0.0,0.0,0.0,0.0,0.0,2.6445,0.0,0.0,0.0,0.0,0.0,0.0,0.0,0.0,3.2191,3.3293,3.3099,3.3587,3.2826,0.0,3.0164,2.8155,0.0,0.0,0.0,0.0,0.0,0.0,0.0,0.0,2.8097,2.988,3.4324,3.6634,3.6659,3.7186,3.7462,3.7487,3.7814,3.6985,3.4851,3.3169,3.1185,0.0,0.0,0.0,0.0,0.0,0.0,0.0,0.0,0.0,0.0,0.0,0.0,0.0,0.0,0.0,0.0,0.0,0.0,0.0,0.0,0.0,0.0,0.0,2.2342,0.0,0.0,0.0,0.0,0.0,0.0,0.0,0.0,0.0,2.3576,2.645,2.8633,2.8914,2.9952,3.0561,3.0273,0.0,0.0,0.0,0.0,0.0,0.0,0.0,2.7915,2.8866,2.9042,2.9471,3.1229,3.1838,3.187,3.1083,0.0,0.0,2.7629,2.6799,2.6691,2.7338,2.7796,2.8082,2.8012,2.8528,2.8844,0.0,0.0,0.0,0.0,0.0,0.0,0.0,0.0,3.17,3.0655,0.0,3.0219,0.0,0.0,0.0,0.0,0.0,3.0422,0.0,0.0,3.8365,3.9789,3.8531,3.7645,3.7304,3.7111,3.5386,3.3595,3.1733,2.8533,0.0,0.0,0.0,0.0,0.0,0.0,2.875,3.1486,3.5253,3.7211,3.7211,3.7764,3.804,3.8065,3.809,3.8065,3.7939,3.5504,3.3796,3.3068,2.8524,0.0,0.0,0.0,0.0,0.0,0.0,0.0,0.0,0.0,0.0,0.0,0.0,0.0,0.0,0.0,0.0,0.0,0.0,0.0,0.0,2.4588,0.0,0.0,0.0,0.0,0.0,0.0,0.0,0.0,0.0,0.0,2.5529,2.7736,2.9598,3.0013,0.0,0.0,0.0,0.0,2.9684,2.8876,2.8338,2.809,2.8173,2.9593,3.1135,3.2219,0.0,0.0,3.5114,3.3807,3.2748,3.223,3.2501,3.2475,3.1483,2.9899,2.9115,2.9817,2.9505,2.9189,2.9829,3.0734,3.1083,3.2815,0.0,0.0,0.0,0.0,3.155,3.2941,3.5379,3.5549,3.4806,3.3499,3.4283,0.0,0.0,0.0,0.0,0.0,0.0,3.4002,3.5515,3.7147,3.7979,3.8078,3.7748,3.7325,3.6662,3.6519,3.6131,3.5643,3.4992,3.0909,2.3653,0.0,0.0,0.0,0.0,3.1185,3.3219,3.6207,3.7764,3.7764,3.8341,3.8818,3.9195,3.9195,3.922,3.9195,3.8442,3.686,3.4374,3.2893,0.0,0.0,0.0,0.0,0.0,0.0,0.0,0.0,0.0,0.0,0.0,0.0,0.0,0.0,0.0,0.0,0.0,0.0,0.0,2.431,2.6593,2.6917,0.0,0.0,0.0,0.0,0.0,0.0,0.0,0.0,0.0,2.8069,2.8935,2.9298,0.0,0.0,2.8894,2.8621,2.939,3.0139,3.0532,0.0,0.0,0.0,3.1542,3.1608,3.2959,3.4653,3.5435,3.4047,3.4474,3.469,3.4096,3.4143,3.4226,3.4159,3.3275,3.2658,3.2868,3.2721,3.2637,3.2868,3.3156,3.3226,3.7195,3.5511,3.3607,3.3579,3.4781,3.4298,3.5853,3.8822,3.8667,3.8102,3.7302,3.8202,3.6101,3.1882,3.0983,0.0,0.0,0.0,3.5339,3.7206,3.7399,3.7772,3.8109,3.7929,3.7559,3.701,3.7136,3.7312,3.7513,3.7186,3.4098,2.8448,0.0,0.0,2.7846,3.0834,3.3219,3.4901,3.7161,3.8341,3.8366,3.912,3.9697,3.9998,4.0023,3.9923,3.9697,3.9697,3.8768,3.6784,3.5629,3.3897,0.0,0.0,0.0,0.0,0.0,0.0,0.0,0.0,0.0,0.0,0.0,2.6214,2.4883,0.0,0.0,0.0,2.7469,2.6967,2.7544,2.8874,0.0,0.0,0.0,0.0,0.0,0.0,0.0,2.7461,2.8566,2.9497,3.0036,3.024,3.0045,2.9642,2.9704,2.9766,2.958,0.0,3.1485,3.1857,3.2064,3.2457,3.3244,3.3161,3.3368,3.4548,3.5549,3.5897,3.506,3.557,3.6067,3.5727,3.5562,3.5645,3.5914,3.5521,3.4941,3.4445,3.4196,3.4072,3.4072,3.4072,3.4072,4.0688,4.0351,3.5967,3.5577,3.7621,3.7051,3.8552,4.1394,4.0774,4.0321,4.0112,4.1295,3.9031,3.4307,3.2253,0.0,3.4955,3.5602,3.7088,3.9195,3.8846,3.8642,3.8574,3.8155,3.799,3.799,3.7538,3.7588,3.799,3.6634,3.5579,3.4977,3.4474,3.3621,3.2541,3.3571,3.4951,3.6533,3.814,3.8944,3.8944,3.9923,4.045,4.0425,4.045,4.0199,3.9722,3.9697,3.9697,3.9622,3.7236,3.5604,3.4926,0.0,0.0,0.0,0.0,0.0,0.0,0.0,0.0,0.0,0.0,0.0,0.0,0.0,0.0,0.0,3.2014,0.0,3.3244,3.1437,0.0,0.0,0.0,2.7432,2.9418,2.9693,2.9897,3.012,0.0,0.0,3.1485,0.0,3.1712,3.2188,3.2499,3.252,3.2106,3.2789,3.3348,3.2975,3.3348,3.3658,3.3906,3.4755,3.5728,3.6535,3.6867,3.6763,3.668,3.668,3.6763,3.6804,3.6846,3.6867,3.6887,3.6846,3.6473,3.5252,3.4672,3.4341,3.4424,3.4424,3.4465,3.9881,3.8505,3.8075,3.8363,3.9084,3.9339,3.933,3.9299,3.9475,3.9486,3.9412,3.9688,3.9349,3.8542,3.8011,3.8384,3.9357,3.9492,3.9478,3.9333,3.9207,3.8807,3.8083,3.8038,3.799,3.8015,3.8316,3.8542,3.8668,3.8693,3.8216,3.7262,3.7086,3.6056,3.4248,3.5655,3.7036,3.8266,3.9069,3.9496,3.9496,3.9772,3.9898,3.9898,3.9898,3.9823,3.9697,3.9697,3.9697,3.9697,3.9069,3.8241,3.7236,3.2918,0.0,0.0,0.0,0.0,0.0,0.0,0.0,0.0,0.0,2.8725,2.6189,0.0,2.9176,0.0,3.578,3.7111,3.5152,3.5261,0.0,0.0,3.2055,3.1109,3.3178,3.2249,3.1391,3.105,3.1836,3.2416,3.2416,3.2706,3.3203,3.3969,3.3016,3.2168,3.2085,3.343,3.4403,3.4383,3.5211,3.5976,3.5976,3.6535,3.7053,3.7301,3.7322,3.7218,3.6867,3.6804,3.6908,3.7239,3.7322,3.7446,3.7757,3.7591,3.726,3.6887,3.6473,3.6142,3.6142,3.6121,3.6142,3.9104,3.8214,3.9004,3.9111,3.8873,3.8735,3.8655,3.8686,3.8686,3.9093,3.9698,3.9451,3.9362,3.9561,3.928,3.9207,3.9425,3.952,3.9329,3.8846,3.9005,3.8863,3.8391,3.8642,3.8768,3.8768,3.9094,3.9245,3.9245,3.9546,3.9371,3.8768,3.8768,3.814,3.6985,3.686,3.701,3.7387,3.8417,3.9295,4.0023,4.0074,3.9722,3.8994,3.9421,3.922,3.8241,3.8442,3.8467,3.8216,3.799,3.7688,3.7236,3.4223,3.2491,0.0,0.0,0.0,0.0,0.0,0.0,0.0,0.0,0.0,0.0,0.0,3.1964,3.3345,3.7236,3.8441,3.535,3.6088,3.648,3.5737,3.3843,3.3458,3.5311,3.4183,3.3244,3.3182,3.3617,3.3927,3.3948,3.432,3.4776,3.5293,3.4672,3.4093,3.3948,3.4755,3.5418,3.5666,3.6473,3.7198,3.7384,3.7632,3.7798,3.7798,3.7798,3.7695,3.7467,3.7425,3.7508,3.7736,3.7798,3.7881,3.8109,3.8005,3.7819,3.7777,3.7591,3.7281,3.6887,3.6804,3.6804,3.8574,3.8342,3.8929,3.8651,3.7692,3.696,3.745,3.8616,3.8265,3.8808,3.9918,3.9372,3.9065,3.8825,3.8386,3.8066,3.7842,3.8141,3.8216,3.8266,3.8743,3.8969,3.8994,3.9471,3.9697,3.9697,3.9697,3.9697,3.9697,3.9697,3.9672,3.9597,3.9597,3.9521,3.9295,3.7513,3.6433,3.6207,3.7312,3.8642,4.0149,4.0074,3.9295,3.7939,3.8894,3.8567,3.6709,3.7036,3.7061,3.6584,3.6107,3.6182,3.681,3.5655,3.4625,0.0,3.2566,0.0,0.0,0.0,0.0,0.0,0.0,0.0,0.0,3.5619,3.5276,3.4148,3.7493,3.8403,3.5437,3.6105,3.6672,3.6351,3.5268,3.5135,3.6513,3.5628,3.5107,3.5542,3.5604,3.5604,3.5583,3.5956,3.6204,3.6183,3.639,3.639,3.6308,3.6246,3.6411,3.6846,3.7281,3.7695,3.8026,3.815,3.815,3.8171,3.815,3.8191,3.815,3.815,3.8171,3.8171,3.815,3.8171,3.8191,3.8191,3.8171,3.815,3.8129,3.7881,3.726,3.7053,3.6991,3.8303,3.6946,3.7816,3.7568,3.6691,3.6472,3.6848,3.7543,3.7444,3.7494,3.7792,3.7916,3.8141,3.8542,3.8693,3.8944,3.9268,3.9371,3.9371,3.9371,3.9496,3.9546,3.9546,3.9647,3.9697,3.9697,3.9697,3.9697,3.9697,3.9697,3.9471,3.9044,3.9019,3.8567,3.7713,0.0,0.0,0.0,3.809,3.7713,3.8417,3.7613,3.701,3.6734,3.7764,0.0,3.7739,3.7789,3.7789,3.7688,3.7613,0.0,0.0,0.0,0.0,0.0,0.0,0.0,0.0,0.0,0.0,0.0,3.6207,3.5931,3.5537,3.6284,3.6152,3.5062,3.7702,3.9172,3.8387,3.9391,3.9718,3.8735,3.7473,3.7046,3.7558,3.6558,3.6039,3.6473,3.6535,3.6535,3.6515,3.6618,3.666,3.668,3.6742,3.6929,3.7198,3.7198,3.726,3.7384,3.7736,3.8046,3.8171,3.8191,3.8191,3.8191,3.8191,3.8212,3.8233,3.8233,3.8212,3.8345,3.8191,3.8212,3.8212,3.8191,3.8253,3.8191,3.8212,3.8129,3.7964,3.7922,3.7922,3.7688,0.0,3.7678,3.7673,0.0,3.718,3.7491,3.8005,3.7531,3.7682,3.8234,3.854,3.8689,3.8835,3.9168,3.9318,3.9465,3.9697,3.9697,3.9697,3.9697,3.9697,3.9697,3.9697,3.9848,4.0099,4.0099,4.0249,4.0501,4.0501,4.0375,4.0074,4.0099,3.9798,3.927,3.9521,3.9823,4.0099,3.8994,3.8818,3.9597,3.912,3.8442,3.7713,0.0,0.0,0.0,0.0,0.0,0.0,0.0,0.0,0.0,0.0,0.0,3.9948,3.8768,3.8241,3.8743,3.8793,3.9396,4.0727,4.0852,3.9835,3.7559,3.8403,3.854,3.7565,3.8849,3.9476,3.9017,3.959,3.9349,3.8152,3.7434,3.7167,3.7254,3.6813,3.6556,3.6742,3.6804,3.6804,3.6804,3.7011,3.7136,3.7156,3.7343,3.757,3.7757,3.7632,3.755,3.7798,3.8005,3.8171,3.8191,3.8191,3.8295,3.844,3.8523,3.8626,3.8812,3.8854,3.9104,3.9643,3.9374,3.8989,3.9756,3.9374,3.8854,3.8854,3.8854,3.8854,3.8812,3.8502,3.8191,3.7324,3.7372,3.7805,3.7974,3.808,3.808,3.8291,3.8712,0.0,0.0,0.0,3.949,3.949,3.9362,3.9465,3.9594,3.9362,3.9594,3.9747,3.9848,3.9848,3.9898,3.9998,3.9973,4.0224,4.0651,4.0676,4.0902,4.1329,4.1329,4.1404,4.148,4.148,4.153,4.163,4.163,4.1178,4.03,3.9798,4.0049,4.1003,4.0953,4.0249,3.8894,4.0375,4.0551,3.9245,3.9948,4.0174,3.9722,3.9346,3.9496,4.0224,4.0375,4.0953,4.2108,4.2233,4.2559,4.3363,4.3413,4.3765,4.4568,4.4386,4.2897,3.9825,4.0516,4.0599,3.9848,3.9628,3.9299,3.8477,3.8625,3.8143,3.6933,3.6804,3.6804,3.6908,3.6929,3.697,3.7011,3.7094,3.7053,3.7094,3.7384,3.7612,3.7674,3.7984,3.8357,3.8336,3.7984,3.7819,3.8212,3.8336,3.8336,3.8419,3.8862,3.8946,3.9416,3.9614,3.9761,3.9804,3.9929,4.0319,4.0779,4.0183,4.0025,4.0843,4.0277,3.9537,3.9537,3.9537,3.9537,3.9475,3.8957,3.8481,3.7878,3.7878,3.795,3.808,3.8291,3.8315,3.8421,3.8502,3.8871,3.8976,3.8841,3.8945,3.905,3.9258,3.9362,3.949,3.9697,3.9697,3.9948,0.0,4.04,4.0651,4.1103,4.1103,4.1153,4.1204,4.1229,4.1254,4.1329,4.1354,4.158,4.1982,4.2032,4.2258,4.271,4.2735,4.2685,4.2459,4.0174,3.9295,3.9898,3.9471,3.912,3.8944,4.0049,4.0551,4.03,4.0023,3.9772,3.9697,4.0074,4.0953,4.2409,4.2936,4.394,4.5447,4.5598,4.5497,4.5146,4.5146,4.4995,4.4552,4.3541,4.2162,4.0681,4.0676,4.0304,3.9139,3.8891,3.8434,3.7296,3.8059,3.8207,3.7082,3.6825,3.697,3.7473,3.7556,3.757,3.7902,3.8005,3.7984,3.8005,3.8067,3.8129,3.8171,3.8883,3.901,3.9312,3.8626,3.8336,3.8647,3.875,3.8916,3.9417,4.038,4.1012,4.1255,4.2193,4.2504,4.1608,4.1516,4.1358,4.0225,4.015,4.0013,4.0267,3.9675,3.9875,3.9896,3.9917,3.9896,3.9896,3.9729,3.9351,3.8104,3.7974,3.8185,3.8291,3.8421,3.8736,3.8945,3.897,3.9686,3.9531,3.8865,3.9179,3.9387,3.949,3.979,4.0045,4.0149,4.045,4.0727,4.0953,4.0953,4.1103,4.1329,4.1329,4.148,4.1756,4.1781,4.1932,4.2208,4.2233,4.2359,4.2585,4.261,4.2735,4.2961,4.2986,4.2986,4.2961,4.1731,4.1204,4.1455,4.1229,4.1103,4.1103,4.1882,4.2308,4.2308,4.2359,4.2509,4.2811,4.3087,4.3689,4.4719,4.502,4.5522,4.625,4.6326,4.62,4.5949,4.5924,4.544,4.4544,4.4544,4.4038,4.2772,4.0783,3.9258,3.8253,3.8039,3.7887,3.7639,3.8787,3.928,3.8658,3.928,3.9496,3.9109,3.9256,3.9073,3.8657,3.8771,3.8916,3.8916,3.8916,3.9302,3.9976,4.0818,4.1549,4.1746,4.1573,4.1066,4.0614,4.106,4.1259,4.0958,4.1924,4.2527,4.2232,4.3376,4.4001,4.3534,4.3624,4.3602,4.3759,4.3217,4.2945,4.3466,4.3081,4.2694,4.2557,4.2557,4.2557,4.2557,4.2029,4.105,3.8291,3.808,3.8396,3.8502,3.8631,3.9303,3.9561,3.9611,4.037,4.0134,3.9445,3.976,3.9944,4.0099,4.042,4.0595,4.0752,4.1128,4.1404,4.153,4.153,4.158,4.1706,4.1706,4.1932,4.2308,4.2333,4.2559,4.2936,4.2986,4.2986,4.2986,4.2986,4.2986,4.2986,4.2986,4.2986,4.2986,4.2986,4.2986,4.2986,4.3087,4.3162,4.3187,4.3564,4.379,4.3815,4.4217,4.4644,4.507,4.5347,4.5673,4.61,4.625,4.6326,4.6326,4.6326,4.6376,4.6476,4.6502,4.6041,4.5231,4.5773,4.5773,4.4539,4.1731,3.9704,3.9131,3.8894,3.8717,3.8988,4.0105,4.078,4.0629,4.1798,4.1927,4.0825,4.0869,4.071,3.9698,3.972,4.0046,4.0319,4.0456,4.1001,4.2281,4.3394,4.4078,4.417,4.4348,4.4084,4.353,4.3617,4.3617,4.2705,4.3731,4.429,4.3556,4.4815,4.5622,4.5745,4.5615,4.5773,4.6241,4.575,4.5298,4.6445,4.5885,4.4914,4.4323,4.446,4.4914,4.4208,4.3127,4.1979,3.8421,3.8421,3.8656,3.8945,3.9357,4.0015,4.0215,4.0184,4.0921,4.1039,4.0724,4.0749,4.0939,4.1096,4.0906,4.1039,4.1254,4.1329,4.163,4.2057,4.2082,4.2333,4.276,4.2811,4.2861,4.2886,4.2886,4.2886,4.2986,4.2986,4.2986,4.2986,4.2986,4.2986,4.2986,4.2986,4.2986,4.2986,4.2986,4.2986,4.3011,4.3463,4.374,4.374,4.3765,4.379,4.379,4.384,4.3915,4.4016,4.497,4.5497,4.5623,4.605,4.6326,4.6326,4.6326,4.6527,4.6979,4.7054,4.7132,4.7433,4.6532,4.6003,4.5749,4.4396,4.3437,4.3318,4.2431,4.1405,4.0782,4.2028,4.2555,4.1994,4.3117,4.3208,4.1994,4.1546,4.1568,4.1433,4.1564,4.2059,4.3083,4.3348,4.3727,4.4272,4.4695,4.5076,4.5402,4.6295,4.6981,4.6428,4.5685,4.4902,4.4887,4.617,4.6656,4.6884,4.8011,4.8167,4.7533,4.7136,4.7003,4.6603,4.5773,4.5797,4.5797,4.5232,4.4983,4.4846,4.4983,4.4983,4.3631,4.2678,4.1482,3.9312,3.868,3.929,3.9823,4.0252,4.0796,4.0896,4.0839,4.158,4.1831,4.1747,4.2048,4.1848,4.1379,4.1547,4.1722,4.1831,4.2158,4.2409,4.2635,4.2635,4.276,4.2961,4.2986,4.2986,4.2986,4.2986,4.2986,4.2986,4.2986,4.2986,4.2986,4.2986,4.2986,4.2986,4.2986,4.2986,4.2986,4.2986,4.2986,4.3011,4.3187,4.3313,4.3313,4.3313,4.3489,4.3765,4.379,4.4091,4.4744,4.5246,4.5648,4.5974,4.6502,4.6803,4.6828,4.7079,4.7355,4.7581,4.7581,4.7682,4.7883,4.7383,4.7131,4.7131,4.6602,4.6256,4.6189,4.4531,4.2951,4.2895,4.3961,4.4572,4.4477,4.5429,4.571,4.4393,4.441,4.4331,4.3555,4.3647,4.3962,4.4635,4.5435,4.5927,4.6404,4.6825,4.7448,4.7797,4.8371,4.8657,4.8608,4.802,4.734,4.6846,4.7689,4.824,4.7953,4.8632,4.9177,4.8918,4.8632,4.8502,4.7821,4.7557,4.7557,4.7953,4.7821,4.7557,4.6894,4.7027,4.7425,4.5932,4.5096,4.4437,4.0645,3.994,4.0234,4.0632,4.1006,4.1397,4.1555,4.163,4.2133,4.2359,4.2434,4.2811,4.2534,4.1907,4.2208,4.2384,4.2434,4.2785,4.2986,4.2986,4.2986,4.2986,4.2986,4.2986,4.2986,4.2986,4.2986,4.2986,4.2986,4.2986,4.2986,4.2986,4.2986,4.2986,4.2986,4.2986,4.3062,4.3187,4.3212,4.3263,4.3413,4.3438,4.3363,4.3237,4.3363,4.3614,4.4016,4.4166,4.4618,4.5422,4.5623,4.5974,4.6502,4.6928,4.7205,4.7355,4.7682,4.7983,4.8134,4.8134,4.8209,4.8335,4.8385,4.836,4.836,4.8385,4.836,4.8234,4.6529,4.5444,4.4757,4.5926,4.6616,4.648,4.7576,4.783,4.6448,4.6631,4.6323,4.5552,4.5629,4.6066,4.6445,4.7377,4.7904,4.8036,4.8893,4.959,4.959,4.9461,4.959,4.959,4.959,4.9177,4.824,4.8763,4.8918,4.8632,4.9047,4.959,4.959,4.959,4.959,4.8787,4.9332,4.9461,4.9047,4.9332,4.9486,4.9461,4.9097,4.842,4.7136,4.7003,4.6405,4.2061,4.2318,4.16,4.1329,4.1297,4.1907,4.2108,4.2158,4.2685,4.2936,4.2911,4.2961,4.2936,4.2836,4.2861,4.2936,4.2936,4.2961,4.2986,4.2986,4.2986,4.2986,4.2986,4.2986,4.2986,4.2986,4.2986,4.2986,4.2986,4.2986,4.2986,4.3011,4.3011,4.3011,4.3062,4.3087,4.3263,4.3714,4.3765,4.3991,4.4443,4.4518,4.4267,4.3915,4.4242,4.4493,4.4644,4.5121,4.5447,4.5497,4.5999,4.6502,4.7029,4.7154,4.7405,4.7832,4.7933,4.8184,4.8661,4.8736,4.8912,4.9364,4.9364,4.9464,4.9364,4.9364,4.9364,4.9464,4.9107,4.8263,4.694,4.7666,4.812,4.7579,4.8639,4.8614,4.7544,4.7496,4.7353,4.7221,4.7245,4.7689,4.9047,4.9461,4.9332,4.9332,4.9461,4.959,4.959,4.959,4.959,4.959,4.959,4.959,4.9461,4.9461,4.9461,4.9332,4.9177,4.959,4.959,4.959,4.959,4.959,4.959,4.959,4.959,4.9615,4.9665,4.9172,4.7907,4.7218,4.8366,4.6452,4.6165,4.405,4.3362,4.307,4.2659,4.2409,4.2585,4.2685,4.271,4.2886,4.2986,4.2986,4.2986,4.2986,4.2986,4.2986,4.2986,4.2986,4.2986,4.2986,4.2986,4.2986,4.2986,4.2986,4.2986,4.2986,4.2986,4.2986,4.2986,4.2986,4.2986,4.3162,4.3463,4.3514,4.3664,4.3966,4.4016,4.4141,4.4292,4.4342,4.4443,4.4669,4.4995,4.507,4.4869,4.4694,4.4794,4.5171,4.5372,4.5648,4.5999,4.6552,4.6928,4.7179,4.7807,4.8435,4.8912,4.8987,4.9088,4.9264,4.9314,4.9364,4.9565,4.959,4.959,4.959,4.959,4.959,4.959,4.959,4.9207,4.8824,4.9032,4.9236,4.8998,4.9177,4.9461,4.8918,4.8787,4.8787,4.8787,4.8787,4.9047,4.9332,4.959,4.959,4.959,4.959,4.959,4.959,4.959,4.959,4.959,4.959,4.959,4.959,4.959,4.959,4.959,4.959,4.959,4.959,4.959,4.959,4.9615,4.9615,4.9741,4.9816,5.0067,5.0067,4.9881,4.8452,4.8597,4.985,4.8512,4.8633,4.6183,4.5177,4.4784,4.4196,4.3602,4.3517,4.3517,4.3517,4.3184,4.3184,4.3406,4.3184,4.2986,4.2986,4.2986,4.2986,4.2986,4.2986,4.2986,4.2986,4.2986,4.2986,4.2986,4.2986,4.2986,4.3011,4.3162,4.3237,4.3263,4.3413,4.3714,4.4041,4.4066,4.4242,4.4568,4.4618,4.4694,4.4844,4.4895,4.497,4.5171,4.5547,4.5748,4.5698,4.5372,4.5347,4.5748,4.5924,4.6175,4.6577,4.7104,4.7456,4.7732,4.8535,4.9213,4.954,4.959,4.959,4.959,4.959,4.959,4.959,4.959,4.959,4.959,4.959,4.959,4.959,4.959,4.959,4.959,4.959,4.959,4.959,4.959,4.959,4.959,4.959,4.959,4.9461,4.9461,4.959,4.959,4.959,4.959,4.959,4.959,4.959,4.959,4.959,4.959,4.959,4.959,4.959,4.959,4.959,4.9615,4.9615,4.959,4.959,4.9615,4.9615,4.964,4.964,4.9766,4.9916,5.0142,5.0444,5.0619,5.0695,5.0506,5.0256,5.083,5.1064,5.0871,4.7965,4.7661,4.6736,4.5661,4.4778,4.467,4.467,4.4561,4.3628,4.3738,4.4261,4.3517,4.2986,4.2986,4.2986,4.2986,4.3062,4.3087,4.3062,4.3062,4.3112,4.3112,4.3137,4.3162,4.3162,4.3187,4.3564,4.3815,4.384,4.4217,4.4518,4.4618,4.4618,4.4694,4.4694,4.4819,4.4995,4.5372,4.5497,4.5723,4.6225,4.6225,4.625,4.6301,4.625,4.6276,4.6351,4.6803,4.7029,4.7179,4.7631,4.8184,4.8686,4.9238,4.959,4.959,4.959,4.959,4.959,4.959,4.959,4.959,4.959,4.959,4.959,4.959,4.959,4.959,4.959,4.959,4.959,4.959,4.959,4.959,4.959,4.959,4.959,4.959,4.959,4.959,4.959,4.959,4.959,4.959,4.959,4.959,4.959,4.959,4.959,4.959,4.959,4.959,4.959,4.959,4.959,4.959,4.9615,4.9615,4.9615,4.9615,4.9665,4.969,4.9841,4.9891,5.0293,5.0469,5.0745,5.1021,5.1197,5.1297,5.1398,5.1523,5.1674,5.18,5.185,4.8753,4.8021,4.7587,4.6867,4.5926,4.582,4.582,4.5714,4.467,4.4344,4.4453,4.3517,4.2986,4.2986,4.2986,4.3187,4.3539,4.3539,4.3539,4.3614,4.394,4.4066,4.4091,4.4091,4.4091,4.4141,4.4267,4.4367,4.4392,4.4568,4.4794,4.5146,4.5221,4.5422,4.5773,4.5799,4.5899,4.6024,4.605,4.615,4.6301,4.6326,4.6476,4.6828,4.6878,4.7029,4.738,4.723,4.7305,4.7657,4.8209,4.8761,4.9238,4.949,4.959,4.959,4.959,4.959,4.959,4.959,4.959,4.959,4.959,4.959,4.959,4.959,4.959,4.959,4.959,4.959,4.959,4.959,4.959,4.959,4.959,4.959,4.959,4.959,4.959,4.959,4.959,4.959,4.959,4.959,4.959,4.959,4.959,4.959,4.959,4.959,4.959,4.959,4.959,4.9715,4.9866,4.9967,5.0017,4.9992,4.9916,4.9916,4.9916,5.0017,5.0117,5.0368,5.0745,5.1071,5.1348,5.1574,5.1774,5.1975,5.2101,5.2251,5.2377,5.2402,5.2377,4.9248,4.8653,4.8909,4.8359,4.7328,4.7521,4.7631,4.7526,4.6491,4.5952,4.5734,4.4771,4.4015,4.3702,4.3589,4.3992,4.4662,4.4547,4.4749,4.517,4.4659,4.4618,4.4618,4.4618,4.4618,4.4669,4.4844,4.4945,4.497,4.5171,4.5547,4.6024,4.61,4.6376,4.6853,4.6903,4.6903,4.6903,4.6928,4.6903,4.6903,4.6903,4.7079,4.7405,4.7631,4.8008,4.846,4.841,4.8309,4.836,4.8761,4.9238,4.9565,4.959,4.959,4.959,4.959,4.959,4.959,4.959,4.959,4.959,4.959,4.959,4.959,4.959,4.959,4.959,4.959,4.959,4.959,4.959,4.959,4.959,4.959,4.959,4.959,4.959,4.959,4.959,4.959,4.959,4.959,4.959,4.959,4.959,4.959,4.959,4.959,4.959,4.969,4.9816,4.9967,5.0092,5.0243,5.0343,5.0419,5.0368,5.0318,5.0368,5.0419,5.0619,5.077,5.1122,5.1498,5.1774,5.2051,5.2226,5.2427,5.2628,5.2678,5.2678,5.2678,5.2754,5.2729,4.9756,4.9843,5.0481,5.0083,4.9267,4.9643,4.9812,4.9792,4.881,4.8191,4.7893,4.6853,4.5814,4.5005,4.4992,4.5551,4.6238,4.6013,4.655,4.7056,4.6111,4.5146,4.5196,4.5196,4.5221,4.5171,4.5522,4.5698,4.5824,4.62,4.6652,4.7054,4.7104,4.7355,4.7657,4.7857,4.7782,4.7732,4.7857,4.7908,4.7908,4.8008,4.8058,4.8159,4.8611,4.9113,4.964,4.9992,4.9866,4.9163,4.9515,4.9791,4.9741,4.969,4.9816,4.9841,4.9715,4.9791,4.9741,4.9891,4.9841,4.9866,4.9866,4.969,4.9841,4.9916,4.9916,4.9891,4.9866,4.9816,4.9816,4.9841,4.9816,4.9715,4.9791,4.9766,4.9715,4.9791,4.9891,4.9841,4.9715,4.9715,4.9866,4.9841,4.9841,4.9841,4.9866,4.9916,4.9916,5.0042,5.0042,5.0193,5.0444,5.0569,5.072,5.077,5.087,5.1096,5.0971,5.0946,5.0971,5.1147,5.1498,5.185,5.2076,5.2402,5.2603,5.2703,5.2754,5.2804,5.2854,5.2929,5.2929,5.2929,5.2929,5.0685,5.112,5.1294,5.115,5.0947,5.112,5.1177,5.0972,5.0009,4.9509,4.9241,4.8246,4.7698,4.7371,4.734,4.7463,4.7748,4.76,4.8132,4.8979,4.7815,4.7054,4.7054,4.7004,4.6979,4.6979,4.7004,4.728,4.728,4.733,4.7531,4.7682,4.7707,4.7782,4.7908,4.7983,4.7908,4.7983,4.836,4.856,4.8661,4.8987,4.9364,4.9766,4.9891,5.0268,5.077,5.0971,5.0971,5.0695,5.072,5.082,5.077,5.077,5.072,5.0745,5.077,5.082,5.0795,5.0795,5.0795,5.0845,5.072,5.082,5.0845,5.082,5.0845,5.0845,5.0845,5.0795,5.0795,5.0795,5.0795,5.0795,5.0494,5.0393,5.067,5.0845,5.0845,5.0845,5.0795,5.0745,5.0745,5.0745,5.0745,5.0745,5.072,5.072,5.0619,5.0645,5.072,5.087,5.1071,5.1122,5.1172,5.1222,5.1373,5.1749,5.1724,5.1574,5.1574,5.1624,5.2076,5.2553,5.2503,5.2729,5.2804,5.2854,5.2929,5.2929,5.2929,5.2929,5.2929,5.2929,5.2929,5.1294,5.1643,5.1904,5.202,5.2049,5.231,5.2426,5.2294,5.1747,5.1088,5.0691,5.0376,4.9803,4.9388,4.966,5.0096,5.0378,4.9854,5.0479,5.1374,5.0123,4.8884,4.8108,4.7908,4.7908,4.7908,4.7933,4.7883,4.7883,4.7908,4.8033,4.8234,4.8259,4.8385,4.8686,4.8611,4.8761,4.8987,4.9314,4.9565,4.9841,5.0117,5.0393,5.0795,5.0971,5.1398,5.1875,5.1975,5.18,5.1398,5.1272,5.1272,5.1272,5.1272,5.1272,5.1272,5.1272,5.1272,5.1272,5.1272,5.1272,5.1272,5.1272,5.1272,5.1247,5.1272,5.1272,5.1247,5.1272,5.1272,5.1272,5.1272,5.1398,5.1523,5.1322,5.1172,5.1322,5.1222,5.1272,5.1272,5.1272,5.1297,5.1297,5.1322,5.1297,5.1247,5.1172,5.1197,5.1197,5.1322,5.1423,5.1548,5.1674,5.1749,5.19,5.2,5.195,5.2277,5.2302,5.2176,5.2151,5.2126,5.2427,5.2804,5.2879,5.2929,5.2929,5.2929,5.2929,5.2929,5.2929,5.2929,5.2929,5.303,5.303,5.1759,5.1875,5.2426,5.2659,5.2746,5.3268,5.3384,5.3471,5.3424,5.2865,5.2306,5.2653,5.2323,5.1391,5.1983,5.2678,5.35,5.2388,5.2917,5.3233,5.2393,5.0917,4.881,4.8435,4.8284,4.8259,4.8109,4.8184,4.8284,4.8209,4.8385,4.8736,4.8862,4.9163,4.9464,4.9615,4.9967,5.0318,5.0519,5.077,5.1122,5.1322,5.1498,5.1574,5.1875,5.2277,5.2653,5.2779,5.2452,5.1498,5.1448,5.1548,5.1523,5.1498,5.1523,5.1574,5.1624,5.1599,5.1523,5.1624,5.1548,5.1599,5.1624,5.1523,5.1749,5.19,5.2,5.2051,5.1649,5.1925,5.1925,5.1774,5.2076,5.2452,5.2427,5.2126,5.1749,5.1523,5.1473,5.1523,5.1574,5.1548,5.1599,5.1624,5.1724,5.2503,5.2327,5.2302,5.2226,5.2151,5.2176,5.2151,5.2277,5.2377,5.2578,5.2804,5.2729,5.2779,5.2729,5.2653,5.2653,5.2678,5.2779,5.2929,5.2929,5.2929,5.2929,5.2929,5.2929,5.2929,5.2929,5.2929,5.2955,5.3155,5.3231,5.2659,5.3123,5.3268,5.3326,5.3326,5.3442,5.35,5.3588,5.4081,5.4013,5.4108,5.4489,5.461,5.439,5.4398,5.4514,5.4374,5.4086,5.4018,5.3626,5.4568,5.2985,5.0976,4.9875,4.9316,4.9163,4.9213,4.9213,4.9188,4.9113,4.9264,4.9389,4.9464,4.969,5.0167,5.0268,5.0519,5.1071,5.1473,5.1724,5.195,5.2302,5.2477,5.2503,5.2628,5.2754,5.2879,5.2929,5.2804,5.2628,5.2528,5.2427,5.2452,5.2477,5.2452,5.2452,5.2503,5.2528,5.2553,5.2503,5.2578,5.2553,5.2829,5.3181,5.3206,5.3507,5.3733,5.3833,5.3858,5.3632,5.3582,5.3783,5.3733,5.3783,5.3858,5.3858,5.3708,5.3055,5.2779,5.3005,5.313,5.3331,5.3708,5.3607,5.3658,5.3808,5.3683,5.3582,5.3356,5.3055,5.3005,5.2955,5.2955,5.308,5.3155,5.3356,5.3356,5.3256,5.3181,5.308,5.308,5.2929,5.2929,5.2929,5.2929,5.2929,5.2929,5.2929,5.2929,5.2929,5.2955,5.3005,5.308,5.3281,5.3557,5.321,5.35,5.35,5.35,5.35,5.35,5.3704,5.3994,5.4342,5.4691,5.5039,5.5591,5.5881,5.591,5.6171,5.6044,5.5908,5.5738,5.5306,5.4741,5.506,5.4323,5.2876,5.1669,5.0942,4.9976,4.959,4.959,4.959,4.964,4.969,4.9967,4.9992,5.0293,5.0745,5.082,5.1122,5.1574,5.195,5.2201,5.2528,5.2754,5.2929,5.2929,5.2929,5.2929,5.2929,5.2929,5.2929,5.2929,5.2929,5.2929,5.2929,5.2929,5.2929,5.2929,5.2929,5.2929,5.2929,5.3155,5.3256,5.3306,5.3808,5.4034,5.4135,5.4411,5.4536,5.4561,5.4511,5.4536,5.4561,5.4536,5.4561,5.4561,5.4587,5.4587,5.4461,5.4034,5.3783,5.4034,5.4059,5.4185,5.4461,5.4687,5.4587,5.4285,5.4235,5.416,5.4135,5.3884,5.3884,5.3833,5.3758,5.3758,5.3783,5.3858,5.3909,5.3783,5.3607,5.3482,5.3406,5.3181,5.2929,5.2929,5.2955,5.2929,5.2929,5.2929,5.3005,5.2955,5.3005,5.308,5.3256,5.3557,5.3858,5.35,5.35,5.35,5.35,5.353,5.3646,5.3994,5.4458,5.4749,5.5184,5.562,5.6258,5.6549,5.6636,5.6984,5.7274,5.7274,5.7133,5.6451,5.5848,5.5761,5.5032,5.3992,5.3619,5.2722,5.0563,5.0487,5.0487,5.0231,4.9999,5.0456,5.0575,5.0544,5.0845,5.1272,5.1423,5.1674,5.2176,5.2302,5.2452,5.2779,5.2904,5.2929,5.2929,5.2929,5.2929,5.2929,5.2929,5.2929,5.2929,5.2929,5.2929,5.2929,5.2929,5.3005,5.303,5.3105,5.3231,5.3406,5.3632,5.3833,5.3858,5.4361,5.4662,5.4712,5.4863,5.4988,5.4938,5.4963,5.4963,5.4838,5.4963,5.4938,5.4888,5.4863,5.4813,5.4813,5.4813,5.4813,5.4662,5.4712,5.4813,5.4938,5.5114,5.4938,5.4787,5.4787,5.4737,5.4712,5.4637,5.4561,5.4361,5.421,5.416,5.416,5.4235,5.4285,5.426,5.4084,5.3959,5.3833,5.3733,5.3507,5.3055,5.298,5.3055,5.3231,5.3432,5.3406,5.3155,5.3306,5.3632,5.3783,5.3884,5.4235,5.35,5.35,5.35,5.35,5.3617,5.411,5.4429,5.4691,5.562,5.6113,5.6287,5.6868,5.7129,5.7187,5.7216,5.7303,5.7303,5.7303,5.7191,5.6851,5.688,5.6193,5.5463,5.5646,5.4946,5.3835,5.3278,5.2758,5.2071,5.1921,5.1717,5.1393,5.1254,5.1556,5.1825,5.2,5.2226,5.2603,5.2703,5.2804,5.2879,5.2929,5.2929,5.2929,5.2929,5.2929,5.2929,5.2929,5.2929,5.2929,5.2929,5.2955,5.3005,5.3005,5.3206,5.3406,5.3507,5.3632,5.4059,5.431,5.4411,5.4536,5.4938,5.5239,5.5365,5.5591,5.5691,5.5792,5.5817,5.5867,5.5942,5.5767,5.5892,5.5892,5.5817,5.5817,5.5817,5.5767,5.5616,5.5315,5.5315,5.5365,5.5465,5.5566,5.5541,5.5516,5.5516,5.539,5.5265,5.5164,5.5064,5.4813,5.4511,5.4486,5.4486,5.4561,5.4637,5.4687,5.4587,5.4511,5.4411,5.4411,5.416,5.3632,5.3457,5.3582,5.3758,5.3934,5.3984,5.3909,5.4084,5.426,5.4411,5.4536,5.4888,5.35,5.35,5.35,5.3733,5.4052,5.4371,5.4923,5.5533,5.6142,5.6607,5.6897,5.7187,5.7303,5.7303,5.7303,5.7303,5.7303,5.7303,5.7303,5.7361,5.7509,5.7598,5.6937,5.7537,5.753,5.6999,5.6535,5.5398,5.4065,5.3966,5.3422,5.2956,5.2715,5.2731,5.2538,5.2528,5.2678,5.2904,5.2929,5.2929,5.2929,5.2929,5.2929,5.2929,5.2929,5.2929,5.2929,5.2929,5.2929,5.298,5.3181,5.3306,5.3406,5.3582,5.3733,5.3758,5.3758,5.3984,5.4536,5.4787,5.4988,5.5064,5.5491,5.5792,5.5867,5.6018,5.6194,5.6219,5.6219,5.6219,5.6168,5.6219,5.6219,5.6219,5.6219,5.6219,5.6219,5.6219,5.6018,5.5792,5.5817,5.5842,5.5993,5.6093,5.6168,5.6219,5.6219,5.6018,5.5767,5.5666,5.5541,5.544,5.5189,5.5189,5.5164,5.5164,5.5139,5.5164,5.5114,5.5039,5.4913,5.4863,5.4561,5.411,5.4059,5.4235,5.4185,5.4336,5.4486,5.4612,5.4587,5.4637,5.4938,5.5214,5.5465,5.35,5.353,5.3675,5.4023,5.4517,5.4807,5.5474,5.6316,5.6549,5.6868,5.7245,5.7303,5.7303,5.7303,5.7303,5.7303,5.7303,5.7303,5.739,5.7652,5.8,5.8319,5.8668,5.9103,5.9217,5.91,5.9302,5.8355,5.6211,5.5562,5.5029,5.4131,5.4025,5.3592,5.2941,5.2829,5.2929,5.2929,5.2929,5.2929,5.2929,5.2929,5.2929,5.2929,5.2929,5.2929,5.2929,5.3105,5.313,5.3281,5.3557,5.3884,5.3934,5.431,5.4386,5.411,5.4059,5.4361,5.4863,5.5265,5.5541,5.5591,5.5942,5.6143,5.6194,5.6168,5.6219,5.6219,5.6219,5.6219,5.6219,5.6219,5.6219,5.6219,5.6219,5.6219,5.6219,5.6219,5.6219,5.6143,5.6219,5.6219,5.6219,5.6219,5.6219,5.6219,5.6219,5.6219,5.5993,5.6043,5.5993,5.6068,5.5993,5.5993,5.5968,5.5892,5.5842,5.5792,5.5691,5.5566,5.544,5.5315,5.4988,5.4813,5.4938,5.5064,5.4913,5.4838,5.5139,5.5239,5.4988,5.5064,5.5465,5.5616,5.5767,5.35,5.3559,5.4168,5.4458,5.472,5.5678,5.6229,5.6461,5.6955,5.7216,5.7303,5.7303,5.7303,5.7303,5.7303,5.7303,5.7332,5.7419,5.7652,5.8029,5.8377,5.8784,5.9219,5.98,6.0061,6.0177,6.0613,5.9686,5.8071,5.6816,5.5821,5.5103,5.4278,5.3128,5.3538,5.3316,5.2929,5.2929,5.2929,5.2929,5.2929,5.2929,5.2929,5.2929,5.2929,5.298,5.3055,5.3331,5.3532,5.3683,5.416,5.4436,5.4486,5.4511,5.4838,5.5039,5.5239,5.5415,5.5817,5.5942,5.6018,5.5993,5.6168,5.6194,5.6219,5.6219,5.6219,5.6219,5.6219,5.6219,5.6219,5.6219,5.6219,5.6219,5.6219,5.6219,5.6219,5.6219,5.6219,5.6219,5.6219,5.6219,5.6219,5.6219,5.6219,5.6219,5.6219,5.6219,5.6219,5.6219,5.6219,5.6219,5.6219,5.6219,5.6219,5.6219,5.6219,5.6219,5.6118,5.5993,5.5867,5.5742,5.5917,5.5792,5.5842,5.5691,5.544,5.5491,5.5842,5.5842,5.5591,5.5767,5.6068,5.6118,5.6043,5.3733,5.411,5.44,5.4923,5.562,5.62,5.6607,5.6926,5.7187,5.7303,5.7303,5.7303,5.7303,5.7303,5.7303,5.7303,5.739,5.771,5.8,5.8523,5.8987,5.951,5.9887,6.0438,6.0758,6.0787,6.099,6.087,5.9643,5.922,5.8522,5.724,5.6677,5.6129,5.4861,5.435,5.4216,5.3971,5.3452,5.2929,5.2929,5.2929,5.2929,5.2929,5.2955,5.3105,5.3381,5.3532,5.3884,5.4185,5.4737,5.5013,5.5114,5.5315,5.5641,5.5767,5.5842,5.5968,5.6143,5.6194,5.6219,5.6219,5.6219,5.6219,5.6219,5.6219,5.6219,5.6219,5.6219,5.6219,5.6219,5.6219,5.6219,5.6219,5.6219,5.6219,5.6219,5.6219,5.6219,5.6219,5.6219,5.6219,5.6219,5.6219,5.6219,5.6219,5.6219,5.6219,5.6219,5.6219,5.6219,5.6219,5.6219,5.6219,5.6219,5.6219,5.6244,5.6244,5.6219,5.6143,5.6168,5.6168,5.6219,5.6219,5.6068,5.5942,5.5867,5.5917,5.6068,5.6143,5.6194,5.6219,5.6219,5.6194,5.6143,5.4371,5.4981,5.4981,5.562,5.6636,5.681,5.7129,5.7507,5.7361,5.7303,5.7303,5.7303,5.7303,5.739,5.7477,5.7623,5.7623,5.8261,5.861,5.9103,5.9655,6.0177,6.0526,6.099,6.1135,6.1193,6.1135,6.1015,6.1164,6.0894,6.0108,5.9121,5.7961,5.7706,5.678,5.5499,5.4619,5.3971,5.3316,5.2929,5.2955,5.3105,5.313,5.3181,5.3281,5.3507,5.3858,5.4135,5.4436,5.4737,5.529,5.5591,5.5641,5.5867,5.6043,5.6118,5.6118,5.6143,5.6194,5.6219,5.6219,5.6219,5.6219,5.6219,5.6219,5.6219,5.6219,5.6219,5.6219,5.6219,5.6219,5.6219,5.6219,5.6219,5.6219,5.6219,5.6219,5.6269,5.6244,5.6219,5.6219,5.6219,5.6219,5.6219,5.6219,5.6219,5.6219,5.6244,5.6269,5.6319,5.6244,5.6269,5.6219,5.6294,5.6445,5.6394,5.6369,5.6269,5.6244,5.6219,5.6219,5.6219,5.6219,5.6219,5.6219,5.6168,5.6043,5.6118,5.6219,5.6219,5.6219,5.6219,5.6219,5.6219,5.6219,5.5678,5.6287,5.6287,5.6665,5.7303,5.7913,5.8145,5.8,5.7507,5.7332,5.7303,5.7303,5.7303,5.7448,5.7855,5.8116,5.8232,5.8929,5.9422,5.9829,6.0206,6.0584,6.0903,6.1106,6.1193,6.1193,6.1193,6.1193,6.1193,6.1193,6.0409,5.9245,5.8746,5.7551,5.6909,5.6417,5.4994,5.4241,5.3503,5.328,5.3293,5.352,5.3658,5.3783,5.411,5.4486,5.4536,5.4863,5.5164,5.534,5.5767,5.6018,5.6043,5.6143,5.6219,5.6219,5.6219,5.6219,5.6219,5.6219,5.6219,5.6219,5.6219,5.6219,5.6219,5.6219,5.6219,5.6219,5.6219,5.6219,5.6219,5.6219,5.6219,5.6244,5.6269,5.6319,5.6319,5.6344,5.6344,5.6244,5.6219,5.6269,5.6294,5.6319,5.6219,5.6219,5.647,5.6495,5.652,5.6545,5.6369,5.6319,5.6244,5.6394,5.6746,5.6671,5.6369,5.6319,5.6319,5.6269,5.6219,5.6219,5.6219,5.6219,5.6219,5.6219,5.6219,5.6219,5.6219,5.6219,5.6219,5.6219,5.6219,5.6219,5.6219,5.6374,5.7013,5.7826,5.8087,5.7942,5.8203,5.8058,5.771,5.7419,5.7303,5.7303,5.7303,5.7303,5.7507,5.7971,5.829,5.8464,5.9422,5.9916,6.0293,6.0584,6.0932,6.1164,6.1193,6.1193,6.1193,6.1193,6.1193,6.1193,6.1193,6.1044,6.0287,5.9645,5.9768,5.9121,5.7988,5.6704,5.5498,5.493,5.4705,5.456,5.4328,5.4235,5.4285,5.4361,5.4762,5.5013,5.5239,5.5541,5.5842,5.6093,5.6168,5.6219,5.6219,5.6219,5.6219,5.6219,5.6219,5.6219,5.6219,5.6219,5.6219,5.6219,5.6219,5.6219,5.6219,5.6219,5.6219,5.6244,5.6294,5.6219,5.6219,5.6219,5.6294,5.6394,5.6495,5.6545,5.662,5.6742,5.6889,5.6591,5.6369,5.6394,5.642,5.6319,5.6244,5.652,5.6771,5.6796,5.6872,5.6771,5.6671,5.6595,5.647,5.6796,5.6595,5.6344,5.6369,5.642,5.6394,5.6344,5.6219,5.6219,5.6219,5.6219,5.6219,5.6219,5.6219,5.6219,5.6219,5.6219,5.6219,5.6219,5.6219,5.6219,5.7332,5.8,5.9103,5.919,5.8639,5.861,5.8232,5.7623,5.739,5.7303,5.7303,5.7303,5.7448,5.7739,5.829,5.8784,5.919,5.9945,6.038,6.0671,6.0932,6.1164,6.1193,6.1193,6.1193,6.1193,6.1193,6.1193,6.1193,6.1193,6.1073,6.1073,6.1193,6.1044,6.0739,5.9967,5.8745,5.7445,5.6531,5.6066,5.5898,5.5306,5.4813,5.4863,5.5013,5.529,5.5566,5.5717,5.5842,5.6043,5.6194,5.6219,5.6219,5.6219,5.6219,5.6219,5.6219,5.6219,5.6219,5.6219,5.6219,5.6219,5.6219,5.6219,5.6219,5.6219,5.6219,5.6244,5.6319,5.6394,5.6369,5.652,5.6646,5.6796,5.7097,5.7198,5.7271,5.7444,5.7491,5.7415,5.7339,5.7339,5.7111,5.7137,5.6813,5.6616,5.6646,5.6922,5.7072,5.7198,5.7323,5.7198,5.7097,5.6922,5.6796,5.6746,5.6696,5.6671,5.6696,5.662,5.6545,5.647,5.6445,5.6545,5.6495,5.6294,5.6219,5.6219,5.6219,5.6219,5.6219,5.6219,5.6219,5.6219,5.6219,5.861,5.9306,5.9887,5.9771,5.9161,5.9248,5.8813,5.8029,5.7536,5.7303,5.7332,5.7361,5.7681,5.8261,5.89,5.9451,5.9945,6.0671,6.1048,6.1077,6.1106,6.1193,6.1193,6.1193,6.1193,6.1193,6.1193,6.1193,6.1193,6.1193,6.1193,6.1251,6.128,6.1309,6.116,6.0489,5.9456,5.8118,5.7464,5.7297,5.7072,5.6571,5.6147,5.6275,5.653,5.6759,5.6403,5.6428,5.6529,5.6168,5.6219,5.6219,5.6219,5.6219,5.6219,5.6219,5.6219,5.6219,5.6219,5.6219,5.6365,5.6365,5.651,5.6365,5.6219,5.6219,5.644,5.6541,5.6793,5.6843,5.6821,5.7047,5.7321,5.7472,5.7774,5.805,5.8098,5.8298,5.8396,5.8142,5.859,5.8815,5.843,5.8002,5.7385,5.7187,5.6994,5.7097,5.7449,5.7625,5.7826,5.775,5.76,5.7449,5.7273,5.7123,5.7072,5.7022,5.7022,5.7022,5.7022,5.7022,5.7022,5.6997,5.6746,5.652,5.6344,5.6219,5.6219,5.6219,5.6219,5.6219,5.6219,5.6219,5.6219,5.9103,5.9364,5.9945,5.9597,5.8726,5.8639,5.8261,5.7681,5.7419,5.7303,5.7419,5.7739,5.8058,5.8581,5.9364,6.0003,6.0293,6.0874,6.1193,6.1193,6.1193,6.1193,6.1193,6.1193,6.1193,6.1193,6.1193,6.1193,6.1193,6.1193,6.1193,6.1222,6.1571,6.1774,6.171,6.1574,6.1194,6.1203,6.0682,6.0093,6.0015,5.915,5.8665,5.8665,5.8736,5.8276,5.759,5.7446,5.6895,5.634,5.6219,5.6219,5.6219,5.6219,5.6219,5.6365,5.6365,5.6801,5.6946,5.6946,5.6946,5.6972,5.6946,5.6801,5.6656,5.6946,5.6979,5.7283,5.7588,5.7714,5.8315,5.8468,5.857,5.8646,5.885,5.8927,5.9076,5.9306,5.9331,5.8948,5.902,5.927,5.9065,5.9186,5.8738,5.8468,5.8349,5.8429,5.863,5.8378,5.8428,5.8278,5.8127,5.7951,5.7801,5.7675,5.7524,5.7449,5.7524,5.76,5.76,5.76,5.76,5.7575,5.7148,5.6746,5.6721,5.6646,5.6319,5.6219,5.642,5.6344,5.6219,5.6219,5.6219,5.9626,5.9655,5.98,5.9277,5.8377,5.829,5.7913,5.739,5.7332,5.7419,5.7739,5.8145,5.861,5.9103,5.9742,6.0438,6.0555,6.0961,6.1193,6.1193,6.1193,6.1193,6.1193,6.1193,6.1193,6.1193,6.1193,6.1193,6.1193,6.1193,6.1338,6.16,6.1919,6.2354,6.2587,6.2811,6.2898,6.2859,6.2236,6.1921,6.1608,6.1054,6.0455,6.0181,5.9931,5.9262,5.856,5.7876,5.7328,5.6485,5.6219,5.6219,5.6219,5.6219,5.6219,5.651,5.6801,5.7235,5.7379,5.7523,5.76,5.8146,5.7677,5.7363,5.732,5.7568,5.7874,5.8181,5.8584,5.8789,5.9045,5.9347,5.9681,5.9758,5.966,5.9737,6.0139,6.0371,6.0397,5.9985,6.0005,6.0031,6.0005,6.0057,6.0057,6.0062,5.9942,5.9795,5.959,5.9388,5.9058,5.878,5.8654,5.8529,5.8378,5.8202,5.8077,5.7926,5.8027,5.8177,5.8177,5.8177,5.8177,5.8102,5.7675,5.7349,5.7273,5.7123,5.6947,5.6872,5.6997,5.6771,5.6319,5.6244,5.6294,6.0148,6.0061,5.9539,5.8871,5.8319,5.8203,5.7855,5.7332,5.7361,5.771,5.829,5.8377,5.9045,5.9974,6.0235,6.0584,6.099,6.1164,6.1193,6.1193,6.1193,6.1193,6.1193,6.1193,6.1193,6.1193,6.1193,6.1193,6.1193,6.1367,6.1629,6.2122,6.2441,6.3022,6.3632,6.3922,6.398,6.3804,6.3522,6.3102,6.2925,6.1919,6.1571,6.1301,6.0756,5.9793,5.8841,5.8018,5.704,5.634,5.6219,5.6219,5.6219,5.6219,5.651,5.6801,5.7235,5.7523,5.8057,5.8109,5.8511,5.8967,5.8275,5.8011,5.8191,5.8371,5.8679,5.9116,5.945,5.945,5.9527,5.999,6.0478,6.0503,6.0529,6.0758,6.1163,6.1391,6.1542,6.1412,6.1536,6.151,6.123,6.1405,6.0924,6.1054,6.0805,6.0452,6.0379,5.9998,5.9718,5.9436,5.9335,5.9131,5.8956,5.873,5.8654,5.8529,5.8604,5.873,5.873,5.873,5.873,5.8579,5.8202,5.7926,5.7675,5.765,5.7725,5.7675,5.7499,5.7298,5.6897,5.652,5.6445,5.9568,5.948,5.8842,5.8203,5.7652,5.7594,5.7477,5.7361,5.7768,5.8174,5.8348,5.9277,5.9829,6.0206,6.07,6.099,6.1106,6.1193,6.1193,6.1193,6.1193,6.1193,6.1193,6.1193,6.1193,6.1193,6.1193,6.128,6.1338,6.1542,6.247,6.3341,6.3283,6.3922,6.4357,6.4706,6.4677,6.4549,6.4339,6.4239,6.4167,6.3619,6.3357,6.3066,6.2669,6.1571,6.007,5.9375,5.8418,5.6631,5.634,5.6219,5.6219,5.651,5.6801,5.7498,5.7836,5.8083,5.8707,5.898,5.9215,5.983,5.9487,5.9393,5.9351,5.948,5.9687,6.0127,6.0438,6.0438,6.0542,6.0956,6.124,6.124,6.1266,6.1443,6.1672,6.1823,6.1823,6.1823,6.1973,6.1973,6.1921,6.1868,6.1562,6.1744,6.162,6.1365,6.1012,6.066,6.038,5.9946,5.9766,5.964,5.9511,5.9207,5.9182,5.9156,5.9156,5.9156,5.9182,5.9182,5.9232,5.9081,5.8704,5.8303,5.7901,5.8001,5.8227,5.8001,5.7801,5.7675,5.7474,5.7123,5.6821,5.951,5.9219,5.8581,5.7913,5.7361,5.7303,5.7419,5.7739,5.8145,5.8406,5.8813,5.9713,6.0351,6.0642,6.099,6.1164,6.1164,6.1193,6.1193,6.1193,6.1193,6.1193,6.1193,6.1193,6.1193,6.1251,6.1425,6.1629,6.1745,6.2238,6.308,6.3864,6.4038,6.4415,6.4764,6.4938,6.4938,6.4938,6.4967,6.4996,6.4996,6.4996,6.4996,6.4839,6.4711,6.3066,6.1706,6.1165,5.9236,5.7446,5.7184,5.6921,5.6776,5.6946,5.7379,5.7979,5.8355,5.8707,5.9281,5.9594,5.9986,6.0378,6.0588,6.0597,6.0597,6.0649,6.0736,6.1048,6.1301,6.1555,6.179,6.1973,6.1973,6.1973,6.1973,6.1973,6.1973,6.1973,6.1973,6.1973,6.1973,6.1973,6.1973,6.1973,6.1973,6.1973,6.1973,6.177,6.1417,6.1141,6.0889,6.0431,6.0125,5.992,5.9817,5.9663,5.9408,5.9357,5.9382,5.9408,5.9508,5.9483,5.9408,5.9332,5.9207,5.883,5.8504,5.8579,5.8679,5.8453,5.8403,5.8478,5.8278,5.7801,5.7549,5.98,5.9248,5.8523,5.7826,5.7361,5.739,5.7739,5.829,5.8493,5.8813,5.9422,6.0032,6.0642,6.1019,6.1164,6.1193,6.1193,6.1193,6.1193,6.1193,6.1193,6.1193,6.1193,6.1193,6.1309,6.1454,6.1745,6.2093,6.2441,6.2906,6.3486,6.4067,6.4183,6.4502,6.4909,6.4996,6.4996,6.4996,6.4996,6.4996,6.4996,6.4996,6.4996,6.4839,6.4009,6.2934,6.2508,6.1436,6.007,5.9236,5.8444,5.8186,5.7641,5.7482,5.7913,5.8381,5.9007,5.9372,5.9803,6.0117,6.0588,6.0953,6.1215,6.1372,6.1398,6.1346,6.1379,6.151,6.1738,6.1764,6.1921,6.1973,6.1973,6.1973,6.1973,6.1973,6.1973,6.1973,6.1973,6.1973,6.1973,6.1973,6.1973,6.1973,6.1973,6.1973,6.1973,6.1973,6.1823,6.1646,6.1193,6.0889,6.0737,6.0431,6.0125,5.9971,5.9663,5.9637,5.9663,5.9508,5.9508,5.9508,5.9508,5.9433,5.9357,5.9408,5.9257,5.9207,5.9131,5.9156,5.9156,5.9357,5.9081,5.8504,5.8227,5.9451,5.919,5.8029,5.7448,5.739,5.7855,5.8116,5.8406,5.9364,5.98,6.009,6.0642,6.1019,6.1164,6.1193,6.1193,6.1193,6.1193,6.1193,6.1193,6.1193,6.1193,6.1222,6.128,6.1454,6.1803,6.2151,6.2703,6.337,6.3777,6.4096,6.4677,6.4706,6.4822,6.4967,6.4996,6.4996,6.4996,6.4996,6.4996,6.4996,6.4996,6.4996,6.4868,6.4425,6.3749,6.3197,6.2508,6.1436,6.0345,5.9402,5.8586,5.7784,5.8316,5.8667,5.9111,5.962,6.0065,6.0483,6.0744,6.1136,6.1502,6.1738,6.1842,6.1868,6.179,6.1816,6.1921,6.1973,6.1973,6.1973,6.1973,6.1973,6.1973,6.1973,6.1973,6.1973,6.1973,6.1973,6.1973,6.1973,6.1973,6.1973,6.1973,6.1973,6.1973,6.1973,6.1973,6.1973,6.1823,6.1646,6.1344,6.1193,6.1041,6.0584,6.0278,6.0125,5.9817,5.9817,5.9663,5.9508,5.9508,5.9508,5.9508,5.9483,5.9508,5.9508,5.9458,5.9433,5.9508,5.9508,5.9508,5.9508,5.9056,5.883,5.9306,5.9132,5.7855,5.7303,5.7419,5.8029,5.8464,5.89,5.9771,6.038,6.0642,6.1019,6.1193,6.1193,6.1193,6.1193,6.1193,6.1193,6.1193,6.1193,6.1222,6.1193,6.1251,6.1483,6.1745,6.2093,6.2819,6.3516,6.4299,6.4473,6.4706,6.4967,6.4996,6.4996,6.4996,6.4996,6.4996,6.4996,6.4996,6.4996,6.4996,6.4996,6.4996,6.4996,6.4839,6.4296,6.4296,6.3749,6.2934,6.1436,6.0234,5.9035,5.8407,5.8447,5.8902,5.9411,5.9882,6.0483,6.098,6.1372,6.1581,6.1868,6.1973,6.1947,6.1947,6.1868,6.1894,6.1973,6.1973,6.1973,6.1973,6.1973,6.1973,6.1973,6.1973,6.1973,6.1973,6.1973,6.1973,6.1973,6.1973,6.1973,6.1973,6.1973,6.1973,6.1973,6.1973,6.1973,6.1973,6.1973,6.1823,6.1646,6.1495,6.1344,6.1041,6.0737,6.0431,6.0278,5.9971,5.9792,5.9637,5.9483,5.9508,5.9508,5.9508,5.9508,5.9508,5.9508,5.9508,5.9508,5.9508,5.9508,5.9508,5.9508,5.9282,5.919,5.89,5.7797,5.7361,5.7536,5.8145,5.8813,5.9451,6.009,6.0642,6.1077,6.1164,6.1193,6.1193,6.1193,6.1193,6.1193,6.1193,6.1193,6.1222,6.1338,6.1425,6.1658,6.1919,6.2296,6.2877,6.3574,6.4183,6.4851,6.488,6.488,6.4967,6.4996,6.4996,6.4996,6.4996,6.4996,6.4996,6.4996,6.4996,6.4996,6.4996,6.4996,6.4996,6.4996,6.4996,6.4996,6.4711,6.4167,6.3178,6.1737,6.0753,5.9994,5.9925,5.9985,6.0407,6.0551,6.1022,6.1267,6.1685,6.1842,6.1973,6.1973,6.1973,6.1973,6.1973,6.1973,6.1973,6.1973,6.1973,6.1973,6.1973,6.1973,6.1973,6.1973,6.1973,6.1973,6.1973,6.1973,6.1973,6.1973,6.1973,6.1973,6.1973,6.1973,6.1973,6.1973,6.1973,6.1973,6.1973,6.1973,6.1823,6.1823,6.1495,6.1495,6.1193,6.0737,6.0584,6.0406,5.9946,5.9637,5.9483,5.9508,5.9508,5.9508,5.9508,5.9508,5.9508,5.9508,5.9508,5.9508,5.9508,5.9508,5.9508,5.9508,5.8668,5.7652,5.739,5.7594,5.8145,5.8813,5.948,6.0061,6.07,6.1106,6.1164,6.1193,6.1193,6.1193,6.1193,6.1193,6.1193,6.1193,6.1193,6.1222,6.16,6.1803,6.2093,6.2529,6.3138,6.3748,6.4299,6.4764,6.4996,6.4996,6.4996,6.4996,6.4996,6.4996,6.4996,6.4996,6.4996,6.4996,6.4996,6.4996,6.4996,6.4996,6.4996,6.4996,6.4996,6.4996,6.4996,6.4996,6.4839,6.444,6.397,6.3208,6.2508,6.1949,6.1986,6.1657,6.1834,6.1616,6.1835,6.1868,6.1973,6.1973,6.1973,6.1973,6.1973,6.1973,6.1973,6.1973,6.1973,6.1973,6.1973,6.1973,6.1973,6.1973,6.1973,6.1973,6.1973,6.1973,6.1973,6.1973,6.1973,6.1973,6.1973,6.1973,6.1973,6.1973,6.1973,6.1973,6.1973,6.1973,6.1973,6.1973,6.1823,6.1973,6.1823,6.1521,6.1193,6.1041,6.0711,6.0099,5.9792,5.9483,5.9508,5.9508,5.9508,5.9508,5.9508,5.9508,5.9508,5.9508,5.9508,5.9508,5.9508,5.9508,5.9508]},{"header":{"parameterUnit":"m.s-1","parameterCategory":1,"la1":31.0,"la2":29.5877,"lo1":-88.7671,"lo2":-86.6584,"dx":0.0162,"dy":0.0185,"nx":115,"ny":88,"refTime":"2023-01-03T18:00:00:Z","depth":0,"parameterNumber":3,"parameterNumberName":"V-component_of_WINDS"},"data":[0.0,0.0,0.0,0.0,0.0,0.0,0.0,0.0,0.0,0.0,0.0,0.0,0.0,0.0,0.0,0.0,0.0,0.0,0.0,0.0,0.0,0.0,0.0,0.0,0.0,0.0,0.0,0.0,0.0,0.0,0.0,0.0,0.0,0.0,0.0,0.0,0.0,0.0,0.0,0.0,0.0,0.0,0.0,0.0,0.0,0.0,0.0,0.0,0.0,0.0,0.0,0.0,0.0,0.0,0.0,0.0,0.0,0.0,0.0,0.0,0.0,0.0,0.0,0.0,0.0,0.0,0.0,0.0,0.0,0.0,0.0,0.0,0.0,0.0,0.0,0.0,0.0,0.0,0.0,0.0,0.0,0.0,0.0,0.0,0.0,0.0,0.0,0.0,0.0,0.0,0.0,0.0,0.0,0.0,0.0,0.0,0.0,0.0,0.0,0.0,0.0,0.0,0.0,0.0,0.0,0.0,0.0,0.0,0.0,0.0,0.0,0.0,0.0,0.0,0.0,0.0,0.0,0.0,0.0,0.0,0.0,0.0,0.0,0.0,0.0,0.0,0.0,0.0,0.0,0.0,0.0,0.0,0.0,0.0,0.0,0.0,0.0,0.0,0.0,0.0,0.0,0.0,0.0,0.0,0.0,0.0,0.0,0.0,0.0,0.0,0.0,0.0,0.0,0.0,0.0,0.0,0.0,0.0,0.0,0.0,0.0,0.0,0.0,0.0,0.0,0.0,0.0,0.0,0.0,0.0,0.0,0.0,0.0,0.0,0.0,0.0,0.0,0.0,0.0,0.0,0.0,0.0,0.0,0.0,0.0,0.0,0.0,0.0,0.0,0.0,0.0,0.0,0.0,0.0,0.0,0.0,0.0,0.0,0.0,0.0,0.0,0.0,0.0,0.0,0.0,0.0,0.0,0.0,0.0,0.0,0.0,0.0,0.0,0.0,0.0,0.0,0.0,0.0,0.0,0.0,0.0,0.0,0.0,0.0,0.0,0.0,0.0,0.0,0.0,0.0,0.0,0.0,0.0,0.0,0.0,0.0,0.0,0.0,0.0,0.0,0.0,0.0,0.0,0.0,0.0,0.0,0.0,0.0,0.0,0.0,0.0,0.0,0.0,0.0,0.0,0.0,0.0,0.0,0.0,0.0,0.0,0.0,0.0,0.0,0.0,0.0,0.0,0.0,0.0,0.0,0.0,0.0,0.0,0.0,0.0,0.0,0.0,0.0,0.0,0.0,0.0,0.0,0.0,0.0,0.0,0.0,0.0,0.0,0.0,0.0,0.0,0.0,0.0,0.0,0.0,0.0,0.0,0.0,0.0,0.0,0.0,0.0,0.0,0.0,0.0,0.0,0.0,0.0,0.0,0.0,0.0,0.0,0.0,0.0,0.0,0.0,0.0,0.0,0.0,0.0,0.0,0.0,0.0,0.0,0.0,0.0,0.0,0.0,0.0,0.0,0.0,0.0,0.0,0.0,0.0,0.0,0.0,0.0,0.0,0.0,0.0,0.0,0.0,0.0,0.0,0.0,0.0,0.0,0.0,0.0,0.0,0.0,0.0,0.0,0.0,0.0,0.0,0.0,0.0,0.0,0.0,0.0,0.0,0.0,0.0,0.0,0.0,0.0,0.0,0.0,0.0,0.0,0.0,0.0,0.0,0.0,0.0,0.0,0.0,0.0,0.0,0.0,0.0,0.0,0.0,0.0,0.0,0.0,0.0,0.0,0.0,0.0,0.0,0.0,0.0,0.0,0.0,0.0,0.0,0.0,0.0,0.0,0.0,0.0,0.0,0.0,0.0,0.0,0.0,0.0,0.0,0.0,0.0,0.0,0.0,0.0,0.0,0.0,0.0,0.0,0.0,0.0,0.0,0.0,0.0,0.0,0.0,0.0,0.0,0.0,0.0,0.0,0.0,0.0,0.0,0.0,0.0,0.0,0.0,0.0,0.0,0.0,0.0,0.0,0.0,0.0,0.0,0.0,0.0,0.0,0.0,0.0,0.0,0.0,0.0,0.0,0.0,0.0,0.0,0.0,0.0,0.0,0.0,0.0,0.0,0.0,0.0,0.0,0.0,0.0,0.0,0.0,0.0,0.0,0.0,0.0,0.0,0.0,0.0,0.0,0.0,0.0,0.0,0.0,0.0,0.0,0.0,0.0,0.0,0.0,0.0,0.0,0.0,0.0,0.0,0.0,0.0,0.0,0.0,0.0,0.0,0.0,0.0,0.0,0.0,0.0,0.0,0.0,0.0,0.0,0.0,0.0,0.0,0.0,0.0,0.0,0.0,0.0,0.0,0.0,0.0,0.0,0.0,0.0,0.0,0.0,0.0,0.0,0.0,0.0,0.0,0.0,0.0,0.0,0.0,0.0,0.0,0.0,0.0,0.0,0.0,0.0,0.0,0.0,0.0,0.0,0.0,0.0,0.0,0.0,0.0,0.0,0.0,0.0,0.0,0.0,0.0,0.0,0.0,0.0,0.0,0.0,0.0,0.0,0.0,0.0,0.0,0.0,0.0,0.0,0.0,0.0,0.0,0.0,0.0,0.0,0.0,0.0,0.0,0.0,0.0,0.0,0.0,0.0,0.0,0.0,0.0,0.0,0.0,0.0,0.0,0.0,0.0,0.0,0.0,0.0,0.0,0.0,0.0,0.0,0.0,0.0,0.0,0.0,0.0,0.0,0.0,0.0,0.0,0.0,0.0,0.0,0.0,0.0,0.0,0.0,0.0,0.0,0.0,0.0,0.0,0.0,0.0,0.0,0.0,0.0,0.0,0.0,0.0,0.0,0.0,0.0,0.0,0.0,0.0,0.0,0.0,0.0,0.0,0.0,0.0,0.0,0.0,0.0,0.0,0.0,0.0,0.0,0.0,0.0,0.0,0.0,0.0,0.0,0.0,0.0,0.0,0.0,0.0,0.0,0.0,0.0,0.0,0.0,0.0,0.0,0.0,0.0,0.0,0.0,0.0,0.0,0.0,0.0,0.0,0.0,0.0,0.0,0.0,0.0,0.0,0.0,0.0,0.0,0.0,0.0,0.0,0.0,0.0,0.0,0.0,0.0,0.0,0.0,0.0,0.0,0.0,0.0,0.0,0.0,0.0,0.0,0.0,0.0,0.0,0.0,0.0,0.0,0.0,0.0,0.0,0.0,0.0,0.0,0.0,0.0,0.0,0.0,0.0,0.0,0.0,0.0,0.0,0.0,0.0,0.0,0.0,0.0,0.0,0.0,0.0,0.0,0.0,0.0,0.0,0.0,0.0,0.0,0.0,0.0,0.0,0.0,0.0,0.0,0.0,0.0,0.0,0.0,0.0,0.0,0.0,0.0,0.0,0.0,0.0,0.0,0.0,0.0,0.0,0.0,0.0,0.0,0.0,0.0,0.0,0.0,0.0,0.0,0.0,0.0,0.0,0.0,0.0,0.0,0.0,0.0,0.0,0.0,0.0,0.0,0.0,0.0,0.0,0.0,0.0,0.0,0.0,0.0,0.0,0.0,0.0,0.0,0.0,0.0,0.0,0.0,0.0,0.0,0.0,0.0,0.0,0.0,0.0,0.0,0.0,0.0,0.0,0.0,0.0,0.0,0.0,0.0,0.0,0.0,0.0,0.0,0.0,0.0,0.0,0.0,0.0,0.0,0.0,0.0,0.0,0.0,0.0,0.0,0.0,0.0,0.0,0.0,0.0,0.0,0.0,0.0,0.0,0.0,0.0,0.0,0.0,0.0,0.0,0.0,0.0,0.0,0.0,0.0,0.0,0.0,0.0,0.0,0.0,0.0,0.0,0.0,0.0,0.0,0.0,0.0,0.0,0.0,0.0,0.0,0.0,0.0,0.0,0.0,0.0,0.0,0.0,0.0,0.0,0.0,0.0,0.0,0.0,0.0,0.0,0.0,0.0,0.0,0.0,0.0,0.0,0.0,0.0,0.0,0.0,0.0,0.0,0.0,0.0,0.0,0.0,0.0,0.0,0.0,0.0,0.0,0.0,0.0,0.0,0.0,0.0,0.0,0.0,0.0,0.0,0.0,0.0,0.0,0.0,0.0,0.0,0.0,0.0,0.0,0.0,0.0,0.0,0.0,0.0,0.0,0.0,0.0,0.0,0.0,0.0,0.0,0.0,0.0,0.0,0.0,0.0,0.0,0.0,0.0,0.0,0.0,0.0,0.0,0.0,0.0,0.0,0.0,0.0,0.0,0.0,0.0,0.0,0.0,0.0,0.0,0.0,0.0,0.0,0.0,0.0,0.0,0.0,0.0,-2.4238,0.0,0.0,0.0,-2.2742,0.0,0.0,0.0,0.0,0.0,0.0,0.0,0.0,0.0,0.0,0.0,0.0,0.0,0.0,0.0,0.0,0.0,0.0,0.0,0.0,0.0,0.0,0.0,0.0,0.0,0.0,0.0,0.0,0.0,0.0,0.0,0.0,0.0,0.0,0.0,0.0,0.0,0.0,0.0,0.0,0.0,0.0,0.0,0.0,0.0,0.0,0.0,0.0,0.0,0.0,0.0,0.0,0.0,0.0,0.0,0.0,0.0,0.0,0.0,0.0,0.0,0.0,0.0,0.0,0.0,0.0,0.0,0.0,0.0,0.0,0.0,0.0,0.0,0.0,0.0,0.0,0.0,0.0,0.0,0.0,0.0,0.0,0.0,0.0,0.0,0.0,0.0,0.0,0.0,0.0,0.0,0.0,0.0,0.0,0.0,0.0,0.0,0.0,0.0,0.0,0.0,0.0,0.0,0.0,0.0,0.0,0.0,0.0,0.0,0.0,-2.3909,-2.361,-2.3909,-2.346,-2.2203,0.0,0.0,0.0,0.0,0.0,0.0,0.0,0.0,0.0,0.0,0.0,0.0,0.0,0.0,0.0,0.0,0.0,0.0,0.0,0.0,0.0,0.0,0.0,0.0,0.0,0.0,0.0,0.0,0.0,0.0,0.0,0.0,0.0,0.0,0.0,0.0,0.0,0.0,0.0,0.0,0.0,0.0,0.0,0.0,0.0,0.0,0.0,0.0,0.0,0.0,0.0,0.0,0.0,0.0,0.0,0.0,0.0,0.0,0.0,0.0,0.0,0.0,0.0,0.0,0.0,0.0,0.0,0.0,0.0,0.0,0.0,0.0,0.0,0.0,0.0,0.0,0.0,0.0,0.0,0.0,0.0,0.0,0.0,0.0,0.0,0.0,0.0,0.0,0.0,0.0,0.0,0.0,0.0,0.0,0.0,0.0,0.0,0.0,0.0,0.0,0.0,0.0,0.0,0.0,0.0,0.0,0.0,0.0,0.0,0.0,0.0,0.0,-2.3909,-2.331,-2.1784,0.0,0.0,0.0,0.0,0.0,0.0,0.0,0.0,0.0,0.0,0.0,0.0,0.0,0.0,0.0,0.0,0.0,0.0,0.0,0.0,0.0,0.0,0.0,0.0,0.0,0.0,0.0,0.0,0.0,0.0,0.0,0.0,0.0,0.0,0.0,0.0,0.0,0.0,0.0,0.0,0.0,0.0,0.0,0.0,0.0,0.0,0.0,0.0,0.0,0.0,0.0,0.0,0.0,0.0,0.0,0.0,0.0,0.0,0.0,0.0,0.0,0.0,0.0,0.0,0.0,0.0,0.0,0.0,0.0,0.0,0.0,0.0,0.0,0.0,0.0,0.0,0.0,0.0,0.0,0.0,0.0,0.0,0.0,0.0,0.0,0.0,0.0,0.0,0.0,0.0,0.0,0.0,0.0,0.0,0.0,0.0,0.0,0.0,0.0,0.0,0.0,0.0,0.0,0.0,0.0,0.0,0.0,0.0,0.0,0.0,-2.4837,-2.367,-2.4777,0.0,-2.1994,0.0,0.0,0.0,0.0,0.0,0.0,0.0,0.0,0.0,0.0,0.0,0.0,0.0,0.0,0.0,0.0,0.0,0.0,0.0,0.0,0.0,0.0,0.0,0.0,0.0,0.0,0.0,0.0,0.0,0.0,0.0,0.0,0.0,0.0,0.0,0.0,0.0,0.0,0.0,0.0,0.0,0.0,0.0,0.0,0.0,0.0,0.0,0.0,0.0,0.0,0.0,0.0,0.0,0.0,0.0,0.0,0.0,0.0,0.0,0.0,0.0,0.0,0.0,0.0,0.0,0.0,0.0,0.0,0.0,0.0,0.0,0.0,0.0,0.0,0.0,0.0,0.0,0.0,0.0,0.0,0.0,0.0,0.0,0.0,0.0,0.0,0.0,0.0,0.0,0.0,0.0,0.0,0.0,0.0,0.0,0.0,0.0,0.0,0.0,0.0,0.0,0.0,0.0,0.0,0.0,0.0,0.0,0.0,0.0,0.0,-2.5166,-2.4238,-2.4358,-2.4118,0.0,0.0,0.0,0.0,0.0,0.0,0.0,0.0,0.0,0.0,0.0,0.0,0.0,0.0,0.0,0.0,0.0,0.0,0.0,0.0,0.0,0.0,0.0,0.0,0.0,0.0,0.0,0.0,0.0,0.0,0.0,0.0,0.0,0.0,0.0,0.0,0.0,0.0,0.0,0.0,0.0,0.0,0.0,0.0,0.0,0.0,0.0,0.0,0.0,0.0,0.0,0.0,0.0,0.0,0.0,0.0,0.0,0.0,0.0,0.0,0.0,0.0,0.0,0.0,0.0,0.0,0.0,0.0,0.0,0.0,0.0,0.0,0.0,0.0,0.0,0.0,0.0,0.0,0.0,0.0,0.0,0.0,0.0,0.0,0.0,0.0,0.0,0.0,0.0,0.0,0.0,0.0,0.0,0.0,0.0,0.0,0.0,0.0,0.0,0.0,0.0,0.0,0.0,0.0,0.0,0.0,0.0,0.0,0.0,0.0,-2.5016,-2.5375,-2.4926,-2.4777,-2.4507,-2.4118,0.0,0.0,0.0,0.0,0.0,0.0,0.0,0.0,0.0,0.0,0.0,0.0,0.0,0.0,0.0,0.0,0.0,0.0,0.0,0.0,0.0,0.0,0.0,0.0,0.0,0.0,0.0,0.0,0.0,0.0,0.0,0.0,0.0,0.0,0.0,0.0,0.0,0.0,0.0,0.0,0.0,0.0,0.0,0.0,0.0,0.0,0.0,0.0,0.0,0.0,0.0,0.0,0.0,0.0,0.0,0.0,0.0,0.0,0.0,0.0,0.0,0.0,0.0,0.0,0.0,0.0,0.0,0.0,0.0,0.0,0.0,0.0,0.0,0.0,0.0,0.0,0.0,0.0,0.0,0.0,0.0,0.0,0.0,0.0,0.0,0.0,0.0,0.0,0.0,0.0,0.0,0.0,0.0,0.0,0.0,0.0,0.0,0.0,0.0,0.0,0.0,0.0,0.0,0.0,0.0,0.0,0.0,0.0,-2.4492,-2.5226,-2.5585,-2.5615,-2.6752,-2.5944,0.0,0.0,0.0,0.0,0.0,0.0,0.0,0.0,0.0,0.0,0.0,0.0,0.0,0.0,0.0,0.0,0.0,0.0,0.0,0.0,0.0,0.0,0.0,0.0,0.0,0.0,0.0,0.0,0.0,0.0,0.0,0.0,0.0,0.0,0.0,0.0,0.0,0.0,0.0,0.0,0.0,0.0,0.0,0.0,0.0,0.0,0.0,0.0,0.0,0.0,0.0,0.0,0.0,0.0,0.0,0.0,0.0,0.0,0.0,0.0,0.0,0.0,0.0,0.0,0.0,0.0,0.0,0.0,0.0,0.0,0.0,0.0,0.0,0.0,0.0,0.0,0.0,0.0,0.0,0.0,0.0,0.0,0.0,0.0,0.0,0.0,0.0,0.0,0.0,0.0,0.0,0.0,0.0,0.0,0.0,0.0,0.0,0.0,0.0,0.0,0.0,0.0,0.0,0.0,0.0,0.0,0.0,0.0,0.0,-2.2772,-2.3789,-2.5345,-2.738,-2.6363,-2.5315,0.0,0.0,0.0,0.0,0.0,0.0,0.0,0.0,0.0,0.0,0.0,0.0,0.0,0.0,0.0,0.0,0.0,0.0,0.0,0.0,0.0,0.0,0.0,0.0,0.0,0.0,0.0,0.0,0.0,0.0,0.0,0.0,0.0,0.0,0.0,0.0,0.0,0.0,0.0,0.0,0.0,0.0,0.0,0.0,0.0,0.0,0.0,0.0,0.0,0.0,0.0,0.0,0.0,0.0,0.0,0.0,0.0,0.0,0.0,0.0,0.0,0.0,0.0,0.0,0.0,0.0,0.0,0.0,0.0,0.0,0.0,0.0,0.0,0.0,0.0,0.0,0.0,0.0,0.0,0.0,0.0,0.0,0.0,0.0,0.0,0.0,0.0,0.0,0.0,0.0,0.0,0.0,0.0,0.0,0.0,0.0,0.0,0.0,0.0,0.0,0.0,0.0,0.0,0.0,0.0,0.0,0.0,0.0,0.0,-2.2697,-2.3911,-2.5461,-2.7187,-2.5998,-2.5166,0.0,0.0,0.0,0.0,0.0,0.0,0.0,0.0,0.0,0.0,0.0,0.0,0.0,0.0,0.0,0.0,0.0,0.0,0.0,0.0,0.0,0.0,0.0,0.0,0.0,0.0,0.0,0.0,0.0,0.0,0.0,0.0,0.0,0.0,0.0,0.0,0.0,0.0,0.0,0.0,0.0,0.0,0.0,0.0,0.0,0.0,0.0,0.0,0.0,0.0,0.0,0.0,0.0,0.0,0.0,0.0,0.0,0.0,0.0,0.0,0.0,0.0,0.0,0.0,0.0,0.0,0.0,0.0,0.0,0.0,0.0,0.0,0.0,0.0,0.0,0.0,0.0,0.0,0.0,0.0,0.0,0.0,0.0,0.0,0.0,0.0,0.0,0.0,0.0,0.0,0.0,0.0,0.0,0.0,0.0,0.0,0.0,0.0,0.0,0.0,0.0,0.0,0.0,0.0,0.0,0.0,0.0,0.0,-2.3319,-2.4588,-2.5853,-2.5912,-2.4849,-2.5864,-2.5615,0.0,0.0,0.0,0.0,0.0,0.0,0.0,0.0,0.0,0.0,0.0,0.0,0.0,0.0,0.0,0.0,0.0,0.0,0.0,0.0,0.0,0.0,0.0,0.0,0.0,0.0,0.0,0.0,0.0,0.0,0.0,0.0,0.0,0.0,0.0,0.0,0.0,0.0,0.0,0.0,0.0,0.0,0.0,0.0,0.0,0.0,0.0,0.0,0.0,0.0,0.0,0.0,0.0,0.0,0.0,0.0,0.0,0.0,0.0,0.0,0.0,0.0,0.0,0.0,0.0,0.0,0.0,0.0,0.0,0.0,0.0,0.0,0.0,0.0,0.0,0.0,0.0,0.0,0.0,0.0,0.0,0.0,0.0,0.0,0.0,0.0,0.0,0.0,0.0,0.0,0.0,0.0,0.0,0.0,0.0,0.0,0.0,0.0,0.0,0.0,0.0,0.0,0.0,0.0,0.0,0.0,0.0,0.0,0.0,-2.2697,-2.4328,-2.5252,-2.5319,-2.5252,-2.4956,0.0,0.0,0.0,0.0,0.0,0.0,0.0,0.0,0.0,0.0,0.0,0.0,0.0,0.0,0.0,0.0,0.0,0.0,0.0,0.0,0.0,0.0,0.0,0.0,0.0,0.0,0.0,0.0,0.0,0.0,0.0,0.0,0.0,0.0,0.0,0.0,0.0,0.0,0.0,0.0,0.0,0.0,0.0,0.0,0.0,0.0,0.0,0.0,0.0,0.0,0.0,0.0,0.0,0.0,0.0,0.0,0.0,0.0,0.0,0.0,0.0,0.0,0.0,0.0,0.0,0.0,0.0,0.0,0.0,0.0,0.0,0.0,0.0,0.0,0.0,0.0,0.0,0.0,0.0,0.0,0.0,0.0,0.0,0.0,0.0,0.0,0.0,0.0,0.0,0.0,0.0,0.0,0.0,0.0,0.0,0.0,0.0,0.0,0.0,0.0,0.0,0.0,0.0,0.0,0.0,0.0,0.0,0.0,0.0,-2.4448,-2.6183,-2.7009,-2.6614,-2.6564,-2.6004,-2.497,0.0,0.0,0.0,0.0,0.0,0.0,0.0,0.0,0.0,0.0,0.0,0.0,0.0,0.0,0.0,0.0,0.0,0.0,0.0,0.0,0.0,0.0,0.0,0.0,0.0,0.0,0.0,0.0,0.0,0.0,0.0,0.0,0.0,0.0,0.0,0.0,0.0,0.0,0.0,0.0,0.0,0.0,0.0,0.0,0.0,0.0,0.0,0.0,0.0,0.0,0.0,0.0,0.0,0.0,0.0,0.0,0.0,0.0,0.0,0.0,0.0,0.0,0.0,0.0,0.0,0.0,0.0,0.0,0.0,0.0,0.0,0.0,0.0,0.0,0.0,0.0,0.0,0.0,0.0,0.0,0.0,0.0,0.0,0.0,0.0,0.0,0.0,0.0,0.0,0.0,0.0,0.0,0.0,0.0,0.0,0.0,0.0,0.0,0.0,0.0,0.0,0.0,0.0,0.0,0.0,0.0,0.0,0.0,-2.8717,-3.0708,-3.0749,-2.875,-2.9195,-2.8368,0.0,0.0,0.0,0.0,0.0,0.0,0.0,0.0,0.0,0.0,0.0,0.0,0.0,0.0,0.0,0.0,0.0,0.0,0.0,0.0,0.0,0.0,0.0,0.0,0.0,0.0,0.0,0.0,0.0,0.0,0.0,0.0,0.0,0.0,0.0,0.0,0.0,0.0,0.0,0.0,0.0,0.0,0.0,0.0,0.0,0.0,0.0,0.0,0.0,0.0,0.0,0.0,0.0,0.0,0.0,0.0,0.0,0.0,0.0,0.0,0.0,0.0,0.0,0.0,0.0,0.0,0.0,0.0,0.0,0.0,0.0,0.0,0.0,0.0,0.0,0.0,0.0,0.0,0.0,0.0,0.0,0.0,0.0,0.0,0.0,0.0,0.0,0.0,0.0,0.0,0.0,0.0,0.0,0.0,0.0,0.0,0.0,0.0,0.0,0.0,0.0,0.0,0.0,0.0,0.0,0.0,0.0,0.0,0.0,-3.0375,-3.3396,-3.382,-3.1514,-2.9788,-2.8757,0.0,0.0,0.0,0.0,0.0,0.0,0.0,0.0,0.0,0.0,0.0,0.0,0.0,0.0,0.0,0.0,0.0,0.0,0.0,0.0,0.0,0.0,0.0,0.0,0.0,0.0,0.0,0.0,0.0,0.0,0.0,0.0,0.0,0.0,0.0,0.0,0.0,0.0,0.0,0.0,0.0,0.0,0.0,0.0,0.0,0.0,0.0,0.0,0.0,0.0,0.0,0.0,0.0,0.0,0.0,0.0,0.0,0.0,0.0,0.0,0.0,0.0,0.0,0.0,0.0,0.0,0.0,0.0,0.0,0.0,0.0,0.0,0.0,0.0,0.0,0.0,0.0,0.0,0.0,0.0,0.0,0.0,0.0,0.0,0.0,0.0,0.0,0.0,0.0,0.0,0.0,0.0,0.0,0.0,0.0,0.0,0.0,0.0,0.0,0.0,0.0,0.0,0.0,0.0,0.0,0.0,0.0,0.0,-3.0151,-3.2881,-3.5623,-3.6482,-3.5459,-3.2617,-3.0582,0.0,0.0,0.0,0.0,0.0,0.0,0.0,0.0,0.0,0.0,0.0,0.0,0.0,0.0,0.0,0.0,0.0,0.0,0.0,0.0,0.0,0.0,0.0,0.0,0.0,0.0,0.0,0.0,0.0,0.0,0.0,0.0,0.0,0.0,0.0,0.0,0.0,0.0,0.0,0.0,0.0,0.0,0.0,0.0,0.0,0.0,0.0,0.0,0.0,0.0,0.0,0.0,0.0,0.0,0.0,0.0,0.0,0.0,0.0,0.0,0.0,0.0,0.0,0.0,0.0,0.0,0.0,0.0,0.0,0.0,0.0,0.0,0.0,0.0,0.0,0.0,0.0,0.0,0.0,0.0,0.0,0.0,0.0,0.0,0.0,0.0,0.0,0.0,0.0,0.0,0.0,0.0,0.0,0.0,0.0,0.0,0.0,0.0,0.0,0.0,0.0,0.0,0.0,0.0,0.0,0.0,0.0,0.0,-3.3223,-3.5568,-3.7243,-3.8397,-3.9175,-3.6081,-3.2976,0.0,0.0,0.0,0.0,0.0,0.0,0.0,0.0,0.0,0.0,0.0,0.0,0.0,0.0,0.0,0.0,0.0,0.0,0.0,0.0,0.0,0.0,0.0,0.0,0.0,0.0,0.0,0.0,0.0,0.0,0.0,0.0,0.0,0.0,0.0,0.0,0.0,0.0,0.0,0.0,0.0,0.0,0.0,0.0,0.0,0.0,0.0,0.0,0.0,0.0,0.0,0.0,0.0,0.0,0.0,0.0,0.0,0.0,0.0,0.0,0.0,0.0,0.0,0.0,0.0,0.0,0.0,0.0,0.0,0.0,0.0,0.0,0.0,0.0,0.0,0.0,0.0,0.0,0.0,0.0,0.0,0.0,0.0,0.0,0.0,0.0,0.0,0.0,0.0,0.0,0.0,0.0,0.0,0.0,0.0,0.0,0.0,0.0,0.0,0.0,0.0,0.0,0.0,0.0,0.0,0.0,0.0,0.0,-3.2312,-3.5933,-3.6814,-3.7615,-3.8427,-3.537,-3.3125,0.0,0.0,0.0,0.0,0.0,0.0,0.0,0.0,0.0,0.0,0.0,0.0,0.0,0.0,0.0,0.0,0.0,0.0,0.0,0.0,0.0,0.0,0.0,0.0,0.0,0.0,0.0,0.0,0.0,0.0,0.0,0.0,0.0,0.0,0.0,0.0,0.0,0.0,0.0,0.0,0.0,0.0,0.0,0.0,0.0,0.0,0.0,0.0,-3.3657,0.0,0.0,0.0,0.0,0.0,0.0,0.0,0.0,0.0,0.0,0.0,0.0,0.0,0.0,0.0,0.0,0.0,0.0,0.0,0.0,0.0,0.0,0.0,0.0,0.0,0.0,0.0,0.0,0.0,0.0,0.0,0.0,0.0,0.0,0.0,0.0,0.0,0.0,0.0,0.0,0.0,0.0,0.0,0.0,0.0,0.0,0.0,0.0,0.0,0.0,0.0,0.0,0.0,0.0,0.0,0.0,0.0,0.0,0.0,-3.326,-3.6553,-3.7579,-3.8323,-3.8635,-3.6544,-3.4292,0.0,0.0,0.0,0.0,0.0,0.0,0.0,0.0,0.0,0.0,0.0,0.0,0.0,0.0,0.0,0.0,0.0,0.0,0.0,0.0,0.0,0.0,0.0,0.0,0.0,0.0,0.0,0.0,0.0,0.0,0.0,0.0,0.0,0.0,0.0,0.0,0.0,0.0,0.0,0.0,0.0,0.0,0.0,0.0,0.0,0.0,0.0,0.0,0.0,0.0,0.0,0.0,0.0,0.0,0.0,0.0,0.0,0.0,0.0,0.0,0.0,0.0,0.0,0.0,0.0,0.0,0.0,0.0,0.0,0.0,0.0,0.0,0.0,0.0,0.0,0.0,0.0,0.0,0.0,0.0,0.0,0.0,0.0,0.0,0.0,0.0,0.0,0.0,0.0,0.0,0.0,0.0,0.0,0.0,0.0,0.0,0.0,0.0,0.0,0.0,0.0,0.0,0.0,0.0,0.0,0.0,0.0,-3.1664,-3.4877,-3.7664,-3.8924,-3.9563,-3.9709,-3.8332,-3.5699,-3.1869,0.0,0.0,0.0,0.0,0.0,0.0,0.0,0.0,0.0,0.0,0.0,0.0,0.0,0.0,0.0,0.0,0.0,0.0,0.0,0.0,0.0,0.0,0.0,0.0,0.0,0.0,0.0,0.0,0.0,0.0,0.0,0.0,0.0,0.0,0.0,0.0,0.0,0.0,-3.0243,-3.1133,0.0,0.0,0.0,0.0,0.0,0.0,0.0,0.0,-3.398,0.0,0.0,0.0,0.0,0.0,0.0,0.0,0.0,0.0,0.0,0.0,0.0,0.0,0.0,0.0,0.0,0.0,0.0,0.0,0.0,0.0,0.0,0.0,0.0,0.0,0.0,0.0,0.0,0.0,0.0,0.0,0.0,0.0,0.0,0.0,0.0,0.0,0.0,0.0,0.0,0.0,0.0,0.0,0.0,0.0,0.0,0.0,0.0,0.0,0.0,0.0,0.0,0.0,0.0,0.0,0.0,-3.2408,-3.2976,-3.5654,-4.0532,-4.0194,-4.0312,-4.0995,-3.923,-3.6387,-3.2557,0.0,0.0,0.0,0.0,0.0,0.0,0.0,0.0,0.0,0.0,0.0,0.0,0.0,0.0,0.0,0.0,0.0,0.0,0.0,0.0,0.0,0.0,0.0,0.0,0.0,0.0,0.0,0.0,0.0,0.0,0.0,0.0,0.0,0.0,0.0,0.0,0.0,0.0,0.0,-3.3259,-3.321,0.0,0.0,0.0,0.0,0.0,0.0,0.0,0.0,-3.471,0.0,0.0,0.0,0.0,0.0,0.0,0.0,0.0,0.0,0.0,0.0,0.0,0.0,0.0,0.0,0.0,0.0,0.0,0.0,0.0,0.0,0.0,0.0,0.0,0.0,0.0,0.0,0.0,0.0,0.0,0.0,0.0,0.0,0.0,0.0,0.0,0.0,0.0,0.0,0.0,0.0,0.0,0.0,0.0,0.0,0.0,0.0,0.0,0.0,0.0,0.0,0.0,0.0,0.0,0.0,-3.2199,-3.4971,-3.7997,-4.1113,-4.0973,-4.0973,-4.1354,-3.9798,-3.6896,0.0,0.0,0.0,0.0,0.0,0.0,0.0,0.0,0.0,0.0,0.0,0.0,0.0,0.0,0.0,0.0,0.0,0.0,0.0,0.0,0.0,0.0,0.0,0.0,0.0,0.0,0.0,0.0,0.0,0.0,0.0,0.0,0.0,0.0,0.0,0.0,0.0,0.0,0.0,0.0,-3.4465,-3.5013,-3.6454,0.0,0.0,0.0,0.0,0.0,0.0,-3.5027,-3.4458,0.0,0.0,0.0,0.0,0.0,0.0,0.0,0.0,0.0,0.0,0.0,0.0,0.0,0.0,0.0,0.0,0.0,0.0,0.0,0.0,0.0,0.0,0.0,0.0,0.0,0.0,0.0,0.0,0.0,0.0,0.0,0.0,0.0,0.0,0.0,0.0,0.0,0.0,0.0,0.0,0.0,0.0,0.0,0.0,0.0,0.0,0.0,0.0,0.0,0.0,0.0,0.0,0.0,0.0,0.0,-3.1545,-3.6589,-3.9994,-4.1454,-4.1697,-4.1773,-4.1743,-4.0127,-3.7165,0.0,0.0,0.0,0.0,0.0,0.0,0.0,0.0,0.0,0.0,0.0,0.0,0.0,0.0,0.0,0.0,0.0,0.0,0.0,0.0,0.0,0.0,0.0,0.0,0.0,0.0,0.0,0.0,0.0,0.0,0.0,0.0,0.0,0.0,0.0,0.0,0.0,0.0,0.0,0.0,0.0,-3.6533,-3.8051,-3.6846,0.0,0.0,0.0,0.0,-3.5912,-3.5506,0.0,0.0,0.0,0.0,0.0,0.0,0.0,0.0,0.0,0.0,0.0,0.0,0.0,0.0,0.0,0.0,0.0,0.0,0.0,0.0,0.0,0.0,0.0,0.0,0.0,0.0,0.0,0.0,0.0,0.0,0.0,0.0,0.0,0.0,0.0,0.0,0.0,0.0,0.0,0.0,0.0,0.0,0.0,0.0,0.0,0.0,0.0,0.0,0.0,0.0,0.0,0.0,0.0,0.0,0.0,0.0,-3.2318,-3.6417,-4.0008,-4.2862,-4.3041,-4.312,-4.306,-4.0127,-3.6896,0.0,0.0,0.0,0.0,0.0,0.0,0.0,0.0,0.0,0.0,0.0,0.0,0.0,0.0,0.0,0.0,0.0,0.0,0.0,0.0,0.0,0.0,0.0,0.0,0.0,0.0,0.0,0.0,0.0,0.0,0.0,0.0,0.0,0.0,0.0,0.0,0.0,0.0,0.0,0.0,0.0,-3.6605,-3.7899,-3.6389,-3.5156,0.0,0.0,-3.7654,-3.7892,-3.9305,0.0,0.0,0.0,0.0,0.0,0.0,0.0,0.0,0.0,0.0,0.0,0.0,0.0,0.0,0.0,0.0,0.0,0.0,0.0,0.0,0.0,0.0,0.0,0.0,0.0,0.0,0.0,0.0,0.0,0.0,0.0,0.0,0.0,0.0,0.0,0.0,0.0,0.0,0.0,0.0,0.0,0.0,0.0,0.0,0.0,0.0,0.0,0.0,0.0,0.0,0.0,0.0,0.0,0.0,0.0,-3.0612,-3.3155,-3.8422,-4.1893,-4.3269,-4.3329,-4.3329,-4.3329,-4.0487,-3.7255,0.0,0.0,0.0,0.0,0.0,0.0,0.0,0.0,0.0,0.0,0.0,0.0,0.0,0.0,0.0,0.0,0.0,0.0,0.0,0.0,0.0,0.0,0.0,0.0,0.0,0.0,0.0,0.0,0.0,0.0,0.0,0.0,0.0,0.0,0.0,0.0,0.0,0.0,0.0,0.0,0.0,0.0,-3.8867,-3.8056,0.0,0.0,0.0,-3.8292,-3.691,0.0,0.0,0.0,0.0,0.0,0.0,0.0,0.0,0.0,0.0,0.0,0.0,0.0,0.0,0.0,0.0,0.0,0.0,0.0,0.0,0.0,0.0,0.0,0.0,0.0,0.0,0.0,0.0,0.0,0.0,0.0,0.0,0.0,0.0,0.0,0.0,0.0,0.0,0.0,0.0,0.0,0.0,0.0,0.0,0.0,0.0,0.0,0.0,0.0,0.0,0.0,0.0,0.0,0.0,0.0,0.0,0.0,-3.3574,-3.9978,-4.3329,-4.3329,-4.3329,-4.3329,-4.3299,-4.1115,0.0,0.0,0.0,0.0,0.0,0.0,0.0,0.0,0.0,0.0,0.0,0.0,0.0,0.0,0.0,0.0,0.0,0.0,0.0,0.0,0.0,0.0,0.0,0.0,0.0,0.0,0.0,-2.5473,0.0,0.0,0.0,0.0,0.0,0.0,0.0,0.0,0.0,0.0,0.0,0.0,0.0,0.0,-3.9841,-3.9565,-3.9425,-3.9443,0.0,0.0,-3.875,-3.7203,-3.9886,-4.0751,0.0,0.0,0.0,0.0,0.0,0.0,0.0,0.0,0.0,0.0,0.0,0.0,0.0,0.0,0.0,0.0,0.0,0.0,0.0,0.0,0.0,0.0,0.0,0.0,0.0,0.0,0.0,0.0,0.0,0.0,0.0,0.0,0.0,0.0,0.0,0.0,0.0,0.0,0.0,0.0,0.0,0.0,0.0,0.0,0.0,0.0,0.0,0.0,0.0,0.0,0.0,0.0,0.0,0.0,0.0,-3.3664,-3.9978,-4.3329,-4.3329,-4.3329,-4.3329,-4.3329,-4.1983,-3.8811,0.0,0.0,0.0,0.0,0.0,0.0,0.0,0.0,0.0,0.0,0.0,0.0,0.0,0.0,0.0,0.0,0.0,0.0,0.0,0.0,0.0,0.0,0.0,0.0,0.0,0.0,0.0,0.0,0.0,0.0,0.0,0.0,0.0,0.0,0.0,0.0,0.0,0.0,0.0,0.0,0.0,-3.9245,-3.9333,-3.929,-3.9756,0.0,0.0,-3.9695,-4.0845,-4.2833,-4.2376,-3.6843,0.0,0.0,0.0,0.0,0.0,0.0,0.0,0.0,0.0,0.0,0.0,0.0,0.0,0.0,0.0,0.0,0.0,0.0,0.0,0.0,0.0,0.0,0.0,0.0,0.0,0.0,0.0,0.0,0.0,0.0,0.0,0.0,0.0,0.0,0.0,0.0,0.0,0.0,0.0,0.0,0.0,0.0,0.0,0.0,0.0,0.0,0.0,0.0,0.0,0.0,0.0,0.0,0.0,-3.2168,-3.3544,-3.9978,-4.3329,-4.3329,-4.3329,-4.3329,-4.3329,-4.2073,-3.9469,0.0,0.0,0.0,0.0,0.0,0.0,0.0,0.0,0.0,0.0,0.0,0.0,0.0,0.0,0.0,0.0,0.0,0.0,0.0,0.0,0.0,0.0,0.0,0.0,0.0,0.0,0.0,0.0,-3.2531,-3.316,-3.2365,0.0,0.0,0.0,0.0,0.0,0.0,0.0,0.0,0.0,0.0,-4.0245,-4.1155,-4.1238,0.0,0.0,-4.2365,-4.1903,-4.1527,-4.2862,-4.2706,-3.9145,-3.8861,0.0,0.0,0.0,0.0,0.0,0.0,0.0,0.0,0.0,0.0,0.0,0.0,0.0,0.0,0.0,0.0,0.0,0.0,0.0,0.0,0.0,0.0,0.0,0.0,0.0,0.0,0.0,0.0,0.0,0.0,0.0,0.0,0.0,0.0,0.0,0.0,0.0,0.0,0.0,0.0,0.0,0.0,0.0,0.0,0.0,0.0,0.0,0.0,0.0,0.0,0.0,0.0,-3.2287,-3.3814,-4.0098,-4.3329,-4.3329,-4.3329,-4.3329,-4.3299,-4.2432,-4.0427,0.0,0.0,0.0,0.0,0.0,0.0,0.0,0.0,0.0,0.0,0.0,0.0,0.0,0.0,0.0,0.0,0.0,0.0,0.0,0.0,0.0,0.0,0.0,0.0,0.0,0.0,0.0,0.0,-3.359,-3.4013,-3.2829,0.0,0.0,0.0,0.0,0.0,0.0,0.0,0.0,0.0,0.0,-4.1264,-4.2088,-4.2355,-4.2802,-4.3548,-4.311,-4.2509,-4.1838,-4.242,-4.2299,-4.0511,0.0,0.0,0.0,0.0,0.0,0.0,0.0,0.0,0.0,0.0,0.0,0.0,0.0,0.0,0.0,0.0,0.0,0.0,0.0,0.0,0.0,0.0,0.0,0.0,0.0,0.0,0.0,0.0,0.0,0.0,-1.7199,0.0,0.0,0.0,0.0,0.0,0.0,0.0,0.0,0.0,0.0,0.0,0.0,0.0,0.0,0.0,0.0,0.0,0.0,0.0,0.0,0.0,0.0,-3.2497,-3.4472,-4.0307,-4.3329,-4.3329,-4.3329,-4.3359,-4.3359,-4.3299,-4.1743,-3.8422,0.0,0.0,0.0,0.0,0.0,0.0,0.0,0.0,0.0,0.0,0.0,0.0,0.0,0.0,0.0,0.0,0.0,0.0,0.0,0.0,0.0,0.0,0.0,0.0,0.0,0.0,-2.7106,-2.9265,-3.1511,0.0,0.0,0.0,0.0,0.0,0.0,0.0,0.0,0.0,0.0,-4.0132,-4.2097,-4.1533,-4.216,-4.2884,-4.3516,-4.1936,-4.0986,-4.228,-4.1821,-4.104,0.0,0.0,0.0,0.0,0.0,0.0,0.0,0.0,0.0,0.0,0.0,0.0,0.0,0.0,0.0,0.0,0.0,0.0,0.0,0.0,0.0,0.0,0.0,0.0,0.0,0.0,0.0,-2.0963,-2.0126,0.0,0.0,0.0,0.0,0.0,0.0,0.0,0.0,0.0,0.0,0.0,-2.8509,-2.9399,0.0,0.0,0.0,0.0,0.0,0.0,0.0,0.0,0.0,0.0,0.0,0.0,-3.2946,-3.4651,-4.0337,-4.3329,-4.3359,-4.3748,-4.3988,-4.3988,-4.4407,-4.288,-3.92,0.0,0.0,0.0,0.0,0.0,0.0,0.0,0.0,0.0,0.0,0.0,0.0,0.0,0.0,0.0,0.0,0.0,0.0,0.0,0.0,0.0,0.0,0.0,0.0,0.0,-2.9996,0.0,0.0,0.0,0.0,0.0,0.0,0.0,0.0,0.0,0.0,0.0,-3.8039,-3.9774,-4.1023,-4.2189,-4.3345,-4.3741,-4.4524,0.0,0.0,0.0,0.0,0.0,0.0,0.0,0.0,0.0,0.0,0.0,0.0,0.0,0.0,-3.8674,-3.4822,-3.4897,-3.5857,-3.6885,0.0,0.0,0.0,0.0,0.0,0.0,0.0,0.0,0.0,0.0,0.0,0.0,0.0,0.0,0.0,0.0,-2.3812,0.0,0.0,0.0,0.0,0.0,0.0,0.0,0.0,-2.9627,-3.1594,-3.2526,-3.3587,-3.3844,0.0,-3.2918,-3.0997,0.0,0.0,0.0,0.0,0.0,0.0,0.0,0.0,-3.3484,-3.5609,-4.0905,-4.3658,-4.3688,-4.4317,-4.4646,-4.4676,-4.5065,-4.4077,-4.1534,-3.9529,-3.7165,0.0,0.0,0.0,0.0,0.0,0.0,0.0,0.0,0.0,0.0,0.0,0.0,0.0,0.0,0.0,0.0,0.0,0.0,0.0,0.0,0.0,0.0,0.0,-3.0893,0.0,0.0,0.0,0.0,0.0,0.0,0.0,0.0,0.0,-3.7548,-3.903,-4.0703,-4.2267,-4.2975,-4.3645,-4.4461,0.0,0.0,0.0,0.0,0.0,0.0,0.0,-4.3399,-4.4877,-4.4297,-4.4107,-4.5227,-4.5469,-4.5304,-4.4805,0.0,0.0,-3.9642,-3.936,-4.0326,-4.1303,-4.1797,-4.2028,-4.2122,-4.2294,-4.2363,0.0,0.0,0.0,0.0,0.0,0.0,0.0,0.0,-2.8543,-2.7602,0.0,-2.721,0.0,0.0,0.0,0.0,0.0,-2.7392,0.0,0.0,-3.6407,-3.8592,-3.7699,-3.8475,-3.8968,-3.8936,-3.7289,-3.6184,-3.5398,-3.3114,0.0,0.0,0.0,0.0,0.0,0.0,-3.4262,-3.7524,-4.2013,-4.4347,-4.4347,-4.5005,-4.5334,-4.5364,-4.5394,-4.5364,-4.5214,-4.2312,-4.0277,-3.9409,-3.3993,0.0,0.0,0.0,0.0,0.0,0.0,0.0,0.0,0.0,0.0,0.0,0.0,0.0,0.0,0.0,0.0,0.0,0.0,0.0,0.0,-3.2044,0.0,0.0,0.0,0.0,0.0,0.0,0.0,0.0,0.0,0.0,-4.0657,-4.2304,-4.3881,-4.4496,0.0,0.0,0.0,0.0,-4.7504,-4.6212,-4.5351,-4.4953,-4.5086,-4.557,-4.6377,-4.7767,0.0,0.0,-4.9228,-4.919,-4.9011,-4.8464,-5.0528,-5.073,-4.5383,-4.3912,-4.3781,-4.5049,-4.4366,-4.3685,-4.4854,-4.5139,-4.4805,-3.0334,0.0,0.0,0.0,0.0,-2.8533,-2.9791,-3.2277,-3.2149,-3.1339,-3.0163,-3.0869,0.0,0.0,0.0,0.0,0.0,0.0,-3.1294,-3.385,-3.5873,-3.8145,-4.0656,-4.1015,-4.1453,-4.1989,-4.201,-4.1932,-4.1733,-4.1517,-3.6836,-2.8188,0.0,0.0,0.0,0.0,-3.7165,-3.9589,-4.315,-4.5005,-4.5005,-4.5693,-4.6262,-4.6711,-4.6711,-4.6741,-4.6711,-4.5813,-4.3928,-4.0965,-3.92,0.0,0.0,0.0,0.0,0.0,0.0,0.0,0.0,0.0,0.0,0.0,0.0,0.0,0.0,0.0,0.0,0.0,0.0,0.0,-2.9622,-3.2549,-3.3091,0.0,0.0,0.0,0.0,0.0,0.0,0.0,0.0,0.0,-4.492,-4.4134,-4.3847,0.0,0.0,-4.5137,-4.471,-4.6581,-4.8233,-4.8862,0.0,0.0,0.0,-4.975,-4.9615,-5.1487,-5.2107,-5.2288,-5.2179,-5.2085,-5.2411,-5.3264,-5.4113,-5.4245,-5.3362,-5.198,-5.1262,-5.1592,-5.1361,-5.1229,-5.1592,-5.1546,-5.1408,-3.5143,-3.3114,-3.1203,-3.1176,-3.2292,-3.2123,-3.3434,-3.5574,-3.5743,-3.4914,-3.3587,-3.4397,-3.2935,-2.9731,-2.9659,0.0,0.0,0.0,-3.4426,-3.7206,-3.8224,-3.9978,-4.2324,-4.306,-4.3589,-4.4107,-4.4257,-4.4466,-4.4706,-4.4317,-4.0636,-3.3903,0.0,0.0,-3.3185,-3.6746,-3.9589,-4.1594,-4.4287,-4.5693,-4.5723,-4.6621,-4.7309,-4.7668,-4.7698,-4.7578,-4.7309,-4.7309,-4.6202,-4.3838,-4.2462,-4.0397,0.0,0.0,0.0,0.0,0.0,0.0,0.0,0.0,0.0,0.0,0.0,-3.124,-2.9654,0.0,0.0,0.0,-3.2736,-3.2138,-3.2826,-3.4871,0.0,0.0,0.0,0.0,0.0,0.0,0.0,-4.3734,-4.5715,-4.7206,-4.8067,-4.7013,-4.6487,-4.7207,-4.7537,-4.7636,-4.7338,0.0,-5.0386,-5.0982,-5.1313,-5.1943,-5.3202,-5.3069,-5.34,-5.5289,-5.5534,-5.5542,-5.5567,-5.5566,-5.5804,-5.6624,-5.6912,-5.7044,-5.7475,-5.6846,-5.5918,-5.5123,-5.4725,-5.4527,-5.4527,-5.4527,-5.4527,-3.9292,-3.8797,-3.4281,-3.3614,-3.5546,-3.6251,-3.7229,-3.8432,-3.9033,-3.8263,-3.6595,-3.7674,-3.6556,-3.3861,-3.3691,0.0,-3.6835,-3.7353,-3.8742,-4.0943,-4.2393,-4.3105,-4.3219,-4.4674,-4.5274,-4.5274,-4.4736,-4.4796,-4.5274,-4.3658,-4.2402,-4.1683,-4.1085,-4.0068,-3.8781,-4.0008,-4.1654,-4.3539,-4.5454,-4.6411,-4.6411,-4.7578,-4.8207,-4.8177,-4.8207,-4.7908,-4.7339,-4.7309,-4.7309,-4.7219,-4.4377,-4.2432,-4.1624,0.0,0.0,0.0,0.0,0.0,0.0,0.0,0.0,0.0,0.0,0.0,0.0,0.0,0.0,0.0,-3.8153,0.0,-3.9619,-3.8478,0.0,0.0,0.0,-3.8106,-4.0864,-4.3816,-4.6258,-4.7968,0.0,0.0,-5.0386,0.0,-5.075,-5.1512,-5.2009,-5.2042,-5.138,-5.2473,-5.3367,-5.2771,-5.3367,-5.3864,-5.4262,-5.562,-5.7177,-5.8469,-5.8999,-5.8833,-5.8701,-5.8701,-5.8833,-5.8899,-5.8966,-5.8999,-5.9032,-5.8966,-5.8369,-5.6415,-5.5487,-5.4957,-5.509,-5.509,-5.5156,-4.0055,-4.1112,-3.9256,-3.8699,-3.9084,-3.8827,-3.9501,-4.0518,-4.0346,-4.0006,-3.9585,-3.9861,-3.9867,-3.9564,-3.9534,-4.0097,-4.1113,-4.1254,-4.1967,-4.3113,-4.3544,-4.4057,-4.4787,-4.5132,-4.5274,-4.5304,-4.5663,-4.5933,-4.6082,-4.6112,-4.5544,-4.4407,-4.4197,-4.297,-4.0816,-4.2491,-4.4137,-4.5603,-4.6561,-4.707,-4.707,-4.7399,-4.7549,-4.7549,-4.7549,-4.7459,-4.7309,-4.7309,-4.7309,-4.7309,-4.6561,-4.5574,-4.4377,-3.923,0.0,0.0,0.0,0.0,0.0,0.0,0.0,0.0,0.0,-3.4233,-3.121,0.0,-3.4771,0.0,-4.2641,-4.4227,-4.1893,-4.2209,0.0,0.0,-4.1775,-4.3015,-4.5665,-4.8264,-4.9752,-4.969,-5.0949,-5.1877,-5.1877,-5.234,-5.3135,-5.4361,-5.2837,-5.1479,-5.1347,-5.35,-5.5057,-5.5024,-5.6349,-5.7574,-5.7574,-5.8469,-5.9297,-5.9694,-5.9728,-5.9562,-5.8999,-5.8899,-5.9065,-5.9595,-5.9728,-5.9926,-6.0423,-6.0158,-5.9628,-5.9032,-5.8369,-5.7839,-5.7839,-5.7806,-5.7839,-4.1568,-4.244,-4.2195,-4.231,-4.2422,-4.1539,-4.1453,-4.1851,-4.1851,-4.1739,-4.1651,-4.1938,-4.2396,-4.2797,-4.3055,-4.3544,-4.3978,-4.3892,-4.4064,-4.449,-4.487,-4.5302,-4.5753,-4.6052,-4.6202,-4.6202,-4.6591,-4.677,-4.677,-4.713,-4.692,-4.6202,-4.6202,-4.5454,-4.4077,-4.3928,-4.4107,-4.4556,-4.5783,-4.683,-4.7698,-4.7758,-4.7339,-4.6471,-4.698,-4.6741,-4.5574,-4.5813,-4.5843,-4.5544,-4.5274,-4.4915,-4.4377,-4.0786,-3.8721,0.0,0.0,0.0,0.0,0.0,0.0,0.0,0.0,0.0,0.0,0.0,-3.8093,-3.9738,-4.4377,-4.6221,-4.3654,-4.4564,-4.5453,-4.5741,-4.6582,-4.8006,-5.0429,-5.2137,-5.3202,-5.3102,-5.3798,-5.4295,-5.4328,-5.4924,-5.5653,-5.6481,-5.5487,-5.456,-5.4328,-5.562,-5.668,-5.7077,-5.8369,-5.9529,-5.9827,-6.0225,-6.049,-6.049,-6.049,-6.0324,-5.996,-5.9893,-6.0026,-6.039,-6.049,-6.0622,-6.0986,-6.0821,-6.0523,-6.0456,-6.0158,-5.9661,-5.9032,-5.8899,-5.8899,-4.3219,-4.3529,-4.4001,-4.4659,-4.532,-4.4047,-4.3271,-4.3076,-4.3441,-4.3481,-4.3372,-4.392,-4.435,-4.4663,-4.5144,-4.5567,-4.5906,-4.5657,-4.5544,-4.5603,-4.6172,-4.6441,-4.6471,-4.704,-4.7309,-4.7309,-4.7309,-4.7309,-4.7309,-4.7309,-4.7279,-4.7189,-4.7189,-4.71,-4.683,-4.4706,-4.3419,-4.315,-4.4466,-4.6052,-4.7848,-4.7758,-4.683,-4.5214,-4.6352,-4.5963,-4.3748,-4.4137,-4.4167,-4.3599,-4.303,-4.312,-4.3868,-4.2491,-4.1265,0.0,-3.8811,0.0,0.0,0.0,0.0,0.0,0.0,0.0,0.0,-4.2827,-4.2604,-4.161,-4.5281,-4.7213,-4.5974,-4.6841,-4.8226,-5.0264,-5.1315,-5.2584,-5.4388,-5.539,-5.6183,-5.6879,-5.6978,-5.6978,-5.6945,-5.7541,-5.7939,-5.7906,-5.8237,-5.8237,-5.8104,-5.8005,-5.827,-5.8966,-5.9661,-6.0324,-6.0854,-6.1053,-6.1053,-6.1086,-6.1053,-6.1119,-6.1053,-6.1053,-6.1086,-6.1086,-6.1053,-6.1086,-6.1119,-6.1119,-6.1086,-6.1053,-6.102,-6.0622,-5.9628,-5.9297,-5.9198,-4.465,-4.5829,-4.5267,-4.5574,-4.6333,-4.6058,-4.5707,-4.5341,-4.5423,-4.5484,-4.544,-4.5387,-4.5657,-4.6137,-4.6112,-4.6411,-4.7006,-4.692,-4.692,-4.692,-4.707,-4.713,-4.713,-4.7249,-4.7309,-4.7309,-4.7309,-4.7309,-4.7309,-4.7309,-4.704,-4.6531,-4.6501,-4.5963,-4.4945,0.0,0.0,0.0,-4.5394,-4.4945,-4.5783,-4.4825,-4.4107,-4.3778,-4.5005,0.0,-4.4975,-4.5035,-4.5035,-4.4915,-4.4825,0.0,0.0,0.0,0.0,0.0,0.0,0.0,0.0,0.0,0.0,0.0,-4.315,-4.2821,-4.2539,-4.5008,-4.6903,-4.7383,-4.8914,-5.0592,-5.2115,-5.1802,-5.1996,-5.307,-5.4017,-5.4924,-5.5945,-5.6836,-5.7674,-5.8369,-5.8469,-5.8469,-5.8436,-5.8601,-5.8668,-5.8701,-5.88,-5.9098,-5.9529,-5.9529,-5.9628,-5.9827,-6.039,-6.0887,-6.1086,-6.1119,-6.1119,-6.1119,-6.1119,-6.1152,-6.1185,-6.1185,-6.1152,-6.1069,-6.1119,-6.1152,-6.1152,-6.1119,-6.1218,-6.1119,-6.1152,-6.102,-6.0755,-6.0688,-6.0688,-4.6334,0.0,-4.6945,-4.7149,0.0,-4.7588,-4.7344,-4.6932,-4.6762,-4.6741,-4.6796,-4.6545,-4.6725,-4.7111,-4.6886,-4.7066,-4.7452,-4.7309,-4.7309,-4.7309,-4.7309,-4.7309,-4.7309,-4.7309,-4.7489,-4.7788,-4.7788,-4.7967,-4.8267,-4.8267,-4.8117,-4.7758,-4.7788,-4.7429,-4.68,-4.71,-4.7459,-4.7788,-4.6471,-4.6262,-4.7189,-4.6621,-4.5813,-4.4945,0.0,0.0,0.0,0.0,0.0,0.0,0.0,0.0,0.0,0.0,0.0,-4.7608,-4.6202,-4.5574,-4.6172,-4.6232,-4.695,-4.8536,-4.8686,-4.8109,-4.6589,-4.8714,-5.0683,-5.1941,-5.2502,-5.3593,-5.5464,-5.5248,-5.542,-5.6298,-5.6825,-5.7233,-5.7642,-5.8063,-5.8502,-5.88,-5.8899,-5.8899,-5.8899,-5.9231,-5.9429,-5.9463,-5.9761,-6.0125,-6.0423,-6.0225,-6.0092,-6.049,-6.0821,-6.1086,-6.1119,-6.1119,-6.1285,-6.1516,-6.1649,-6.1815,-6.2113,-6.2179,-6.1976,-6.1632,-6.1805,-6.2094,-6.1513,-6.1805,-6.2179,-6.2179,-6.2179,-6.2179,-6.2113,-6.1616,-6.1119,-4.7773,-4.7835,-4.8389,-4.8604,-4.8521,-4.8521,-4.8355,-4.8019,0.0,0.0,0.0,-4.7482,-4.7482,-4.7538,-4.7452,-4.7396,-4.7538,-4.7396,-4.7369,-4.7489,-4.7489,-4.7549,-4.7668,-4.7638,-4.7938,-4.8446,-4.8476,-4.8745,-4.9254,-4.9254,-4.9344,-4.9434,-4.9434,-4.9494,-4.9613,-4.9613,-4.9075,-4.8027,-4.7429,-4.7728,-4.8865,-4.8805,-4.7967,-4.6352,-4.8117,-4.8327,-4.677,-4.7608,-4.7878,-4.7339,-4.689,-4.707,-4.7938,-4.8117,-4.8805,-5.0182,-5.0331,-5.072,-5.1678,-5.1738,-5.2157,-5.3114,-5.3368,-5.2973,-5.1667,-5.2564,-5.3877,-5.5352,-5.5557,-5.6125,-5.7586,-5.7534,-5.7901,-5.8819,-5.8899,-5.8899,-5.9065,-5.9098,-5.9164,-5.9231,-5.9363,-5.9297,-5.9363,-5.9827,-6.0191,-6.0291,-6.0788,-6.1384,-6.1351,-6.0788,-6.0523,-6.1152,-6.1351,-6.1351,-6.1483,-6.1297,-6.1429,-6.1871,-6.1883,-6.2113,-6.2781,-6.2979,-6.2684,-6.2199,-6.2771,-6.2826,-6.2297,-6.2618,-6.3272,-6.3272,-6.3272,-6.3272,-6.3173,-6.2345,-6.1583,-4.8481,-4.8481,-4.8573,-4.8521,-4.8355,-4.8385,-4.8301,-4.8187,-4.7789,-4.7704,-4.7964,-4.788,-4.7794,-4.7624,-4.7538,-4.7482,-4.7309,-4.7309,-4.7608,0.0,-4.8147,-4.8446,-4.8985,-4.8985,-4.9045,-4.9105,-4.9134,-4.9164,-4.9254,-4.9284,-4.9553,-5.0032,-5.0092,-5.0361,-5.09,-5.093,-5.087,-5.0601,-4.7878,-4.683,-4.7549,-4.704,-4.6621,-4.6411,-4.7728,-4.8327,-4.8027,-4.7698,-4.7399,-4.7309,-4.7758,-4.8805,-5.0541,-5.1169,-5.2366,-5.4162,-5.4341,-5.4221,-5.3803,-5.3803,-5.3623,-5.3331,-5.4009,-5.4699,-5.5228,-5.5474,-5.5986,-5.6948,-5.7119,-5.7521,-5.8543,-5.805,-5.7999,-5.8771,-5.8933,-5.9164,-5.9679,-5.9811,-6.0125,-6.0655,-6.0821,-6.0788,-6.0821,-6.092,-6.102,-6.1086,-6.133,-6.2127,-6.2306,-6.1815,-6.1351,-6.1848,-6.2013,-6.2278,-6.2471,-6.2179,-6.167,-6.1743,-6.1106,-6.0985,-6.1977,-6.2133,-6.2191,-6.2837,-6.3024,-6.3111,-6.2903,-6.3186,-6.3198,-6.3231,-6.3264,-6.3231,-6.3231,-6.2967,-6.2974,-4.8552,-4.8604,-4.8438,-4.8355,-4.8301,-4.8049,-4.788,-4.791,-4.7929,-4.7955,-4.7995,-4.7739,-4.7568,-4.7482,-4.7842,-4.7935,-4.7848,-4.8207,-4.8536,-4.8805,-4.8805,-4.8985,-4.9254,-4.9254,-4.9434,-4.9763,-4.9793,-4.9972,-5.0301,-5.0331,-5.0481,-5.075,-5.078,-5.093,-5.1199,-5.1229,-5.1229,-5.1199,-4.9733,-4.9105,-4.9404,-4.9134,-4.8985,-4.8985,-4.9912,-5.0421,-5.0421,-5.0481,-5.0661,-5.102,-5.1349,-5.2067,-5.3294,-5.3653,-5.4251,-5.5119,-5.5209,-5.5059,-5.476,-5.473,-5.4879,-5.5007,-5.5007,-5.5363,-5.6249,-5.6652,-5.7388,-5.8623,-5.8855,-5.9185,-5.9944,-5.9161,-5.8787,-5.9245,-5.8787,-5.8831,-5.9651,-6.0161,-6.0745,-6.1565,-6.2047,-6.2278,-6.2278,-6.2278,-6.1989,-6.1557,-6.1377,-6.131,-6.1601,-6.1058,-6.0882,-6.1653,-6.1451,-6.1458,-6.2175,-6.1574,-6.1302,-6.2026,-6.1376,-6.1122,-6.1885,-6.2013,-6.1981,-6.1918,-6.2297,-6.2485,-6.2076,-6.2392,-6.2704,-6.2797,-6.2797,-6.2797,-6.2797,-6.3199,-6.3514,-4.8355,-4.8521,-4.8271,-4.8187,-4.8133,-4.789,-4.7779,-4.7839,-4.8325,-4.8471,-4.8278,-4.8019,-4.7815,-4.7788,-4.8385,-4.8595,-4.8566,-4.9015,-4.9344,-4.9494,-4.9494,-4.9553,-4.9703,-4.9703,-4.9972,-5.0421,-5.0451,-5.072,-5.1169,-5.1229,-5.1229,-5.1229,-5.1229,-5.1229,-5.1229,-5.1229,-5.1229,-5.1229,-5.1229,-5.1229,-5.1229,-5.1349,-5.1439,-5.1468,-5.1917,-5.2187,-5.2217,-5.2695,-5.3204,-5.3713,-5.4042,-5.4431,-5.494,-5.5119,-5.5209,-5.5209,-5.5209,-5.5269,-5.5388,-5.5418,-5.5852,-5.661,-5.6274,-5.6274,-5.7008,-5.7702,-5.8313,-5.9121,-5.9324,-5.9905,-6.0614,-6.0022,-5.9613,-5.9952,-5.9143,-5.9051,-5.996,-6.0591,-6.1215,-6.2015,-6.2649,-6.2859,-6.2684,-6.2595,-6.224,-6.152,-6.0836,-6.0391,-6.0517,-6.0483,-6.0676,-6.1027,-6.0868,-6.0868,-6.1559,-6.1027,-6.0961,-6.2204,-6.14,-6.1095,-6.154,-6.1927,-6.1859,-6.1364,-6.1828,-6.2063,-6.1356,-6.1728,-6.239,-6.2715,-6.2619,-6.239,-6.2844,-6.3638,-6.4028,-4.8301,-4.8301,-4.8164,-4.788,-4.7744,-4.8113,-4.8353,-4.8531,-4.8984,-4.9344,-4.9402,-4.9432,-4.9224,-4.9194,-4.9403,-4.9344,-4.9164,-4.9254,-4.9613,-5.0122,-5.0152,-5.0451,-5.096,-5.102,-5.1079,-5.1109,-5.1109,-5.1109,-5.1229,-5.1229,-5.1229,-5.1229,-5.1229,-5.1229,-5.1229,-5.1229,-5.1229,-5.1229,-5.1229,-5.1229,-5.1259,-5.1798,-5.2127,-5.2127,-5.2157,-5.2187,-5.2187,-5.2247,-5.2336,-5.2456,-5.3593,-5.4221,-5.4371,-5.488,-5.5209,-5.5209,-5.5209,-5.5448,-5.5987,-5.6077,-5.6419,-5.7032,-5.772,-5.8093,-5.8293,-5.9183,-5.8971,-5.7746,-5.7869,-5.9132,-6.0461,-5.9745,-5.9659,-6.0816,-6.017,-6.0297,-6.1101,-6.1595,-6.1627,-6.1718,-6.1912,-6.1483,-6.0961,-6.0772,-6.0741,-6.1215,-6.0956,-6.0917,-6.1357,-6.0882,-6.0404,-6.078,-6.0902,-6.1239,-6.1782,-6.127,-6.0803,-6.0825,-6.0089,-6.0014,-6.0567,-6.0877,-6.0979,-6.1286,-6.1859,-6.1891,-6.1891,-6.2256,-6.2485,-6.2583,-6.2485,-6.2485,-6.3483,-6.4175,-6.449,-4.7478,-4.8194,-4.8304,-4.8524,-4.8829,-4.8835,-4.8954,-4.9104,-4.9553,-4.9853,-4.9974,-5.0333,-5.0094,-4.9314,-4.9734,-4.9944,-4.9853,-5.0242,-5.0541,-5.081,-5.081,-5.096,-5.1199,-5.1229,-5.1229,-5.1229,-5.1229,-5.1229,-5.1229,-5.1229,-5.1229,-5.1229,-5.1229,-5.1229,-5.1229,-5.1229,-5.1229,-5.1229,-5.1229,-5.1229,-5.1259,-5.1468,-5.1618,-5.1618,-5.1618,-5.1828,-5.2157,-5.2187,-5.2546,-5.3324,-5.3922,-5.4401,-5.479,-5.5418,-5.5777,-5.5807,-5.6107,-5.6436,-5.6705,-5.6705,-5.6825,-5.7064,-5.748,-5.7686,-5.7686,-5.8065,-5.7892,-5.7294,-5.8297,-5.9663,-6.0136,-5.941,-5.9149,-5.9562,-5.8938,-5.877,-5.9721,-6.0292,-6.0738,-6.1344,-6.1758,-6.1918,-6.1435,-6.0845,-6.0671,-6.0749,-6.0475,-6.0187,-6.0359,-6.0,-5.9819,-5.9758,-5.9832,-6.0321,-6.1051,-6.0494,-6.0106,-6.0285,-5.9789,-5.9392,-5.9606,-5.9789,-5.9895,-6.039,-6.0598,-6.0598,-6.0285,-6.039,-6.0598,-6.1113,-6.101,-6.0701,-6.179,-6.2355,-6.2587,-4.6963,-4.8022,-4.8591,-4.9072,-4.9524,-4.9554,-4.9523,-4.9613,-5.0212,-5.0481,-5.0571,-5.102,-5.069,-4.9942,-5.0301,-5.0511,-5.0571,-5.099,-5.1229,-5.1229,-5.1229,-5.1229,-5.1229,-5.1229,-5.1229,-5.1229,-5.1229,-5.1229,-5.1229,-5.1229,-5.1229,-5.1229,-5.1229,-5.1229,-5.1229,-5.1229,-5.1319,-5.1468,-5.1498,-5.1558,-5.1738,-5.1768,-5.1678,-5.1528,-5.1678,-5.1977,-5.2456,-5.2636,-5.3174,-5.4132,-5.4371,-5.479,-5.5418,-5.5927,-5.6256,-5.6436,-5.6825,-5.7184,-5.7363,-5.7363,-5.7453,-5.7603,-5.7663,-5.7633,-5.7633,-5.7663,-5.7633,-5.7738,-5.9021,-5.9762,-5.9937,-5.9047,-5.8604,-5.896,-5.8231,-5.8022,-5.9184,-5.9686,-6.0369,-6.1002,-6.1383,-6.169,-6.1356,-6.064,-6.0224,-6.0119,-5.9576,-5.9099,-5.9099,-5.9207,-5.9099,-5.9099,-5.9099,-5.9392,-6.0106,-5.9683,-5.9606,-5.9789,-5.9499,-5.9099,-5.9099,-5.9099,-5.9099,-5.9713,-5.9315,-5.9207,-5.9499,-5.9315,-5.9237,-5.9207,-5.956,-6.0061,-6.0877,-6.0979,-6.1582,-4.7332,-4.8043,-4.8923,-4.9254,-4.9434,-4.9942,-5.0182,-5.0242,-5.087,-5.1169,-5.1139,-5.1199,-5.1169,-5.105,-5.1079,-5.1169,-5.1169,-5.1199,-5.1229,-5.1229,-5.1229,-5.1229,-5.1229,-5.1229,-5.1229,-5.1229,-5.1229,-5.1229,-5.1229,-5.1229,-5.1229,-5.1259,-5.1259,-5.1259,-5.1319,-5.1349,-5.1558,-5.2097,-5.2157,-5.2426,-5.2965,-5.3054,-5.2755,-5.2336,-5.2725,-5.3025,-5.3204,-5.3773,-5.4162,-5.4221,-5.482,-5.5418,-5.6047,-5.6196,-5.6496,-5.7004,-5.7124,-5.7423,-5.7992,-5.8082,-5.8291,-5.883,-5.883,-5.8949,-5.883,-5.883,-5.883,-5.8949,-5.9045,-5.9334,-5.9543,-5.8863,-5.8896,-6.0083,-5.9531,-5.9501,-6.031,-6.0248,-6.0609,-6.0712,-6.0743,-6.0494,-5.9499,-5.9207,-5.9315,-5.9315,-5.9207,-5.9099,-5.9099,-5.9099,-5.9099,-5.9099,-5.9099,-5.9099,-5.9207,-5.9207,-5.9207,-5.9315,-5.9392,-5.9099,-5.9099,-5.9099,-5.9099,-5.9099,-5.9099,-5.9099,-5.9099,-5.9129,-5.9189,-5.965,-6.077,-6.1258,-6.0805,-6.1645,-6.2104,-4.6622,-4.837,-4.8682,-4.9508,-5.0541,-5.075,-5.087,-5.09,-5.1109,-5.1229,-5.1229,-5.1229,-5.1229,-5.1229,-5.1229,-5.1229,-5.1229,-5.1229,-5.1229,-5.1229,-5.1229,-5.1229,-5.1229,-5.1229,-5.1229,-5.1229,-5.1229,-5.1229,-5.1229,-5.1229,-5.1439,-5.1798,-5.1858,-5.2037,-5.2396,-5.2456,-5.2606,-5.2785,-5.2845,-5.2965,-5.3234,-5.3623,-5.3713,-5.3473,-5.3264,-5.3384,-5.3832,-5.4072,-5.4401,-5.482,-5.5478,-5.5927,-5.6226,-5.6974,-5.7723,-5.8291,-5.8381,-5.8501,-5.871,-5.877,-5.883,-5.9069,-5.9099,-5.9099,-5.9099,-5.9099,-5.9099,-5.9099,-5.9099,-5.9165,-5.9228,-5.8954,-5.8937,-5.9439,-5.9392,-5.9207,-5.9606,-5.9713,-5.9713,-5.9713,-5.9713,-5.9499,-5.9315,-5.9099,-5.9099,-5.9099,-5.9099,-5.9099,-5.9099,-5.9099,-5.9099,-5.9099,-5.9099,-5.9099,-5.9099,-5.9099,-5.9099,-5.9099,-5.9099,-5.9099,-5.9099,-5.9099,-5.9099,-5.9129,-5.9129,-5.9279,-5.9368,-5.9668,-5.9668,-5.9976,-6.1186,-6.137,-6.1014,-6.1537,-6.169,-4.6183,-4.7815,-4.8236,-4.9301,-5.0603,-5.0728,-5.0728,-5.0728,-5.1011,-5.1011,-5.0822,-5.1011,-5.1229,-5.1229,-5.1229,-5.1229,-5.1229,-5.1229,-5.1229,-5.1229,-5.1229,-5.1229,-5.1229,-5.1229,-5.1229,-5.1259,-5.1439,-5.1528,-5.1558,-5.1738,-5.2097,-5.2486,-5.2516,-5.2725,-5.3114,-5.3174,-5.3264,-5.3443,-5.3503,-5.3593,-5.3832,-5.4281,-5.4521,-5.4461,-5.4072,-5.4042,-5.4521,-5.473,-5.5029,-5.5508,-5.6137,-5.6555,-5.6885,-5.7842,-5.865,-5.9039,-5.9099,-5.9099,-5.9099,-5.9099,-5.9099,-5.9099,-5.9099,-5.9099,-5.9099,-5.9099,-5.9099,-5.9099,-5.9099,-5.9099,-5.9099,-5.9099,-5.9099,-5.9099,-5.9099,-5.9099,-5.9099,-5.9099,-5.9099,-5.9207,-5.9207,-5.9099,-5.9099,-5.9099,-5.9099,-5.9099,-5.9099,-5.9099,-5.9099,-5.9099,-5.9099,-5.9099,-5.9099,-5.9099,-5.9099,-5.9099,-5.9129,-5.9129,-5.9099,-5.9099,-5.9129,-5.9129,-5.9159,-5.9159,-5.9308,-5.9488,-5.9757,-6.0116,-6.0326,-6.0416,-6.0726,-6.1237,-6.1117,-6.1126,-6.1438,-4.6319,-4.6632,-4.7559,-4.8539,-4.9513,-4.9611,-4.9611,-4.9708,-5.0632,-5.0537,-5.0028,-5.0728,-5.1229,-5.1229,-5.1229,-5.1229,-5.1319,-5.1349,-5.1319,-5.1319,-5.1379,-5.1379,-5.1409,-5.1439,-5.1439,-5.1468,-5.1917,-5.2217,-5.2247,-5.2695,-5.3054,-5.3174,-5.3174,-5.3264,-5.3264,-5.3414,-5.3623,-5.4072,-5.4221,-5.4491,-5.5089,-5.5089,-5.5119,-5.5179,-5.5119,-5.5149,-5.5239,-5.5777,-5.6047,-5.6226,-5.6765,-5.7423,-5.8022,-5.868,-5.9099,-5.9099,-5.9099,-5.9099,-5.9099,-5.9099,-5.9099,-5.9099,-5.9099,-5.9099,-5.9099,-5.9099,-5.9099,-5.9099,-5.9099,-5.9099,-5.9099,-5.9099,-5.9099,-5.9099,-5.9099,-5.9099,-5.9099,-5.9099,-5.9099,-5.9099,-5.9099,-5.9099,-5.9099,-5.9099,-5.9099,-5.9099,-5.9099,-5.9099,-5.9099,-5.9099,-5.9099,-5.9099,-5.9099,-5.9099,-5.9099,-5.9099,-5.9129,-5.9129,-5.9129,-5.9129,-5.9189,-5.9219,-5.9398,-5.9458,-5.9937,-6.0146,-6.0475,-6.0805,-6.1014,-6.1134,-6.1253,-6.1403,-6.1583,-6.1732,-6.1792,-4.5662,-4.6374,-4.6764,-4.7485,-4.8396,-4.8496,-4.8496,-4.8596,-4.9611,-4.9902,-4.9805,-5.0728,-5.1229,-5.1229,-5.1229,-5.1468,-5.1887,-5.1887,-5.1887,-5.1977,-5.2366,-5.2516,-5.2546,-5.2546,-5.2546,-5.2606,-5.2755,-5.2875,-5.2905,-5.3114,-5.3384,-5.3803,-5.3892,-5.4132,-5.4551,-5.4581,-5.47,-5.485,-5.488,-5.4999,-5.5179,-5.5209,-5.5388,-5.5807,-5.5867,-5.6047,-5.6466,-5.6286,-5.6376,-5.6795,-5.7453,-5.8112,-5.868,-5.8979,-5.9099,-5.9099,-5.9099,-5.9099,-5.9099,-5.9099,-5.9099,-5.9099,-5.9099,-5.9099,-5.9099,-5.9099,-5.9099,-5.9099,-5.9099,-5.9099,-5.9099,-5.9099,-5.9099,-5.9099,-5.9099,-5.9099,-5.9099,-5.9099,-5.9099,-5.9099,-5.9099,-5.9099,-5.9099,-5.9099,-5.9099,-5.9099,-5.9099,-5.9099,-5.9099,-5.9099,-5.9099,-5.9099,-5.9099,-5.9249,-5.9428,-5.9548,-5.9608,-5.9578,-5.9488,-5.9488,-5.9488,-5.9608,-5.9727,-6.0027,-6.0475,-6.0864,-6.1194,-6.1463,-6.1702,-6.1942,-6.2091,-6.2271,-6.2421,-6.245,-6.2421,-4.5127,-4.5768,-4.6009,-4.6699,-4.7743,-4.7937,-4.8048,-4.8152,-4.9206,-4.971,-4.991,-5.0828,-5.1535,-5.1852,-5.1947,-5.1965,-5.2062,-5.2621,-5.286,-5.2655,-5.2987,-5.3174,-5.3174,-5.3174,-5.3174,-5.3234,-5.3443,-5.3563,-5.3593,-5.3832,-5.4281,-5.485,-5.494,-5.5269,-5.5837,-5.5897,-5.5897,-5.5897,-5.5927,-5.5897,-5.5897,-5.5897,-5.6107,-5.6496,-5.6765,-5.7214,-5.7752,-5.7693,-5.7573,-5.7633,-5.8112,-5.868,-5.9069,-5.9099,-5.9099,-5.9099,-5.9099,-5.9099,-5.9099,-5.9099,-5.9099,-5.9099,-5.9099,-5.9099,-5.9099,-5.9099,-5.9099,-5.9099,-5.9099,-5.9099,-5.9099,-5.9099,-5.9099,-5.9099,-5.9099,-5.9099,-5.9099,-5.9099,-5.9099,-5.9099,-5.9099,-5.9099,-5.9099,-5.9099,-5.9099,-5.9099,-5.9099,-5.9099,-5.9099,-5.9099,-5.9219,-5.9368,-5.9548,-5.9697,-5.9877,-5.9997,-6.0086,-6.0027,-5.9967,-6.0027,-6.0086,-6.0326,-6.0505,-6.0924,-6.1373,-6.1702,-6.2032,-6.2241,-6.248,-6.272,-6.278,-6.278,-6.278,-6.2869,-6.2839,-4.48,-4.4879,-4.5454,-4.6296,-4.7163,-4.7731,-4.7893,-4.8083,-4.9024,-4.9469,-4.9812,-5.0685,-5.1783,-5.2694,-5.2447,-5.217,-5.2033,-5.3166,-5.3786,-5.3657,-5.3752,-5.3803,-5.3862,-5.3862,-5.3892,-5.3832,-5.4251,-5.4461,-5.461,-5.5059,-5.5598,-5.6077,-5.6137,-5.6436,-5.6795,-5.7034,-5.6944,-5.6885,-5.7034,-5.7094,-5.7094,-5.7214,-5.7274,-5.7393,-5.7932,-5.853,-5.9159,-5.9578,-5.9428,-5.859,-5.9009,-5.9338,-5.9279,-5.9219,-5.9368,-5.9398,-5.9249,-5.9338,-5.9279,-5.9458,-5.9398,-5.9428,-5.9428,-5.9219,-5.9398,-5.9488,-5.9488,-5.9458,-5.9428,-5.9368,-5.9368,-5.9398,-5.9368,-5.9249,-5.9338,-5.9308,-5.9249,-5.9338,-5.9458,-5.9398,-5.9249,-5.9249,-5.9428,-5.9398,-5.9398,-5.9398,-5.9428,-5.9488,-5.9488,-5.9638,-5.9638,-5.9817,-6.0116,-6.0266,-6.0446,-6.0505,-6.0625,-6.0894,-6.0745,-6.0715,-6.0745,-6.0954,-6.1373,-6.1792,-6.2061,-6.245,-6.269,-6.281,-6.2869,-6.2929,-6.2989,-6.3079,-6.3079,-6.3079,-6.3079,-4.5637,-4.6029,-4.6186,-4.6461,-4.6684,-4.6843,-4.6895,-4.7118,-4.8083,-4.8653,-4.8813,-4.9743,-5.0484,-5.0577,-5.0766,-5.1345,-5.2567,-5.3331,-5.4165,-5.4876,-5.5738,-5.6077,-5.6077,-5.6017,-5.5987,-5.5987,-5.6017,-5.6346,-5.6346,-5.6406,-5.6645,-5.6825,-5.6855,-5.6944,-5.7094,-5.7184,-5.7094,-5.7184,-5.7633,-5.7872,-5.7992,-5.8381,-5.883,-5.9308,-5.9458,-5.9907,-6.0505,-6.0745,-6.0745,-6.0416,-6.0446,-6.0565,-6.0505,-6.0505,-6.0446,-6.0475,-6.0505,-6.0565,-6.0535,-6.0535,-6.0535,-6.0595,-6.0446,-6.0565,-6.0595,-6.0565,-6.0595,-6.0595,-6.0595,-6.0535,-6.0535,-6.0535,-6.0535,-6.0535,-6.0176,-6.0057,-6.0386,-6.0595,-6.0595,-6.0595,-6.0535,-6.0475,-6.0475,-6.0475,-6.0475,-6.0475,-6.0446,-6.0446,-6.0326,-6.0356,-6.0446,-6.0625,-6.0864,-6.0924,-6.0984,-6.1044,-6.1224,-6.1672,-6.1642,-6.1463,-6.1463,-6.1523,-6.2061,-6.263,-6.257,-6.2839,-6.2929,-6.2989,-6.3079,-6.3079,-6.3079,-6.3079,-6.3079,-6.3079,-6.3079,-4.6186,-4.6499,-4.6734,-4.6839,-4.6865,-4.71,-4.7205,-4.7293,-4.7834,-4.848,-4.8952,-4.9721,-5.046,-5.092,-5.1201,-5.1649,-5.2625,-5.3229,-5.366,-5.4373,-5.6158,-5.6983,-5.7079,-5.7094,-5.7094,-5.7094,-5.7124,-5.7064,-5.7064,-5.7094,-5.7244,-5.7483,-5.7513,-5.7663,-5.8022,-5.7932,-5.8112,-5.8381,-5.877,-5.9069,-5.9398,-5.9727,-6.0057,-6.0535,-6.0745,-6.1253,-6.1822,-6.1942,-6.1732,-6.1253,-6.1104,-6.1104,-6.1104,-6.1104,-6.1104,-6.1104,-6.1104,-6.1104,-6.1104,-6.1104,-6.1104,-6.1104,-6.1104,-6.1104,-6.1074,-6.1104,-6.1104,-6.1074,-6.1104,-6.1104,-6.1104,-6.1104,-6.1253,-6.1403,-6.1164,-6.0984,-6.1164,-6.1044,-6.1104,-6.1104,-6.1104,-6.1134,-6.1134,-6.1164,-6.1134,-6.1074,-6.0984,-6.1014,-6.1014,-6.1164,-6.1283,-6.1433,-6.1583,-6.1672,-6.1852,-6.1972,-6.1912,-6.2301,-6.2331,-6.2181,-6.2151,-6.2121,-6.248,-6.2929,-6.3019,-6.3079,-6.3079,-6.3079,-6.3079,-6.3079,-6.3079,-6.3079,-6.3079,-6.3199,-6.3199,-4.6604,-4.6708,-4.7205,-4.7414,-4.7492,-4.7963,-4.8068,-4.8146,-4.8315,-4.8868,-4.9637,-5.0405,-5.0971,-5.2296,-5.1983,-5.2449,-5.189,-5.2848,-5.3148,-5.3935,-5.5452,-5.6549,-5.7149,-5.7467,-5.7543,-5.7513,-5.7334,-5.7423,-5.7543,-5.7453,-5.7663,-5.8082,-5.8231,-5.859,-5.8949,-5.9129,-5.9548,-5.9967,-6.0206,-6.0505,-6.0924,-6.1164,-6.1373,-6.1463,-6.1822,-6.2301,-6.275,-6.2899,-6.251,-6.1373,-6.1313,-6.1433,-6.1403,-6.1373,-6.1403,-6.1463,-6.1523,-6.1493,-6.1403,-6.1523,-6.1433,-6.1493,-6.1523,-6.1403,-6.1672,-6.1852,-6.1972,-6.2032,-6.1553,-6.1882,-6.1882,-6.1702,-6.2061,-6.251,-6.248,-6.2121,-6.1672,-6.1403,-6.1343,-6.1403,-6.1463,-6.1433,-6.1493,-6.1523,-6.1642,-6.257,-6.2361,-6.2331,-6.2241,-6.2151,-6.2181,-6.2151,-6.2301,-6.2421,-6.266,-6.2929,-6.2839,-6.2899,-6.2839,-6.275,-6.275,-6.278,-6.2899,-6.3079,-6.3079,-6.3079,-6.3079,-6.3079,-6.3079,-6.3079,-6.3079,-6.3079,-6.3109,-6.3348,-6.3438,-4.7414,-4.7832,-4.7963,-4.8015,-4.8015,-4.812,-4.8172,-4.825,-4.8695,-4.9062,-4.9364,-4.993,-5.0261,-5.0498,-5.0949,-5.1282,-5.2279,-5.2689,-5.3316,-5.4809,-5.4094,-5.5591,-5.6863,-5.7883,-5.8513,-5.859,-5.865,-5.865,-5.862,-5.853,-5.871,-5.886,-5.8949,-5.9219,-5.9787,-5.9907,-6.0206,-6.0864,-6.1343,-6.1642,-6.1912,-6.2331,-6.254,-6.257,-6.272,-6.2869,-6.3019,-6.3079,-6.2929,-6.272,-6.26,-6.248,-6.251,-6.254,-6.251,-6.251,-6.257,-6.26,-6.263,-6.257,-6.266,-6.263,-6.2959,-6.3378,-6.3408,-6.3767,-6.4036,-6.4156,-6.4186,-6.3917,-6.3857,-6.4096,-6.4036,-6.4096,-6.4186,-6.4186,-6.4006,-6.3228,-6.2899,-6.3169,-6.3318,-6.3558,-6.4006,-6.3887,-6.3947,-6.4126,-6.3977,-6.3857,-6.3588,-6.3228,-6.3169,-6.3109,-6.3109,-6.3258,-6.3348,-6.3588,-6.3588,-6.3468,-6.3378,-6.3258,-6.3258,-6.3079,-6.3079,-6.3079,-6.3079,-6.3079,-6.3079,-6.3079,-6.3079,-6.3079,-6.3109,-6.3169,-6.3258,-6.3498,-6.3827,-4.7911,-4.8172,-4.8172,-4.8172,-4.8172,-4.8172,-4.8355,-4.8616,-4.893,-4.9244,-4.9557,-5.0054,-5.0315,-5.0342,-5.0577,-5.1355,-5.1907,-5.2204,-5.2944,-5.4029,-5.3872,-5.456,-5.5964,-5.7133,-5.7833,-5.8773,-5.9099,-5.9099,-5.9099,-5.9159,-5.9219,-5.9548,-5.9578,-5.9937,-6.0475,-6.0565,-6.0924,-6.1463,-6.1912,-6.2211,-6.26,-6.2869,-6.3079,-6.3079,-6.3079,-6.3079,-6.3079,-6.3079,-6.3079,-6.3079,-6.3079,-6.3079,-6.3079,-6.3079,-6.3079,-6.3079,-6.3079,-6.3079,-6.3079,-6.3348,-6.3468,-6.3528,-6.4126,-6.4395,-6.4515,-6.4844,-6.4994,-6.5024,-6.4964,-6.4994,-6.5024,-6.4994,-6.5024,-6.5024,-6.5054,-6.5054,-6.4904,-6.4395,-6.4096,-6.4395,-6.4425,-6.4575,-6.4904,-6.5173,-6.5054,-6.4695,-6.4635,-6.4545,-6.4515,-6.4216,-6.4216,-6.4156,-6.4066,-6.4066,-6.4096,-6.4186,-6.4246,-6.4096,-6.3887,-6.3737,-6.3647,-6.3378,-6.3079,-6.3079,-6.3109,-6.3079,-6.3079,-6.3079,-6.3169,-6.3109,-6.3169,-6.3258,-6.3468,-6.3827,-6.4186,-4.8172,-4.8172,-4.8172,-4.8172,-4.8198,-4.8303,-4.8616,-4.9035,-4.9296,-4.9688,-5.008,-5.0655,-5.0917,-5.0995,-5.1309,-5.157,-5.157,-5.1669,-5.2412,-5.2998,-5.3146,-5.3844,-5.4942,-5.5524,-5.6537,-5.8423,-5.8335,-5.8335,-5.8813,-5.9061,-5.9339,-6.0006,-6.0236,-6.0595,-6.1104,-6.1283,-6.1583,-6.2181,-6.2331,-6.251,-6.2899,-6.3049,-6.3079,-6.3079,-6.3079,-6.3079,-6.3079,-6.3079,-6.3079,-6.3079,-6.3079,-6.3079,-6.3079,-6.3079,-6.3169,-6.3199,-6.3288,-6.3438,-6.3647,-6.3917,-6.4156,-6.4186,-6.4784,-6.5144,-6.5203,-6.5383,-6.5533,-6.5473,-6.5503,-6.5503,-6.5353,-6.5503,-6.5473,-6.5413,-6.5383,-6.5323,-6.5323,-6.5323,-6.5323,-6.5144,-6.5203,-6.5323,-6.5473,-6.5682,-6.5473,-6.5293,-6.5293,-6.5233,-6.5203,-6.5114,-6.5024,-6.4784,-6.4605,-6.4545,-6.4545,-6.4635,-6.4695,-6.4665,-6.4455,-6.4306,-6.4156,-6.4036,-6.3767,-6.3228,-6.3139,-6.3228,-6.3438,-6.3677,-6.3647,-6.3348,-6.3528,-6.3917,-6.4096,-6.4216,-6.4635,-4.8172,-4.8172,-4.8172,-4.8172,-4.8277,-4.8721,-4.9008,-4.9244,-5.008,-5.0524,-5.0681,-5.1204,-5.1439,-5.1492,-5.1518,-5.1596,-5.1596,-5.1596,-5.1721,-5.2094,-5.2121,-5.2861,-5.3794,-5.4445,-5.5428,-5.6237,-5.6389,-5.6824,-5.8085,-5.8428,-5.9232,-6.044,-6.0813,-6.1171,-6.1762,-6.1972,-6.2241,-6.269,-6.281,-6.2929,-6.3019,-6.3079,-6.3079,-6.3079,-6.3079,-6.3079,-6.3079,-6.3079,-6.3079,-6.3079,-6.3079,-6.3109,-6.3169,-6.3169,-6.3408,-6.3647,-6.3767,-6.3917,-6.4425,-6.4725,-6.4844,-6.4994,-6.5473,-6.5832,-6.5981,-6.6251,-6.637,-6.649,-6.652,-6.658,-6.667,-6.646,-6.661,-6.661,-6.652,-6.652,-6.652,-6.646,-6.6281,-6.5922,-6.5922,-6.5981,-6.6101,-6.6221,-6.6191,-6.6161,-6.6161,-6.6011,-6.5862,-6.5742,-6.5622,-6.5323,-6.4964,-6.4934,-6.4934,-6.5024,-6.5114,-6.5173,-6.5054,-6.4964,-6.4844,-6.4844,-6.4545,-6.3917,-6.3707,-6.3857,-6.4066,-6.4276,-6.4336,-6.4246,-6.4455,-6.4665,-6.4844,-6.4994,-6.5413,-4.8172,-4.8172,-4.8172,-4.8381,-4.8669,-4.8956,-4.9453,-5.0002,-5.0551,-5.0969,-5.123,-5.1492,-5.1596,-5.1596,-5.1596,-5.1596,-5.1596,-5.1596,-5.1596,-5.1648,-5.2009,-5.2318,-5.3095,-5.3654,-5.4119,-5.4565,-5.4596,-5.564,-5.7473,-5.7619,-5.8813,-6.012,-6.0642,-6.1197,-6.2336,-6.26,-6.278,-6.3049,-6.3079,-6.3079,-6.3079,-6.3079,-6.3079,-6.3079,-6.3079,-6.3079,-6.3079,-6.3079,-6.3079,-6.3139,-6.3378,-6.3528,-6.3647,-6.3857,-6.4036,-6.4066,-6.4066,-6.4336,-6.4994,-6.5293,-6.5533,-6.5622,-6.6131,-6.649,-6.658,-6.6759,-6.6969,-6.6999,-6.6999,-6.6999,-6.6939,-6.6999,-6.6999,-6.6999,-6.6999,-6.6999,-6.6999,-6.6999,-6.6759,-6.649,-6.652,-6.655,-6.6729,-6.6849,-6.6939,-6.6999,-6.6999,-6.6759,-6.646,-6.634,-6.6191,-6.6071,-6.5772,-6.5772,-6.5742,-6.5742,-6.5712,-6.5742,-6.5682,-6.5592,-6.5443,-6.5383,-6.5024,-6.4485,-6.4425,-6.4635,-6.4575,-6.4755,-6.4934,-6.5084,-6.5054,-6.5114,-6.5473,-6.5802,-6.6101,-4.8172,-4.8198,-4.8329,-4.8643,-4.9087,-4.9348,-4.9949,-5.0707,-5.0917,-5.1204,-5.1544,-5.1596,-5.1596,-5.1596,-5.1596,-5.1596,-5.1596,-5.1596,-5.1675,-5.191,-5.2223,-5.2511,-5.2825,-5.3217,-5.3789,-5.3918,-5.4103,-5.4895,-5.6704,-5.7285,-5.8497,-6.0119,-6.053,-6.138,-6.2814,-6.2959,-6.3079,-6.3079,-6.3079,-6.3079,-6.3079,-6.3079,-6.3079,-6.3079,-6.3079,-6.3079,-6.3079,-6.3288,-6.3318,-6.3498,-6.3827,-6.4216,-6.4276,-6.4725,-6.4814,-6.4485,-6.4425,-6.4784,-6.5383,-6.5862,-6.6191,-6.6251,-6.667,-6.6909,-6.6969,-6.6939,-6.6999,-6.6999,-6.6999,-6.6999,-6.6999,-6.6999,-6.6999,-6.6999,-6.6999,-6.6999,-6.6999,-6.6999,-6.6999,-6.6909,-6.6999,-6.6999,-6.6999,-6.6999,-6.6999,-6.6999,-6.6999,-6.6999,-6.6729,-6.6789,-6.6729,-6.6819,-6.6729,-6.6729,-6.67,-6.661,-6.655,-6.649,-6.637,-6.6221,-6.6071,-6.5922,-6.5533,-6.5323,-6.5473,-6.5622,-6.5443,-6.5353,-6.5712,-6.5832,-6.5533,-6.5622,-6.6101,-6.6281,-6.646,-4.8172,-4.8224,-4.8773,-4.9035,-4.927,-5.0132,-5.0629,-5.0838,-5.1282,-5.1518,-5.1596,-5.1596,-5.1596,-5.1596,-5.1596,-5.1596,-5.1622,-5.1701,-5.191,-5.225,-5.2563,-5.2929,-5.3321,-5.3844,-5.4079,-5.4184,-5.4576,-5.5415,-5.6323,-5.7314,-5.8823,-6.0398,-6.135,-6.2758,-6.2409,-6.2701,-6.3079,-6.3079,-6.3079,-6.3079,-6.3079,-6.3079,-6.3079,-6.3079,-6.3079,-6.3139,-6.3228,-6.3558,-6.3797,-6.3977,-6.4545,-6.4874,-6.4934,-6.4964,-6.5353,-6.5592,-6.5832,-6.6041,-6.652,-6.667,-6.6759,-6.6729,-6.6939,-6.6969,-6.6999,-6.6999,-6.6999,-6.6999,-6.6999,-6.6999,-6.6999,-6.6999,-6.6999,-6.6999,-6.6999,-6.6999,-6.6999,-6.6999,-6.6999,-6.6999,-6.6999,-6.6999,-6.6999,-6.6999,-6.6999,-6.6999,-6.6999,-6.6999,-6.6999,-6.6999,-6.6999,-6.6999,-6.6999,-6.6999,-6.6999,-6.6999,-6.6999,-6.6999,-6.6879,-6.6729,-6.658,-6.643,-6.664,-6.649,-6.655,-6.637,-6.6071,-6.6131,-6.655,-6.655,-6.6251,-6.646,-6.6819,-6.6879,-6.6789,-4.8381,-4.8721,-4.8982,-4.9453,-5.008,-5.0603,-5.0969,-5.1256,-5.1492,-5.1596,-5.1596,-5.1596,-5.1596,-5.1596,-5.1596,-5.1596,-5.1675,-5.1962,-5.2223,-5.2694,-5.3112,-5.3583,-5.3922,-5.4419,-5.4707,-5.4733,-5.4916,-5.5049,-5.5862,-5.6198,-5.7259,-5.8759,-5.9465,-5.9929,-6.1197,-6.1703,-6.1821,-6.2087,-6.2585,-6.3079,-6.3079,-6.3079,-6.3079,-6.3079,-6.3109,-6.3288,-6.3617,-6.3797,-6.4216,-6.4575,-6.5233,-6.5562,-6.5682,-6.5922,-6.6311,-6.646,-6.655,-6.67,-6.6909,-6.6969,-6.6999,-6.6999,-6.6999,-6.6999,-6.6999,-6.6999,-6.6999,-6.6999,-6.6999,-6.6999,-6.6999,-6.6999,-6.6999,-6.6999,-6.6999,-6.6999,-6.6999,-6.6999,-6.6999,-6.6999,-6.6999,-6.6999,-6.6999,-6.6999,-6.6999,-6.6999,-6.6999,-6.6999,-6.6999,-6.6999,-6.6999,-6.6999,-6.6999,-6.6999,-6.6999,-6.6999,-6.7029,-6.7029,-6.6999,-6.6909,-6.6939,-6.6939,-6.6999,-6.6999,-6.6819,-6.667,-6.658,-6.664,-6.6819,-6.6909,-6.6969,-6.6999,-6.6999,-6.6969,-6.6909,-4.8956,-4.9505,-4.9505,-5.008,-5.0995,-5.1152,-5.1439,-5.1779,-5.1648,-5.1596,-5.1596,-5.1596,-5.1596,-5.1675,-5.1753,-5.1884,-5.1884,-5.2459,-5.2772,-5.3217,-5.3713,-5.4184,-5.4497,-5.4916,-5.5046,-5.5099,-5.5046,-5.518,-5.5072,-5.5313,-5.6052,-5.7092,-5.8214,-5.8467,-5.9313,-6.0566,-6.1465,-6.2087,-6.2701,-6.3079,-6.3109,-6.3288,-6.3318,-6.3378,-6.3498,-6.3767,-6.4186,-6.4515,-6.4874,-6.5233,-6.5892,-6.6251,-6.6311,-6.658,-6.6789,-6.6879,-6.6879,-6.6909,-6.6969,-6.6999,-6.6999,-6.6999,-6.6999,-6.6999,-6.6999,-6.6999,-6.6999,-6.6999,-6.6999,-6.6999,-6.6999,-6.6999,-6.6999,-6.6999,-6.6999,-6.6999,-6.6999,-6.7059,-6.7029,-6.6999,-6.6999,-6.6999,-6.6999,-6.6999,-6.6999,-6.6999,-6.6999,-6.7029,-6.7059,-6.7119,-6.7029,-6.7059,-6.6999,-6.7089,-6.7268,-6.7208,-6.7178,-6.7059,-6.7029,-6.6999,-6.6999,-6.6999,-6.6999,-6.6999,-6.6999,-6.6939,-6.6789,-6.6879,-6.6999,-6.6999,-6.6999,-6.6999,-6.6999,-6.6999,-6.6999,-5.0132,-5.0681,-5.0681,-5.1021,-5.1596,-5.2145,-5.2354,-5.2223,-5.1779,-5.1622,-5.1596,-5.1596,-5.1596,-5.1727,-5.2093,-5.2328,-5.2433,-5.306,-5.3504,-5.387,-5.421,-5.455,-5.4837,-5.502,-5.5099,-5.5099,-5.5099,-5.5099,-5.5099,-5.5099,-5.5842,-5.6963,-5.7478,-5.8564,-5.9189,-5.9711,-6.1077,-6.185,-6.2644,-6.2937,-6.3232,-6.3501,-6.3947,-6.4096,-6.4485,-6.4934,-6.4994,-6.5383,-6.5742,-6.5951,-6.646,-6.6759,-6.6789,-6.6909,-6.6999,-6.6999,-6.6999,-6.6999,-6.6999,-6.6999,-6.6999,-6.6999,-6.6999,-6.6999,-6.6999,-6.6999,-6.6999,-6.6999,-6.6999,-6.6999,-6.6999,-6.6999,-6.6999,-6.7029,-6.7059,-6.7119,-6.7119,-6.7148,-6.7148,-6.7029,-6.6999,-6.7059,-6.7089,-6.7119,-6.6999,-6.6999,-6.7298,-6.7328,-6.7358,-6.7388,-6.7178,-6.7119,-6.7029,-6.7208,-6.7627,-6.7537,-6.7178,-6.7119,-6.7119,-6.7059,-6.6999,-6.6999,-6.6999,-6.6999,-6.6999,-6.6999,-6.6999,-6.6999,-6.6999,-6.6999,-6.6999,-6.6999,-6.6999,-6.6999,-6.6999,-5.076,-5.1335,-5.2067,-5.2302,-5.2171,-5.2406,-5.2276,-5.1962,-5.1701,-5.1596,-5.1596,-5.1596,-5.1596,-5.1779,-5.2197,-5.2485,-5.2642,-5.3504,-5.3949,-5.4288,-5.455,-5.4863,-5.5072,-5.5099,-5.5099,-5.5099,-5.5099,-5.5099,-5.5099,-5.5099,-5.5206,-5.5973,-5.6601,-5.6471,-5.7092,-5.8242,-5.9493,-6.0831,-6.1815,-6.2379,-6.2765,-6.3892,-6.4635,-6.4695,-6.4784,-6.5263,-6.5562,-6.5832,-6.6191,-6.655,-6.6849,-6.6939,-6.6999,-6.6999,-6.6999,-6.6999,-6.6999,-6.6999,-6.6999,-6.6999,-6.6999,-6.6999,-6.6999,-6.6999,-6.6999,-6.6999,-6.6999,-6.6999,-6.7029,-6.7089,-6.6999,-6.6999,-6.6999,-6.7089,-6.7208,-6.7328,-6.7388,-6.7478,-6.7324,-6.72,-6.7145,-6.7178,-6.7208,-6.7238,-6.7119,-6.7029,-6.7358,-6.7657,-6.7687,-6.7777,-6.7657,-6.7537,-6.7448,-6.7298,-6.7687,-6.7448,-6.7148,-6.7178,-6.7238,-6.7208,-6.7148,-6.6999,-6.6999,-6.6999,-6.6999,-6.6999,-6.6999,-6.6999,-6.6999,-6.6999,-6.6999,-6.6999,-6.6999,-6.6999,-6.6999,-5.1622,-5.2223,-5.3217,-5.3295,-5.2798,-5.2772,-5.2433,-5.1884,-5.1675,-5.1596,-5.1596,-5.1596,-5.1727,-5.1988,-5.2485,-5.2929,-5.3295,-5.3975,-5.4367,-5.4628,-5.4863,-5.5072,-5.5099,-5.5099,-5.5099,-5.5099,-5.5099,-5.5099,-5.5099,-5.5099,-5.5232,-5.5232,-5.5099,-5.5206,-5.5657,-5.6658,-5.7981,-5.9486,-6.1155,-6.2267,-6.2628,-6.4186,-6.5323,-6.5383,-6.5562,-6.5892,-6.6221,-6.64,-6.655,-6.6789,-6.6969,-6.6999,-6.6999,-6.6999,-6.6999,-6.6999,-6.6999,-6.6999,-6.6999,-6.6999,-6.6999,-6.6999,-6.6999,-6.6999,-6.6999,-6.6999,-6.6999,-6.7029,-6.7119,-6.7208,-6.7178,-6.7358,-6.7508,-6.7687,-6.8046,-6.8166,-6.7951,-6.7856,-6.7611,-6.7522,-6.7433,-6.7433,-6.7165,-6.7195,-6.7111,-6.7175,-6.7508,-6.7837,-6.8016,-6.8166,-6.8315,-6.8166,-6.8046,-6.7837,-6.7687,-6.7627,-6.7567,-6.7537,-6.7567,-6.7478,-6.7388,-6.7298,-6.7268,-6.7388,-6.7328,-6.7089,-6.6999,-6.6999,-6.6999,-6.6999,-6.6999,-6.6999,-6.6999,-6.6999,-6.6999,-5.2772,-5.34,-5.3922,-5.3818,-5.3269,-5.3347,-5.2955,-5.225,-5.1805,-5.1596,-5.1622,-5.1648,-5.1936,-5.2459,-5.3034,-5.353,-5.3975,-5.4628,-5.4968,-5.4994,-5.502,-5.5099,-5.5099,-5.5099,-5.5099,-5.5099,-5.5099,-5.5099,-5.5099,-5.5099,-5.5099,-5.5151,-5.5177,-5.5203,-5.5311,-5.6902,-5.8427,-5.9921,-6.1622,-6.2256,-6.2832,-6.4224,-6.5162,-6.531,-6.5606,-6.5872,-6.6332,-6.6362,-6.6481,-6.6939,-6.6999,-6.6999,-6.6999,-6.6999,-6.6999,-6.6999,-6.6999,-6.6999,-6.6999,-6.6999,-6.6876,-6.6876,-6.6753,-6.6876,-6.6999,-6.6999,-6.6966,-6.7085,-6.7384,-6.7444,-6.7717,-6.7986,-6.8011,-6.819,-6.8549,-6.8572,-6.8326,-6.8258,-6.8072,-6.7775,-6.7698,-6.7658,-6.7216,-6.7019,-6.7189,-6.7254,-6.7623,-6.8046,-6.8465,-6.8675,-6.8914,-6.8824,-6.8645,-6.8465,-6.8256,-6.8076,-6.8016,-6.7956,-6.7956,-6.7956,-6.7956,-6.7956,-6.7956,-6.7926,-6.7627,-6.7358,-6.7148,-6.6999,-6.6999,-6.6999,-6.6999,-6.6999,-6.6999,-6.6999,-6.6999,-5.3217,-5.3452,-5.3975,-5.3661,-5.2877,-5.2798,-5.2459,-5.1936,-5.1701,-5.1596,-5.1701,-5.1988,-5.2276,-5.2746,-5.3452,-5.4027,-5.4288,-5.4811,-5.5099,-5.5099,-5.5099,-5.5099,-5.5099,-5.5099,-5.5099,-5.5099,-5.5099,-5.5099,-5.5099,-5.5099,-5.5099,-5.5125,-5.5438,-5.5621,-5.5808,-5.6422,-5.7064,-5.808,-5.9632,-6.0885,-6.1072,-6.2879,-6.4022,-6.4022,-6.4381,-6.5007,-6.5668,-6.5794,-6.6322,-6.6846,-6.6999,-6.6999,-6.6999,-6.6999,-6.6999,-6.6876,-6.6876,-6.6506,-6.6382,-6.6382,-6.6382,-6.6411,-6.6382,-6.6506,-6.6629,-6.6382,-6.6714,-6.707,-6.7426,-6.7575,-6.7678,-6.7855,-6.7974,-6.8062,-6.8299,-6.8388,-6.8259,-6.8525,-6.8554,-6.8111,-6.7894,-6.7883,-6.7648,-6.7489,-6.757,-6.7855,-6.8318,-6.9019,-6.9564,-6.9572,-6.9632,-6.9453,-6.9273,-6.9064,-6.8884,-6.8734,-6.8555,-6.8465,-6.8555,-6.8645,-6.8645,-6.8645,-6.8645,-6.8615,-6.8106,-6.7627,-6.7597,-6.7508,-6.7119,-6.6999,-6.7238,-6.7148,-6.6999,-6.6999,-6.6999,-5.3687,-5.3713,-5.3844,-5.3373,-5.2563,-5.2485,-5.2145,-5.1675,-5.1622,-5.1701,-5.1988,-5.2354,-5.2772,-5.3217,-5.3792,-5.4419,-5.4524,-5.4889,-5.5099,-5.5099,-5.5099,-5.5099,-5.5099,-5.5099,-5.5099,-5.5099,-5.5099,-5.5099,-5.5099,-5.5099,-5.5229,-5.5465,-5.5752,-5.6144,-5.6353,-5.6804,-5.6883,-5.7853,-5.9318,-6.0321,-6.0807,-6.1858,-6.2877,-6.3141,-6.3431,-6.411,-6.4752,-6.5416,-6.5948,-6.6723,-6.6999,-6.6999,-6.6999,-6.6999,-6.6999,-6.6753,-6.6506,-6.6132,-6.6007,-6.5882,-6.597,-6.6012,-6.6059,-6.628,-6.6524,-6.6516,-6.6871,-6.7225,-6.7393,-6.7629,-6.7924,-6.7971,-6.8354,-6.8442,-6.8631,-6.872,-6.8576,-6.884,-6.887,-6.84,-6.8122,-6.8151,-6.8122,-6.8181,-6.8181,-6.8488,-6.8956,-6.9702,-7.039,-7.0152,-7.0072,-7.0051,-6.9901,-6.9752,-6.9572,-6.9363,-6.9213,-6.9034,-6.9153,-6.9333,-6.9333,-6.9333,-6.9333,-6.9243,-6.8734,-6.8345,-6.8256,-6.8076,-6.7867,-6.7777,-6.7926,-6.7657,-6.7119,-6.7029,-6.7089,-5.4158,-5.4079,-5.3609,-5.3008,-5.2511,-5.2406,-5.2093,-5.1622,-5.1648,-5.1962,-5.2485,-5.2563,-5.3164,-5.4001,-5.4236,-5.455,-5.4916,-5.5072,-5.5099,-5.5099,-5.5099,-5.5099,-5.5099,-5.5099,-5.5099,-5.5099,-5.5099,-5.5099,-5.5099,-5.5255,-5.5491,-5.5935,-5.6223,-5.6745,-5.7294,-5.7556,-5.7608,-5.821,-5.8977,-5.9881,-6.0237,-6.1381,-6.184,-6.2109,-6.2641,-6.3562,-6.4496,-6.529,-6.6198,-6.6846,-6.6999,-6.6999,-6.6999,-6.6999,-6.6753,-6.6506,-6.6132,-6.5882,-6.5621,-6.568,-6.5845,-6.6067,-6.6158,-6.6441,-6.6647,-6.6853,-6.7206,-6.7706,-6.8089,-6.8089,-6.8177,-6.8707,-6.9266,-6.9295,-6.9325,-6.9281,-6.9132,-6.9086,-6.8952,-6.8806,-6.8643,-6.8614,-6.8602,-6.8497,-6.856,-6.8706,-6.9031,-6.9237,-6.9765,-7.0248,-7.023,-7.052,-7.0401,-7.047,-7.026,-6.9991,-6.9901,-6.9752,-6.9842,-6.9991,-6.9991,-6.9991,-6.9991,-6.9812,-6.9363,-6.9034,-6.8734,-6.8704,-6.8794,-6.8734,-6.8525,-6.8286,-6.7807,-6.7358,-6.7268,-5.3635,-5.3556,-5.2981,-5.2406,-5.191,-5.1858,-5.1753,-5.1648,-5.2014,-5.238,-5.2537,-5.3373,-5.387,-5.421,-5.4654,-5.4916,-5.502,-5.5099,-5.5099,-5.5099,-5.5099,-5.5099,-5.5099,-5.5099,-5.5099,-5.5099,-5.5099,-5.5177,-5.5229,-5.5412,-5.6249,-5.7033,-5.6981,-5.7556,-5.7948,-5.8261,-5.8235,-5.8376,-5.8956,-5.9122,-5.9315,-5.9846,-6.0123,-6.0372,-6.0784,-6.184,-6.33,-6.3952,-6.488,-6.66,-6.6846,-6.6999,-6.6999,-6.6753,-6.6506,-6.5853,-6.566,-6.5651,-6.5775,-6.5792,-6.6054,-6.6447,-6.665,-6.6838,-6.7084,-6.723,-6.7464,-6.7962,-6.8313,-6.8313,-6.843,-6.8898,-6.922,-6.922,-6.9249,-6.9144,-6.9098,-6.8963,-6.8963,-6.8963,-6.8828,-6.8828,-6.877,-6.8712,-6.8672,-6.8876,-6.9039,-6.9057,-6.9265,-6.9781,-7.0075,-7.0498,-7.0599,-7.045,-7.061,-7.056,-7.053,-7.05,-7.05,-7.05,-7.053,-7.053,-7.059,-7.041,-6.9961,-6.9482,-6.9004,-6.9123,-6.9393,-6.9123,-6.8884,-6.8734,-6.8495,-6.8076,-6.7717,-5.3583,-5.3321,-5.2746,-5.2145,-5.1648,-5.1596,-5.1701,-5.1988,-5.2354,-5.2589,-5.2955,-5.3766,-5.4341,-5.4602,-5.4916,-5.5072,-5.5072,-5.5099,-5.5099,-5.5099,-5.5099,-5.5099,-5.5099,-5.5099,-5.5099,-5.5151,-5.5308,-5.5491,-5.5595,-5.604,-5.6798,-5.7503,-5.766,-5.8,-5.8314,-5.847,-5.847,-5.847,-5.8497,-5.8523,-5.8523,-5.8523,-5.8523,-5.8638,-5.8779,-6.0372,-6.1706,-6.2242,-6.4081,-6.5794,-6.6073,-6.6352,-6.6476,-6.6382,-6.6007,-6.5533,-6.567,-6.5775,-6.5838,-6.6186,-6.6622,-6.7057,-6.7289,-6.7596,-6.7596,-6.7654,-6.8048,-6.8398,-6.8381,-6.8363,-6.8625,-6.8828,-6.8828,-6.8828,-6.8828,-6.8828,-6.8828,-6.8828,-6.8828,-6.8828,-6.8828,-6.8828,-6.8828,-6.8828,-6.8828,-6.8828,-6.8828,-6.8905,-6.9115,-6.9412,-6.9737,-7.0134,-7.0397,-7.0468,-7.0658,-7.0789,-7.0799,-7.0739,-7.0769,-7.0799,-7.0919,-7.0889,-7.0799,-7.0709,-7.056,-7.0111,-6.9722,-6.9812,-6.9931,-6.9662,-6.9602,-6.9692,-6.9453,-6.8884,-6.8585,-5.3844,-5.3347,-5.2694,-5.2067,-5.1648,-5.1675,-5.1988,-5.2485,-5.2668,-5.2955,-5.3504,-5.4053,-5.4602,-5.4942,-5.5072,-5.5099,-5.5099,-5.5099,-5.5099,-5.5099,-5.5099,-5.5099,-5.5099,-5.5099,-5.5203,-5.5334,-5.5595,-5.5909,-5.6223,-5.6641,-5.7163,-5.7686,-5.7791,-5.8078,-5.8444,-5.8523,-5.8523,-5.8523,-5.8523,-5.8523,-5.8523,-5.8523,-5.8523,-5.8638,-5.9429,-6.051,-6.0893,-6.1975,-6.33,-6.4081,-6.4909,-6.5192,-6.5727,-6.6125,-6.5748,-6.5699,-6.5822,-6.6229,-6.6418,-6.6767,-6.7289,-6.7696,-6.7986,-6.816,-6.8189,-6.8131,-6.8468,-6.8614,-6.8567,-6.8596,-6.877,-6.8828,-6.8828,-6.8828,-6.8828,-6.8828,-6.8828,-6.8828,-6.8828,-6.8828,-6.8828,-6.8828,-6.8828,-6.8828,-6.8828,-6.8828,-6.8828,-6.8828,-6.8963,-6.9068,-6.947,-6.9737,-6.9869,-7.0134,-7.0397,-7.0528,-7.0789,-7.0759,-7.0789,-7.0919,-7.0919,-7.0919,-7.0919,-7.0829,-7.0739,-7.0799,-7.062,-7.056,-7.047,-7.05,-7.05,-7.0739,-7.041,-6.9722,-6.9393,-5.353,-5.3295,-5.225,-5.1727,-5.1675,-5.2093,-5.2328,-5.2589,-5.3452,-5.3844,-5.4105,-5.4602,-5.4942,-5.5072,-5.5099,-5.5099,-5.5099,-5.5099,-5.5099,-5.5099,-5.5099,-5.5099,-5.5125,-5.5177,-5.5334,-5.5647,-5.5961,-5.6458,-5.7059,-5.7425,-5.7712,-5.8235,-5.8261,-5.8366,-5.8497,-5.8523,-5.8523,-5.8523,-5.8523,-5.8523,-5.8523,-5.8523,-5.8523,-5.8664,-5.9035,-5.9707,-6.0234,-6.0893,-6.1975,-6.3037,-6.398,-6.4781,-6.5601,-6.5914,-6.602,-6.5938,-6.6215,-6.6709,-6.7173,-6.7463,-6.7899,-6.8305,-6.8567,-6.8683,-6.8712,-6.8625,-6.8654,-6.877,-6.8828,-6.8828,-6.8828,-6.8828,-6.8828,-6.8828,-6.8828,-6.8828,-6.8828,-6.8828,-6.8828,-6.8828,-6.8828,-6.8828,-6.8828,-6.8828,-6.8828,-6.8828,-6.8828,-6.8828,-6.8828,-6.8963,-6.9068,-6.9337,-6.947,-6.9604,-7.0002,-7.0265,-7.0397,-7.0658,-7.0658,-7.0789,-7.0919,-7.0919,-7.0919,-7.0919,-7.0889,-7.0919,-7.0919,-7.0859,-7.0829,-7.0919,-7.0919,-7.0919,-7.0919,-7.038,-7.0111,-5.34,-5.3243,-5.2093,-5.1596,-5.1701,-5.225,-5.2642,-5.3034,-5.3818,-5.4367,-5.4602,-5.4942,-5.5099,-5.5099,-5.5099,-5.5099,-5.5099,-5.5099,-5.5099,-5.5099,-5.5125,-5.5099,-5.5151,-5.536,-5.5595,-5.5909,-5.6562,-5.719,-5.7895,-5.8052,-5.8261,-5.8497,-5.8523,-5.8523,-5.8523,-5.8523,-5.8523,-5.8523,-5.8523,-5.8523,-5.8523,-5.8523,-5.8523,-5.8523,-5.8638,-5.9175,-5.9175,-5.9707,-6.051,-6.1975,-6.3197,-6.4425,-6.5153,-6.5484,-6.5705,-6.5983,-6.6506,-6.7173,-6.7725,-6.816,-6.8392,-6.8712,-6.8828,-6.8799,-6.8799,-6.8712,-6.8741,-6.8828,-6.8828,-6.8828,-6.8828,-6.8828,-6.8828,-6.8828,-6.8828,-6.8828,-6.8828,-6.8828,-6.8828,-6.8828,-6.8828,-6.8828,-6.8828,-6.8828,-6.8828,-6.8828,-6.8828,-6.8828,-6.8828,-6.8828,-6.8963,-6.9068,-6.9203,-6.9337,-6.9604,-6.9869,-7.0134,-7.0265,-7.0528,-7.0629,-7.0759,-7.0889,-7.0919,-7.0919,-7.0919,-7.0919,-7.0919,-7.0919,-7.0919,-7.0919,-7.0919,-7.0919,-7.0919,-7.0919,-7.0649,-5.3295,-5.3034,-5.204,-5.1648,-5.1805,-5.2354,-5.2955,-5.353,-5.4105,-5.4602,-5.4994,-5.5072,-5.5099,-5.5099,-5.5099,-5.5099,-5.5099,-5.5099,-5.5099,-5.5125,-5.5229,-5.5308,-5.5517,-5.5752,-5.6092,-5.6615,-5.7242,-5.7791,-5.8392,-5.8418,-5.8418,-5.8497,-5.8523,-5.8523,-5.8523,-5.8523,-5.8523,-5.8523,-5.8523,-5.8523,-5.8523,-5.8523,-5.8523,-5.8523,-5.8523,-5.8523,-5.8523,-5.8779,-5.9315,-6.048,-6.2007,-6.3187,-6.4336,-6.4827,-6.5462,-6.5923,-6.6954,-6.7476,-6.8044,-6.8509,-6.8683,-6.8828,-6.8828,-6.8828,-6.8828,-6.8828,-6.8828,-6.8828,-6.8828,-6.8828,-6.8828,-6.8828,-6.8828,-6.8828,-6.8828,-6.8828,-6.8828,-6.8828,-6.8828,-6.8828,-6.8828,-6.8828,-6.8828,-6.8828,-6.8828,-6.8828,-6.8828,-6.8828,-6.8828,-6.8828,-6.8828,-6.8963,-6.8963,-6.9203,-6.9203,-6.947,-6.9869,-7.0002,-7.0104,-7.0498,-7.0759,-7.0889,-7.0919,-7.0919,-7.0919,-7.0919,-7.0919,-7.0919,-7.0919,-7.0919,-7.0919,-7.0919,-7.0919,-7.0919,-7.0919,-5.2825,-5.191,-5.1675,-5.1858,-5.2354,-5.2955,-5.3556,-5.4079,-5.4654,-5.502,-5.5072,-5.5099,-5.5099,-5.5099,-5.5099,-5.5099,-5.5099,-5.5099,-5.5099,-5.5125,-5.5465,-5.5647,-5.5909,-5.6301,-5.685,-5.7399,-5.7895,-5.8314,-5.8523,-5.8523,-5.8523,-5.8523,-5.8523,-5.8523,-5.8523,-5.8523,-5.8523,-5.8523,-5.8523,-5.8523,-5.8523,-5.8523,-5.8523,-5.8523,-5.8523,-5.8523,-5.8523,-5.8523,-5.8638,-5.9308,-6.0441,-6.1574,-6.2782,-6.415,-6.5035,-6.583,-6.6892,-6.7834,-6.8374,-6.8712,-6.8828,-6.8828,-6.8828,-6.8828,-6.8828,-6.8828,-6.8828,-6.8828,-6.8828,-6.8828,-6.8828,-6.8828,-6.8828,-6.8828,-6.8828,-6.8828,-6.8828,-6.8828,-6.8828,-6.8828,-6.8828,-6.8828,-6.8828,-6.8828,-6.8828,-6.8828,-6.8828,-6.8828,-6.8828,-6.8828,-6.8828,-6.8828,-6.8963,-6.8828,-6.8963,-6.9232,-6.947,-6.9604,-6.984,-7.0367,-7.0629,-7.0889,-7.0919,-7.0919,-7.0919,-7.0919,-7.0919,-7.0919,-7.0919,-7.0919,-7.0919,-7.0919,-7.0919,-7.0919,-7.0919]}]]